<?xml version="1.0" encoding="UTF-8" standalone="no" ?>
<gpx xmlns="http://www.topografix.com/GPX/1/1" xmlns:xsi="http://www.w3.org/2001/XMLSchema-instance" xsi:schemaLocation="http://www.topografix.com/GPX/1/1 http://www.topografix.com/GPX/1/1/gpx.xsd" version="1.1" creator="VisuGPX - https://www.visugpx.com">
  <metadata>
    <name>L'Hautil depuis Maurecourt</name>
  </metadata>
  <trk>
    <name><![CDATA[L'Hautil depuis Maurecourt_1]]></name>
    <trkseg>
      <trkpt lat="48.98723" lon="2.05966">
        <ele>45.5</ele>
        <time>2021-10-03T11:49:31Z</time>
      </trkpt>
      <trkpt lat="48.98721" lon="2.05974">
        <ele>44.4</ele>
        <time>2021-10-03T11:49:37Z</time>
      </trkpt>
      <trkpt lat="48.98719" lon="2.05975">
        <ele>44.3</ele>
        <time>2021-10-03T11:49:42Z</time>
      </trkpt>
      <trkpt lat="48.9872" lon="2.05976">
        <ele>44.2</ele>
        <time>2021-10-03T11:49:47Z</time>
      </trkpt>
      <trkpt lat="48.98723" lon="2.05978">
        <ele>43.9</ele>
        <time>2021-10-03T11:49:53Z</time>
      </trkpt>
      <trkpt lat="48.98726" lon="2.05981">
        <ele>43.5</ele>
        <time>2021-10-03T11:49:59Z</time>
      </trkpt>
      <trkpt lat="48.98726" lon="2.05992">
        <ele>42</ele>
        <time>2021-10-03T11:50:09Z</time>
      </trkpt>
      <trkpt lat="48.98721" lon="2.06004">
        <ele>40.7</ele>
        <time>2021-10-03T11:50:15Z</time>
      </trkpt>
      <trkpt lat="48.98719" lon="2.06008">
        <ele>40.3</ele>
        <time>2021-10-03T11:50:21Z</time>
      </trkpt>
      <trkpt lat="48.98718" lon="2.06009">
        <ele>40.3</ele>
        <time>2021-10-03T11:50:26Z</time>
      </trkpt>
      <trkpt lat="48.98718" lon="2.06009">
        <ele>40.3</ele>
        <time>2021-10-03T11:50:32Z</time>
      </trkpt>
      <trkpt lat="48.98715" lon="2.06009">
        <ele>40.3</ele>
        <time>2021-10-03T11:50:38Z</time>
      </trkpt>
      <trkpt lat="48.98711" lon="2.06006">
        <ele>40.5</ele>
        <time>2021-10-03T11:50:44Z</time>
      </trkpt>
      <trkpt lat="48.98706" lon="2.06004">
        <ele>40.6</ele>
        <time>2021-10-03T11:50:49Z</time>
      </trkpt>
      <trkpt lat="48.98701" lon="2.06012">
        <ele>40</ele>
        <time>2021-10-03T11:50:54Z</time>
      </trkpt>
      <trkpt lat="48.98695" lon="2.06014">
        <ele>39.8</ele>
        <time>2021-10-03T11:50:59Z</time>
      </trkpt>
      <trkpt lat="48.9869" lon="2.06016">
        <ele>39.7</ele>
        <time>2021-10-03T11:51:04Z</time>
      </trkpt>
      <trkpt lat="48.98687" lon="2.06019">
        <ele>39.4</ele>
        <time>2021-10-03T11:51:10Z</time>
      </trkpt>
      <trkpt lat="48.98687" lon="2.06026">
        <ele>38.8</ele>
        <time>2021-10-03T11:51:16Z</time>
      </trkpt>
      <trkpt lat="48.98689" lon="2.06035">
        <ele>38.1</ele>
        <time>2021-10-03T11:51:21Z</time>
      </trkpt>
      <trkpt lat="48.98691" lon="2.06043">
        <ele>37.4</ele>
        <time>2021-10-03T11:51:26Z</time>
      </trkpt>
      <trkpt lat="48.9869" lon="2.06049">
        <ele>36.9</ele>
        <time>2021-10-03T11:51:31Z</time>
      </trkpt>
      <trkpt lat="48.98689" lon="2.06056">
        <ele>36.3</ele>
        <time>2021-10-03T11:51:36Z</time>
      </trkpt>
      <trkpt lat="48.98691" lon="2.06065">
        <ele>35.5</ele>
        <time>2021-10-03T11:51:42Z</time>
      </trkpt>
      <trkpt lat="48.98692" lon="2.06074">
        <ele>34.8</ele>
        <time>2021-10-03T11:51:47Z</time>
      </trkpt>
      <trkpt lat="48.98691" lon="2.06084">
        <ele>33.9</ele>
        <time>2021-10-03T11:51:53Z</time>
      </trkpt>
      <trkpt lat="48.98691" lon="2.06097">
        <ele>33.1</ele>
        <time>2021-10-03T11:51:59Z</time>
      </trkpt>
      <trkpt lat="48.98691" lon="2.06108">
        <ele>32.5</ele>
        <time>2021-10-03T11:52:05Z</time>
      </trkpt>
      <trkpt lat="48.9869" lon="2.06119">
        <ele>31.8</ele>
        <time>2021-10-03T11:52:10Z</time>
      </trkpt>
      <trkpt lat="48.98687" lon="2.06128">
        <ele>31.2</ele>
        <time>2021-10-03T11:52:15Z</time>
      </trkpt>
      <trkpt lat="48.98682" lon="2.0613">
        <ele>31</ele>
        <time>2021-10-03T11:52:20Z</time>
      </trkpt>
      <trkpt lat="48.98674" lon="2.06129">
        <ele>30.9</ele>
        <time>2021-10-03T11:52:26Z</time>
      </trkpt>
      <trkpt lat="48.98668" lon="2.06127">
        <ele>30.9</ele>
        <time>2021-10-03T11:52:31Z</time>
      </trkpt>
      <trkpt lat="48.98658" lon="2.06132">
        <ele>30.4</ele>
        <time>2021-10-03T11:52:37Z</time>
      </trkpt>
      <trkpt lat="48.98654" lon="2.06139">
        <ele>29.8</ele>
        <time>2021-10-03T11:52:42Z</time>
      </trkpt>
      <trkpt lat="48.98652" lon="2.06149">
        <ele>29.1</ele>
        <time>2021-10-03T11:52:47Z</time>
      </trkpt>
      <trkpt lat="48.98651" lon="2.0616">
        <ele>28.3</ele>
        <time>2021-10-03T11:52:53Z</time>
      </trkpt>
      <trkpt lat="48.98648" lon="2.06172">
        <ele>27.6</ele>
        <time>2021-10-03T11:52:59Z</time>
      </trkpt>
      <trkpt lat="48.98642" lon="2.0618">
        <ele>27.2</ele>
        <time>2021-10-03T11:53:05Z</time>
      </trkpt>
      <trkpt lat="48.98635" lon="2.06182">
        <ele>27.1</ele>
        <time>2021-10-03T11:53:10Z</time>
      </trkpt>
      <trkpt lat="48.98626" lon="2.06182">
        <ele>27</ele>
        <time>2021-10-03T11:53:16Z</time>
      </trkpt>
      <trkpt lat="48.9862" lon="2.06179">
        <ele>27</ele>
        <time>2021-10-03T11:53:21Z</time>
      </trkpt>
      <trkpt lat="48.98613" lon="2.06178">
        <ele>27</ele>
        <time>2021-10-03T11:53:27Z</time>
      </trkpt>
      <trkpt lat="48.98604" lon="2.06178">
        <ele>26.9</ele>
        <time>2021-10-03T11:53:33Z</time>
      </trkpt>
      <trkpt lat="48.98597" lon="2.06177">
        <ele>26.8</ele>
        <time>2021-10-03T11:53:39Z</time>
      </trkpt>
      <trkpt lat="48.98589" lon="2.06178">
        <ele>26.7</ele>
        <time>2021-10-03T11:53:44Z</time>
      </trkpt>
      <trkpt lat="48.98582" lon="2.06177">
        <ele>26.6</ele>
        <time>2021-10-03T11:53:49Z</time>
      </trkpt>
      <trkpt lat="48.98574" lon="2.06176">
        <ele>26.9</ele>
        <time>2021-10-03T11:53:55Z</time>
      </trkpt>
      <trkpt lat="48.98566" lon="2.06176">
        <ele>27.1</ele>
        <time>2021-10-03T11:54:01Z</time>
      </trkpt>
      <trkpt lat="48.98558" lon="2.06176">
        <ele>27.3</ele>
        <time>2021-10-03T11:54:07Z</time>
      </trkpt>
      <trkpt lat="48.98549" lon="2.06175">
        <ele>27.5</ele>
        <time>2021-10-03T11:54:13Z</time>
      </trkpt>
      <trkpt lat="48.98543" lon="2.06176">
        <ele>27.6</ele>
        <time>2021-10-03T11:54:18Z</time>
      </trkpt>
      <trkpt lat="48.98534" lon="2.06176">
        <ele>27.8</ele>
        <time>2021-10-03T11:54:24Z</time>
      </trkpt>
      <trkpt lat="48.98526" lon="2.06176">
        <ele>28</ele>
        <time>2021-10-03T11:54:30Z</time>
      </trkpt>
      <trkpt lat="48.98517" lon="2.06177">
        <ele>28.2</ele>
        <time>2021-10-03T11:54:36Z</time>
      </trkpt>
      <trkpt lat="48.98509" lon="2.06176">
        <ele>28.4</ele>
        <time>2021-10-03T11:54:42Z</time>
      </trkpt>
      <trkpt lat="48.98502" lon="2.06176">
        <ele>28.6</ele>
        <time>2021-10-03T11:54:47Z</time>
      </trkpt>
      <trkpt lat="48.98495" lon="2.06176">
        <ele>28.6</ele>
        <time>2021-10-03T11:54:52Z</time>
      </trkpt>
      <trkpt lat="48.98487" lon="2.06175">
        <ele>28.4</ele>
        <time>2021-10-03T11:54:58Z</time>
      </trkpt>
      <trkpt lat="48.9848" lon="2.06174">
        <ele>28.3</ele>
        <time>2021-10-03T11:55:03Z</time>
      </trkpt>
      <trkpt lat="48.98474" lon="2.06174">
        <ele>28.2</ele>
        <time>2021-10-03T11:55:08Z</time>
      </trkpt>
      <trkpt lat="48.98465" lon="2.06174">
        <ele>28</ele>
        <time>2021-10-03T11:55:14Z</time>
      </trkpt>
      <trkpt lat="48.98456" lon="2.06175">
        <ele>27.8</ele>
        <time>2021-10-03T11:55:19Z</time>
      </trkpt>
      <trkpt lat="48.98451" lon="2.06173">
        <ele>27.7</ele>
        <time>2021-10-03T11:55:24Z</time>
      </trkpt>
      <trkpt lat="48.98443" lon="2.06173">
        <ele>27.6</ele>
        <time>2021-10-03T11:55:30Z</time>
      </trkpt>
      <trkpt lat="48.98435" lon="2.06172">
        <ele>27.4</ele>
        <time>2021-10-03T11:55:35Z</time>
      </trkpt>
      <trkpt lat="48.98429" lon="2.06171">
        <ele>27.3</ele>
        <time>2021-10-03T11:55:40Z</time>
      </trkpt>
      <trkpt lat="48.9842" lon="2.0617">
        <ele>27.1</ele>
        <time>2021-10-03T11:55:46Z</time>
      </trkpt>
      <trkpt lat="48.98414" lon="2.06171">
        <ele>27</ele>
        <time>2021-10-03T11:55:51Z</time>
      </trkpt>
      <trkpt lat="48.98407" lon="2.06172">
        <ele>26.9</ele>
        <time>2021-10-03T11:55:56Z</time>
      </trkpt>
      <trkpt lat="48.98403" lon="2.06169">
        <ele>26.8</ele>
        <time>2021-10-03T11:56:02Z</time>
      </trkpt>
      <trkpt lat="48.98394" lon="2.06166">
        <ele>26.7</ele>
        <time>2021-10-03T11:56:08Z</time>
      </trkpt>
      <trkpt lat="48.98387" lon="2.06164">
        <ele>26.7</ele>
        <time>2021-10-03T11:56:13Z</time>
      </trkpt>
      <trkpt lat="48.98379" lon="2.06157">
        <ele>26.8</ele>
        <time>2021-10-03T11:56:19Z</time>
      </trkpt>
      <trkpt lat="48.98373" lon="2.06152">
        <ele>26.9</ele>
        <time>2021-10-03T11:56:24Z</time>
      </trkpt>
      <trkpt lat="48.98368" lon="2.06144">
        <ele>27.1</ele>
        <time>2021-10-03T11:56:29Z</time>
      </trkpt>
      <trkpt lat="48.98362" lon="2.06137">
        <ele>27.2</ele>
        <time>2021-10-03T11:56:35Z</time>
      </trkpt>
      <trkpt lat="48.98355" lon="2.06133">
        <ele>27.2</ele>
        <time>2021-10-03T11:56:41Z</time>
      </trkpt>
      <trkpt lat="48.98348" lon="2.0613">
        <ele>27.1</ele>
        <time>2021-10-03T11:56:47Z</time>
      </trkpt>
      <trkpt lat="48.98344" lon="2.06129">
        <ele>27.1</ele>
        <time>2021-10-03T11:56:52Z</time>
      </trkpt>
      <trkpt lat="48.98342" lon="2.06134">
        <ele>26.9</ele>
        <time>2021-10-03T11:56:58Z</time>
      </trkpt>
      <trkpt lat="48.98339" lon="2.0614">
        <ele>26.7</ele>
        <time>2021-10-03T11:57:03Z</time>
      </trkpt>
      <trkpt lat="48.98332" lon="2.06151">
        <ele>26.4</ele>
        <time>2021-10-03T11:57:09Z</time>
      </trkpt>
      <trkpt lat="48.9833" lon="2.06158">
        <ele>26.1</ele>
        <time>2021-10-03T11:57:14Z</time>
      </trkpt>
      <trkpt lat="48.98326" lon="2.06166">
        <ele>25.9</ele>
        <time>2021-10-03T11:57:19Z</time>
      </trkpt>
      <trkpt lat="48.98322" lon="2.06176">
        <ele>25.5</ele>
        <time>2021-10-03T11:57:25Z</time>
      </trkpt>
      <trkpt lat="48.98321" lon="2.06179">
        <ele>25.4</ele>
        <time>2021-10-03T11:57:31Z</time>
      </trkpt>
      <trkpt lat="48.98316" lon="2.06188">
        <ele>25.2</ele>
        <time>2021-10-03T11:57:36Z</time>
      </trkpt>
      <trkpt lat="48.98311" lon="2.062">
        <ele>24.9</ele>
        <time>2021-10-03T11:57:42Z</time>
      </trkpt>
      <trkpt lat="48.98305" lon="2.06208">
        <ele>24.7</ele>
        <time>2021-10-03T11:57:47Z</time>
      </trkpt>
      <trkpt lat="48.98298" lon="2.06212">
        <ele>24.5</ele>
        <time>2021-10-03T11:57:52Z</time>
      </trkpt>
      <trkpt lat="48.9829" lon="2.06216">
        <ele>24.4</ele>
        <time>2021-10-03T11:57:58Z</time>
      </trkpt>
      <trkpt lat="48.98284" lon="2.06225">
        <ele>24.2</ele>
        <time>2021-10-03T11:58:04Z</time>
      </trkpt>
      <trkpt lat="48.98283" lon="2.06229">
        <ele>24.2</ele>
        <time>2021-10-03T11:58:09Z</time>
      </trkpt>
      <trkpt lat="48.9828" lon="2.06228">
        <ele>24.2</ele>
        <time>2021-10-03T11:58:14Z</time>
      </trkpt>
      <trkpt lat="48.98274" lon="2.06222">
        <ele>24.2</ele>
        <time>2021-10-03T11:58:20Z</time>
      </trkpt>
      <trkpt lat="48.98268" lon="2.06215">
        <ele>24.2</ele>
        <time>2021-10-03T11:58:25Z</time>
      </trkpt>
      <trkpt lat="48.9826" lon="2.0621">
        <ele>24.1</ele>
        <time>2021-10-03T11:58:31Z</time>
      </trkpt>
      <trkpt lat="48.98254" lon="2.06207">
        <ele>24</ele>
        <time>2021-10-03T11:58:36Z</time>
      </trkpt>
      <trkpt lat="48.98249" lon="2.062">
        <ele>24</ele>
        <time>2021-10-03T11:58:41Z</time>
      </trkpt>
      <trkpt lat="48.98245" lon="2.06195">
        <ele>23.9</ele>
        <time>2021-10-03T11:58:46Z</time>
      </trkpt>
      <trkpt lat="48.9824" lon="2.0619">
        <ele>23.7</ele>
        <time>2021-10-03T11:58:51Z</time>
      </trkpt>
      <trkpt lat="48.98233" lon="2.06185">
        <ele>23.6</ele>
        <time>2021-10-03T11:58:57Z</time>
      </trkpt>
      <trkpt lat="48.98226" lon="2.06179">
        <ele>23.4</ele>
        <time>2021-10-03T11:59:03Z</time>
      </trkpt>
      <trkpt lat="48.9822" lon="2.06176">
        <ele>23.2</ele>
        <time>2021-10-03T11:59:08Z</time>
      </trkpt>
      <trkpt lat="48.98214" lon="2.06172">
        <ele>23.1</ele>
        <time>2021-10-03T11:59:13Z</time>
      </trkpt>
      <trkpt lat="48.98208" lon="2.06168">
        <ele>23</ele>
        <time>2021-10-03T11:59:18Z</time>
      </trkpt>
      <trkpt lat="48.982" lon="2.06162">
        <ele>22.9</ele>
        <time>2021-10-03T11:59:24Z</time>
      </trkpt>
      <trkpt lat="48.98193" lon="2.06155">
        <ele>23</ele>
        <time>2021-10-03T11:59:30Z</time>
      </trkpt>
      <trkpt lat="48.98186" lon="2.06149">
        <ele>23</ele>
        <time>2021-10-03T11:59:36Z</time>
      </trkpt>
      <trkpt lat="48.9818" lon="2.06145">
        <ele>23.1</ele>
        <time>2021-10-03T11:59:41Z</time>
      </trkpt>
      <trkpt lat="48.98176" lon="2.0614">
        <ele>23.2</ele>
        <time>2021-10-03T11:59:46Z</time>
      </trkpt>
      <trkpt lat="48.98171" lon="2.06133">
        <ele>23.3</ele>
        <time>2021-10-03T11:59:52Z</time>
      </trkpt>
      <trkpt lat="48.98165" lon="2.06127">
        <ele>23.4</ele>
        <time>2021-10-03T11:59:58Z</time>
      </trkpt>
      <trkpt lat="48.98159" lon="2.06121">
        <ele>23.6</ele>
        <time>2021-10-03T12:00:04Z</time>
      </trkpt>
      <trkpt lat="48.98153" lon="2.06114">
        <ele>23.8</ele>
        <time>2021-10-03T12:00:10Z</time>
      </trkpt>
      <trkpt lat="48.98148" lon="2.06109">
        <ele>23.9</ele>
        <time>2021-10-03T12:00:15Z</time>
      </trkpt>
      <trkpt lat="48.98142" lon="2.06103">
        <ele>24</ele>
        <time>2021-10-03T12:00:20Z</time>
      </trkpt>
      <trkpt lat="48.98137" lon="2.06098">
        <ele>24</ele>
        <time>2021-10-03T12:00:25Z</time>
      </trkpt>
      <trkpt lat="48.9813" lon="2.06092">
        <ele>24</ele>
        <time>2021-10-03T12:00:31Z</time>
      </trkpt>
      <trkpt lat="48.98126" lon="2.06086">
        <ele>24</ele>
        <time>2021-10-03T12:00:36Z</time>
      </trkpt>
      <trkpt lat="48.98119" lon="2.06082">
        <ele>23.9</ele>
        <time>2021-10-03T12:00:41Z</time>
      </trkpt>
      <trkpt lat="48.9811" lon="2.06076">
        <ele>23.9</ele>
        <time>2021-10-03T12:00:47Z</time>
      </trkpt>
      <trkpt lat="48.98103" lon="2.0607">
        <ele>24</ele>
        <time>2021-10-03T12:00:53Z</time>
      </trkpt>
      <trkpt lat="48.98097" lon="2.06066">
        <ele>24</ele>
        <time>2021-10-03T12:00:58Z</time>
      </trkpt>
      <trkpt lat="48.98092" lon="2.06059">
        <ele>24.1</ele>
        <time>2021-10-03T12:01:03Z</time>
      </trkpt>
      <trkpt lat="48.98084" lon="2.06053">
        <ele>24.1</ele>
        <time>2021-10-03T12:01:09Z</time>
      </trkpt>
      <trkpt lat="48.98078" lon="2.06046">
        <ele>24.3</ele>
        <time>2021-10-03T12:01:15Z</time>
      </trkpt>
      <trkpt lat="48.9807" lon="2.06042">
        <ele>24.4</ele>
        <time>2021-10-03T12:01:21Z</time>
      </trkpt>
      <trkpt lat="48.98066" lon="2.06037">
        <ele>24.5</ele>
        <time>2021-10-03T12:01:26Z</time>
      </trkpt>
      <trkpt lat="48.98059" lon="2.06034">
        <ele>24.5</ele>
        <time>2021-10-03T12:01:31Z</time>
      </trkpt>
      <trkpt lat="48.98052" lon="2.06027">
        <ele>24.5</ele>
        <time>2021-10-03T12:01:37Z</time>
      </trkpt>
      <trkpt lat="48.98044" lon="2.06021">
        <ele>24.4</ele>
        <time>2021-10-03T12:01:43Z</time>
      </trkpt>
      <trkpt lat="48.98039" lon="2.06015">
        <ele>24.3</ele>
        <time>2021-10-03T12:01:48Z</time>
      </trkpt>
      <trkpt lat="48.98032" lon="2.06009">
        <ele>24.2</ele>
        <time>2021-10-03T12:01:54Z</time>
      </trkpt>
      <trkpt lat="48.98025" lon="2.06002">
        <ele>23.9</ele>
        <time>2021-10-03T12:02:00Z</time>
      </trkpt>
      <trkpt lat="48.9802" lon="2.05998">
        <ele>23.8</ele>
        <time>2021-10-03T12:02:05Z</time>
      </trkpt>
      <trkpt lat="48.98016" lon="2.0599">
        <ele>24.1</ele>
        <time>2021-10-03T12:02:10Z</time>
      </trkpt>
      <trkpt lat="48.9801" lon="2.05984">
        <ele>24.2</ele>
        <time>2021-10-03T12:02:15Z</time>
      </trkpt>
      <trkpt lat="48.98003" lon="2.05977">
        <ele>24.2</ele>
        <time>2021-10-03T12:02:21Z</time>
      </trkpt>
      <trkpt lat="48.97996" lon="2.0597">
        <ele>24.3</ele>
        <time>2021-10-03T12:02:27Z</time>
      </trkpt>
      <trkpt lat="48.97989" lon="2.05965">
        <ele>24.3</ele>
        <time>2021-10-03T12:02:33Z</time>
      </trkpt>
      <trkpt lat="48.97985" lon="2.05958">
        <ele>24.5</ele>
        <time>2021-10-03T12:02:38Z</time>
      </trkpt>
      <trkpt lat="48.97981" lon="2.05954">
        <ele>24.5</ele>
        <time>2021-10-03T12:02:43Z</time>
      </trkpt>
      <trkpt lat="48.97975" lon="2.05948">
        <ele>24.5</ele>
        <time>2021-10-03T12:02:49Z</time>
      </trkpt>
      <trkpt lat="48.9797" lon="2.05942">
        <ele>24.4</ele>
        <time>2021-10-03T12:02:54Z</time>
      </trkpt>
      <trkpt lat="48.97965" lon="2.05935">
        <ele>24.4</ele>
        <time>2021-10-03T12:03:00Z</time>
      </trkpt>
      <trkpt lat="48.97958" lon="2.05927">
        <ele>24.2</ele>
        <time>2021-10-03T12:03:06Z</time>
      </trkpt>
      <trkpt lat="48.97951" lon="2.05921">
        <ele>24</ele>
        <time>2021-10-03T12:03:12Z</time>
      </trkpt>
      <trkpt lat="48.97946" lon="2.05915">
        <ele>23.9</ele>
        <time>2021-10-03T12:03:17Z</time>
      </trkpt>
      <trkpt lat="48.97941" lon="2.05908">
        <ele>23.9</ele>
        <time>2021-10-03T12:03:22Z</time>
      </trkpt>
      <trkpt lat="48.97937" lon="2.05902">
        <ele>24</ele>
        <time>2021-10-03T12:03:27Z</time>
      </trkpt>
      <trkpt lat="48.97932" lon="2.05896">
        <ele>24.1</ele>
        <time>2021-10-03T12:03:33Z</time>
      </trkpt>
      <trkpt lat="48.97924" lon="2.0589">
        <ele>24</ele>
        <time>2021-10-03T12:03:39Z</time>
      </trkpt>
      <trkpt lat="48.97919" lon="2.05884">
        <ele>24.1</ele>
        <time>2021-10-03T12:03:44Z</time>
      </trkpt>
      <trkpt lat="48.97916" lon="2.05879">
        <ele>24.2</ele>
        <time>2021-10-03T12:03:49Z</time>
      </trkpt>
      <trkpt lat="48.97909" lon="2.05875">
        <ele>24.4</ele>
        <time>2021-10-03T12:03:54Z</time>
      </trkpt>
      <trkpt lat="48.979" lon="2.05867">
        <ele>24.6</ele>
        <time>2021-10-03T12:04:00Z</time>
      </trkpt>
      <trkpt lat="48.97893" lon="2.05859">
        <ele>24.8</ele>
        <time>2021-10-03T12:04:06Z</time>
      </trkpt>
      <trkpt lat="48.97887" lon="2.05853">
        <ele>24.8</ele>
        <time>2021-10-03T12:04:11Z</time>
      </trkpt>
      <trkpt lat="48.97881" lon="2.05844">
        <ele>24.9</ele>
        <time>2021-10-03T12:04:17Z</time>
      </trkpt>
      <trkpt lat="48.97876" lon="2.05839">
        <ele>24.9</ele>
        <time>2021-10-03T12:04:22Z</time>
      </trkpt>
      <trkpt lat="48.9787" lon="2.05832">
        <ele>24.8</ele>
        <time>2021-10-03T12:04:27Z</time>
      </trkpt>
      <trkpt lat="48.97863" lon="2.05825">
        <ele>24.8</ele>
        <time>2021-10-03T12:04:33Z</time>
      </trkpt>
      <trkpt lat="48.97857" lon="2.05818">
        <ele>24.7</ele>
        <time>2021-10-03T12:04:38Z</time>
      </trkpt>
      <trkpt lat="48.97857" lon="2.05811">
        <ele>24.9</ele>
        <time>2021-10-03T12:04:43Z</time>
      </trkpt>
      <trkpt lat="48.97861" lon="2.05804">
        <ele>25.4</ele>
        <time>2021-10-03T12:04:49Z</time>
      </trkpt>
      <trkpt lat="48.97864" lon="2.05796">
        <ele>25.8</ele>
        <time>2021-10-03T12:04:55Z</time>
      </trkpt>
      <trkpt lat="48.97863" lon="2.05787">
        <ele>26.1</ele>
        <time>2021-10-03T12:05:00Z</time>
      </trkpt>
      <trkpt lat="48.97865" lon="2.05783">
        <ele>26.3</ele>
        <time>2021-10-03T12:05:06Z</time>
      </trkpt>
      <trkpt lat="48.97869" lon="2.05781">
        <ele>26.6</ele>
        <time>2021-10-03T12:05:11Z</time>
      </trkpt>
      <trkpt lat="48.97874" lon="2.05777">
        <ele>27</ele>
        <time>2021-10-03T12:05:17Z</time>
      </trkpt>
      <trkpt lat="48.97879" lon="2.05771">
        <ele>27.4</ele>
        <time>2021-10-03T12:05:23Z</time>
      </trkpt>
      <trkpt lat="48.97882" lon="2.05762">
        <ele>27.9</ele>
        <time>2021-10-03T12:05:28Z</time>
      </trkpt>
      <trkpt lat="48.97885" lon="2.05755">
        <ele>28.3</ele>
        <time>2021-10-03T12:05:33Z</time>
      </trkpt>
      <trkpt lat="48.97888" lon="2.05748">
        <ele>28.7</ele>
        <time>2021-10-03T12:05:38Z</time>
      </trkpt>
      <trkpt lat="48.97892" lon="2.05738">
        <ele>29.1</ele>
        <time>2021-10-03T12:05:44Z</time>
      </trkpt>
      <trkpt lat="48.97896" lon="2.05732">
        <ele>29.4</ele>
        <time>2021-10-03T12:05:50Z</time>
      </trkpt>
      <trkpt lat="48.97899" lon="2.0572">
        <ele>29.9</ele>
        <time>2021-10-03T12:05:56Z</time>
      </trkpt>
      <trkpt lat="48.97903" lon="2.05709">
        <ele>30.3</ele>
        <time>2021-10-03T12:06:02Z</time>
      </trkpt>
      <trkpt lat="48.97903" lon="2.05703">
        <ele>30.5</ele>
        <time>2021-10-03T12:06:07Z</time>
      </trkpt>
      <trkpt lat="48.97904" lon="2.05694">
        <ele>30.8</ele>
        <time>2021-10-03T12:06:12Z</time>
      </trkpt>
      <trkpt lat="48.97908" lon="2.05688">
        <ele>31.1</ele>
        <time>2021-10-03T12:06:18Z</time>
      </trkpt>
      <trkpt lat="48.97911" lon="2.05677">
        <ele>31.5</ele>
        <time>2021-10-03T12:06:24Z</time>
      </trkpt>
      <trkpt lat="48.97915" lon="2.05668">
        <ele>31.9</ele>
        <time>2021-10-03T12:06:30Z</time>
      </trkpt>
      <trkpt lat="48.97918" lon="2.05661">
        <ele>32.7</ele>
        <time>2021-10-03T12:06:35Z</time>
      </trkpt>
      <trkpt lat="48.97921" lon="2.05654">
        <ele>33.8</ele>
        <time>2021-10-03T12:06:40Z</time>
      </trkpt>
      <trkpt lat="48.97926" lon="2.0565">
        <ele>34.7</ele>
        <time>2021-10-03T12:06:46Z</time>
      </trkpt>
      <trkpt lat="48.97928" lon="2.05638">
        <ele>36.2</ele>
        <time>2021-10-03T12:06:51Z</time>
      </trkpt>
      <trkpt lat="48.9793" lon="2.0563">
        <ele>37.4</ele>
        <time>2021-10-03T12:06:57Z</time>
      </trkpt>
      <trkpt lat="48.97934" lon="2.05619">
        <ele>39.3</ele>
        <time>2021-10-03T12:07:03Z</time>
      </trkpt>
      <trkpt lat="48.97939" lon="2.0561">
        <ele>40.9</ele>
        <time>2021-10-03T12:07:09Z</time>
      </trkpt>
      <trkpt lat="48.97941" lon="2.05603">
        <ele>42</ele>
        <time>2021-10-03T12:07:14Z</time>
      </trkpt>
      <trkpt lat="48.97944" lon="2.05598">
        <ele>43</ele>
        <time>2021-10-03T12:07:20Z</time>
      </trkpt>
      <trkpt lat="48.97947" lon="2.05595">
        <ele>43.8</ele>
        <time>2021-10-03T12:07:26Z</time>
      </trkpt>
      <trkpt lat="48.97948" lon="2.0559">
        <ele>44.6</ele>
        <time>2021-10-03T12:07:31Z</time>
      </trkpt>
      <trkpt lat="48.97943" lon="2.05581">
        <ele>45.1</ele>
        <time>2021-10-03T12:07:37Z</time>
      </trkpt>
      <trkpt lat="48.97936" lon="2.05574">
        <ele>45</ele>
        <time>2021-10-03T12:07:43Z</time>
      </trkpt>
      <trkpt lat="48.9793" lon="2.05568">
        <ele>45.1</ele>
        <time>2021-10-03T12:07:49Z</time>
      </trkpt>
      <trkpt lat="48.97925" lon="2.05564">
        <ele>44.8</ele>
        <time>2021-10-03T12:07:54Z</time>
      </trkpt>
      <trkpt lat="48.97921" lon="2.05562">
        <ele>44.6</ele>
        <time>2021-10-03T12:07:59Z</time>
      </trkpt>
      <trkpt lat="48.97921" lon="2.05562">
        <ele>44.7</ele>
        <time>2021-10-03T12:08:05Z</time>
      </trkpt>
      <trkpt lat="48.97921" lon="2.05562">
        <ele>44.6</ele>
        <time>2021-10-03T12:08:10Z</time>
      </trkpt>
      <trkpt lat="48.97925" lon="2.05562">
        <ele>45.1</ele>
        <time>2021-10-03T12:08:16Z</time>
      </trkpt>
      <trkpt lat="48.97929" lon="2.05562">
        <ele>45.8</ele>
        <time>2021-10-03T12:08:21Z</time>
      </trkpt>
      <trkpt lat="48.97934" lon="2.05561">
        <ele>46.6</ele>
        <time>2021-10-03T12:08:27Z</time>
      </trkpt>
      <trkpt lat="48.97938" lon="2.05562">
        <ele>47</ele>
        <time>2021-10-03T12:08:32Z</time>
      </trkpt>
      <trkpt lat="48.97941" lon="2.05562">
        <ele>47.5</ele>
        <time>2021-10-03T12:08:37Z</time>
      </trkpt>
      <trkpt lat="48.97944" lon="2.05559">
        <ele>48.2</ele>
        <time>2021-10-03T12:08:42Z</time>
      </trkpt>
      <trkpt lat="48.97945" lon="2.0556">
        <ele>48.3</ele>
        <time>2021-10-03T12:08:48Z</time>
      </trkpt>
      <trkpt lat="48.97946" lon="2.0556">
        <ele>48.4</ele>
        <time>2021-10-03T12:08:54Z</time>
      </trkpt>
      <trkpt lat="48.97949" lon="2.05562">
        <ele>48.5</ele>
        <time>2021-10-03T12:08:59Z</time>
      </trkpt>
      <trkpt lat="48.97952" lon="2.0556">
        <ele>49.1</ele>
        <time>2021-10-03T12:09:04Z</time>
      </trkpt>
      <trkpt lat="48.97955" lon="2.05552">
        <ele>50.7</ele>
        <time>2021-10-03T12:09:10Z</time>
      </trkpt>
      <trkpt lat="48.97959" lon="2.05545">
        <ele>52</ele>
        <time>2021-10-03T12:09:15Z</time>
      </trkpt>
      <trkpt lat="48.97962" lon="2.05538">
        <ele>53.4</ele>
        <time>2021-10-03T12:09:21Z</time>
      </trkpt>
      <trkpt lat="48.97965" lon="2.05531">
        <ele>54.8</ele>
        <time>2021-10-03T12:09:27Z</time>
      </trkpt>
      <trkpt lat="48.97968" lon="2.05524">
        <ele>56</ele>
        <time>2021-10-03T12:09:33Z</time>
      </trkpt>
      <trkpt lat="48.97971" lon="2.05519">
        <ele>57.1</ele>
        <time>2021-10-03T12:09:38Z</time>
      </trkpt>
      <trkpt lat="48.97973" lon="2.05511">
        <ele>58.4</ele>
        <time>2021-10-03T12:09:43Z</time>
      </trkpt>
      <trkpt lat="48.97977" lon="2.05505">
        <ele>59.5</ele>
        <time>2021-10-03T12:09:48Z</time>
      </trkpt>
      <trkpt lat="48.9798" lon="2.05499">
        <ele>60.7</ele>
        <time>2021-10-03T12:09:54Z</time>
      </trkpt>
      <trkpt lat="48.97983" lon="2.0549">
        <ele>61.8</ele>
        <time>2021-10-03T12:10:00Z</time>
      </trkpt>
      <trkpt lat="48.97988" lon="2.05484">
        <ele>63</ele>
        <time>2021-10-03T12:10:06Z</time>
      </trkpt>
      <trkpt lat="48.9799" lon="2.05481">
        <ele>63.4</ele>
        <time>2021-10-03T12:10:12Z</time>
      </trkpt>
      <trkpt lat="48.97992" lon="2.05484">
        <ele>63.5</ele>
        <time>2021-10-03T12:10:17Z</time>
      </trkpt>
      <trkpt lat="48.98" lon="2.05494">
        <ele>63.5</ele>
        <time>2021-10-03T12:10:23Z</time>
      </trkpt>
      <trkpt lat="48.98004" lon="2.05503">
        <ele>63.1</ele>
        <time>2021-10-03T12:10:28Z</time>
      </trkpt>
      <trkpt lat="48.98007" lon="2.05509">
        <ele>62.7</ele>
        <time>2021-10-03T12:10:33Z</time>
      </trkpt>
      <trkpt lat="48.98012" lon="2.05518">
        <ele>62.3</ele>
        <time>2021-10-03T12:10:39Z</time>
      </trkpt>
      <trkpt lat="48.98016" lon="2.05521">
        <ele>62.3</ele>
        <time>2021-10-03T12:10:44Z</time>
      </trkpt>
      <trkpt lat="48.98017" lon="2.05523">
        <ele>62.2</ele>
        <time>2021-10-03T12:10:49Z</time>
      </trkpt>
      <trkpt lat="48.9802" lon="2.05529">
        <ele>61.8</ele>
        <time>2021-10-03T12:10:55Z</time>
      </trkpt>
      <trkpt lat="48.98025" lon="2.05533">
        <ele>62</ele>
        <time>2021-10-03T12:11:00Z</time>
      </trkpt>
      <trkpt lat="48.98031" lon="2.05533">
        <ele>62.6</ele>
        <time>2021-10-03T12:11:05Z</time>
      </trkpt>
      <trkpt lat="48.98038" lon="2.05528">
        <ele>64.1</ele>
        <time>2021-10-03T12:11:11Z</time>
      </trkpt>
      <trkpt lat="48.98042" lon="2.05521">
        <ele>65.2</ele>
        <time>2021-10-03T12:11:17Z</time>
      </trkpt>
      <trkpt lat="48.98045" lon="2.05514">
        <ele>66.4</ele>
        <time>2021-10-03T12:11:23Z</time>
      </trkpt>
      <trkpt lat="48.98049" lon="2.05507">
        <ele>67.5</ele>
        <time>2021-10-03T12:11:28Z</time>
      </trkpt>
      <trkpt lat="48.98053" lon="2.05499">
        <ele>68.8</ele>
        <time>2021-10-03T12:11:33Z</time>
      </trkpt>
      <trkpt lat="48.98056" lon="2.05489">
        <ele>69.9</ele>
        <time>2021-10-03T12:11:39Z</time>
      </trkpt>
      <trkpt lat="48.98059" lon="2.05482">
        <ele>70.7</ele>
        <time>2021-10-03T12:11:45Z</time>
      </trkpt>
      <trkpt lat="48.98061" lon="2.05471">
        <ele>71.7</ele>
        <time>2021-10-03T12:11:51Z</time>
      </trkpt>
      <trkpt lat="48.98063" lon="2.05461">
        <ele>72.8</ele>
        <time>2021-10-03T12:11:57Z</time>
      </trkpt>
      <trkpt lat="48.98066" lon="2.05453">
        <ele>73.6</ele>
        <time>2021-10-03T12:12:02Z</time>
      </trkpt>
      <trkpt lat="48.98068" lon="2.05445">
        <ele>74.4</ele>
        <time>2021-10-03T12:12:07Z</time>
      </trkpt>
      <trkpt lat="48.98071" lon="2.05436">
        <ele>75.4</ele>
        <time>2021-10-03T12:12:13Z</time>
      </trkpt>
      <trkpt lat="48.98073" lon="2.05429">
        <ele>76.2</ele>
        <time>2021-10-03T12:12:18Z</time>
      </trkpt>
      <trkpt lat="48.98076" lon="2.0542">
        <ele>77.1</ele>
        <time>2021-10-03T12:12:24Z</time>
      </trkpt>
      <trkpt lat="48.98078" lon="2.05412">
        <ele>77.8</ele>
        <time>2021-10-03T12:12:29Z</time>
      </trkpt>
      <trkpt lat="48.98081" lon="2.05403">
        <ele>78.6</ele>
        <time>2021-10-03T12:12:34Z</time>
      </trkpt>
      <trkpt lat="48.98083" lon="2.05395">
        <ele>79.3</ele>
        <time>2021-10-03T12:12:39Z</time>
      </trkpt>
      <trkpt lat="48.98084" lon="2.05387">
        <ele>79.8</ele>
        <time>2021-10-03T12:12:44Z</time>
      </trkpt>
      <trkpt lat="48.98087" lon="2.0538">
        <ele>80.3</ele>
        <time>2021-10-03T12:12:50Z</time>
      </trkpt>
      <trkpt lat="48.98091" lon="2.05374">
        <ele>80.8</ele>
        <time>2021-10-03T12:12:56Z</time>
      </trkpt>
      <trkpt lat="48.98095" lon="2.0537">
        <ele>81.2</ele>
        <time>2021-10-03T12:13:01Z</time>
      </trkpt>
      <trkpt lat="48.98099" lon="2.05363">
        <ele>81.8</ele>
        <time>2021-10-03T12:13:06Z</time>
      </trkpt>
      <trkpt lat="48.98104" lon="2.05358">
        <ele>82.2</ele>
        <time>2021-10-03T12:13:11Z</time>
      </trkpt>
      <trkpt lat="48.98109" lon="2.0535">
        <ele>82.8</ele>
        <time>2021-10-03T12:13:17Z</time>
      </trkpt>
      <trkpt lat="48.98112" lon="2.05342">
        <ele>83.5</ele>
        <time>2021-10-03T12:13:22Z</time>
      </trkpt>
      <trkpt lat="48.98117" lon="2.05334">
        <ele>84.2</ele>
        <time>2021-10-03T12:13:28Z</time>
      </trkpt>
      <trkpt lat="48.98121" lon="2.05325">
        <ele>84.8</ele>
        <time>2021-10-03T12:13:34Z</time>
      </trkpt>
      <trkpt lat="48.98125" lon="2.05318">
        <ele>85.3</ele>
        <time>2021-10-03T12:13:39Z</time>
      </trkpt>
      <trkpt lat="48.98129" lon="2.05312">
        <ele>85.8</ele>
        <time>2021-10-03T12:13:45Z</time>
      </trkpt>
      <trkpt lat="48.98132" lon="2.05304">
        <ele>86.4</ele>
        <time>2021-10-03T12:13:50Z</time>
      </trkpt>
      <trkpt lat="48.98136" lon="2.05297">
        <ele>87</ele>
        <time>2021-10-03T12:13:56Z</time>
      </trkpt>
      <trkpt lat="48.98138" lon="2.05289">
        <ele>87.6</ele>
        <time>2021-10-03T12:14:01Z</time>
      </trkpt>
      <trkpt lat="48.98141" lon="2.05279">
        <ele>88.4</ele>
        <time>2021-10-03T12:14:07Z</time>
      </trkpt>
      <trkpt lat="48.98145" lon="2.05272">
        <ele>89</ele>
        <time>2021-10-03T12:14:12Z</time>
      </trkpt>
      <trkpt lat="48.98149" lon="2.05266">
        <ele>89.7</ele>
        <time>2021-10-03T12:14:17Z</time>
      </trkpt>
      <trkpt lat="48.98153" lon="2.05261">
        <ele>90.3</ele>
        <time>2021-10-03T12:14:23Z</time>
      </trkpt>
      <trkpt lat="48.98161" lon="2.05258">
        <ele>91</ele>
        <time>2021-10-03T12:14:29Z</time>
      </trkpt>
      <trkpt lat="48.98167" lon="2.05258">
        <ele>91.4</ele>
        <time>2021-10-03T12:14:35Z</time>
      </trkpt>
      <trkpt lat="48.98175" lon="2.05257">
        <ele>91.6</ele>
        <time>2021-10-03T12:14:41Z</time>
      </trkpt>
      <trkpt lat="48.98178" lon="2.05249">
        <ele>92.2</ele>
        <time>2021-10-03T12:14:47Z</time>
      </trkpt>
      <trkpt lat="48.9818" lon="2.0524">
        <ele>92.4</ele>
        <time>2021-10-03T12:14:52Z</time>
      </trkpt>
      <trkpt lat="48.98183" lon="2.05228">
        <ele>92.9</ele>
        <time>2021-10-03T12:14:58Z</time>
      </trkpt>
      <trkpt lat="48.98185" lon="2.05218">
        <ele>93.3</ele>
        <time>2021-10-03T12:15:04Z</time>
      </trkpt>
      <trkpt lat="48.98189" lon="2.0521">
        <ele>93.6</ele>
        <time>2021-10-03T12:15:09Z</time>
      </trkpt>
      <trkpt lat="48.98192" lon="2.05199">
        <ele>94.1</ele>
        <time>2021-10-03T12:15:15Z</time>
      </trkpt>
      <trkpt lat="48.98195" lon="2.0519">
        <ele>94.5</ele>
        <time>2021-10-03T12:15:20Z</time>
      </trkpt>
      <trkpt lat="48.98197" lon="2.05182">
        <ele>94.9</ele>
        <time>2021-10-03T12:15:25Z</time>
      </trkpt>
      <trkpt lat="48.98199" lon="2.05173">
        <ele>95.3</ele>
        <time>2021-10-03T12:15:31Z</time>
      </trkpt>
      <trkpt lat="48.982" lon="2.05166">
        <ele>95.6</ele>
        <time>2021-10-03T12:15:36Z</time>
      </trkpt>
      <trkpt lat="48.98202" lon="2.05159">
        <ele>96.1</ele>
        <time>2021-10-03T12:15:41Z</time>
      </trkpt>
      <trkpt lat="48.98202" lon="2.05151">
        <ele>96.6</ele>
        <time>2021-10-03T12:15:47Z</time>
      </trkpt>
      <trkpt lat="48.98204" lon="2.05144">
        <ele>97.1</ele>
        <time>2021-10-03T12:15:53Z</time>
      </trkpt>
      <trkpt lat="48.98206" lon="2.05138">
        <ele>97.6</ele>
        <time>2021-10-03T12:15:58Z</time>
      </trkpt>
      <trkpt lat="48.98207" lon="2.05128">
        <ele>98.3</ele>
        <time>2021-10-03T12:16:03Z</time>
      </trkpt>
      <trkpt lat="48.9821" lon="2.05117">
        <ele>99.1</ele>
        <time>2021-10-03T12:16:09Z</time>
      </trkpt>
      <trkpt lat="48.98211" lon="2.05107">
        <ele>99.8</ele>
        <time>2021-10-03T12:16:14Z</time>
      </trkpt>
      <trkpt lat="48.98213" lon="2.05098">
        <ele>100.5</ele>
        <time>2021-10-03T12:16:20Z</time>
      </trkpt>
      <trkpt lat="48.98215" lon="2.05089">
        <ele>101.1</ele>
        <time>2021-10-03T12:16:26Z</time>
      </trkpt>
      <trkpt lat="48.98217" lon="2.05081">
        <ele>101.8</ele>
        <time>2021-10-03T12:16:31Z</time>
      </trkpt>
      <trkpt lat="48.98219" lon="2.05073">
        <ele>102.6</ele>
        <time>2021-10-03T12:16:36Z</time>
      </trkpt>
      <trkpt lat="48.98221" lon="2.05066">
        <ele>103.3</ele>
        <time>2021-10-03T12:16:41Z</time>
      </trkpt>
      <trkpt lat="48.98223" lon="2.05057">
        <ele>104.2</ele>
        <time>2021-10-03T12:16:47Z</time>
      </trkpt>
      <trkpt lat="48.98225" lon="2.05048">
        <ele>105</ele>
        <time>2021-10-03T12:16:53Z</time>
      </trkpt>
      <trkpt lat="48.98227" lon="2.05041">
        <ele>105.7</ele>
        <time>2021-10-03T12:16:58Z</time>
      </trkpt>
      <trkpt lat="48.98229" lon="2.05034">
        <ele>106.4</ele>
        <time>2021-10-03T12:17:04Z</time>
      </trkpt>
      <trkpt lat="48.9823" lon="2.0503">
        <ele>106.8</ele>
        <time>2021-10-03T12:17:09Z</time>
      </trkpt>
      <trkpt lat="48.98231" lon="2.05025">
        <ele>107.4</ele>
        <time>2021-10-03T12:17:14Z</time>
      </trkpt>
      <trkpt lat="48.98235" lon="2.05018">
        <ele>108.3</ele>
        <time>2021-10-03T12:17:20Z</time>
      </trkpt>
      <trkpt lat="48.9824" lon="2.05013">
        <ele>109.1</ele>
        <time>2021-10-03T12:17:26Z</time>
      </trkpt>
      <trkpt lat="48.98244" lon="2.05004">
        <ele>110.1</ele>
        <time>2021-10-03T12:17:32Z</time>
      </trkpt>
      <trkpt lat="48.98246" lon="2.04997">
        <ele>110.8</ele>
        <time>2021-10-03T12:17:37Z</time>
      </trkpt>
      <trkpt lat="48.98249" lon="2.04992">
        <ele>111.2</ele>
        <time>2021-10-03T12:17:42Z</time>
      </trkpt>
      <trkpt lat="48.98252" lon="2.04985">
        <ele>111.6</ele>
        <time>2021-10-03T12:17:47Z</time>
      </trkpt>
      <trkpt lat="48.98254" lon="2.04978">
        <ele>111.9</ele>
        <time>2021-10-03T12:17:52Z</time>
      </trkpt>
      <trkpt lat="48.98258" lon="2.04972">
        <ele>112.2</ele>
        <time>2021-10-03T12:17:58Z</time>
      </trkpt>
      <trkpt lat="48.98262" lon="2.04964">
        <ele>112.7</ele>
        <time>2021-10-03T12:18:04Z</time>
      </trkpt>
      <trkpt lat="48.98266" lon="2.04957">
        <ele>113.1</ele>
        <time>2021-10-03T12:18:09Z</time>
      </trkpt>
      <trkpt lat="48.9827" lon="2.04948">
        <ele>113.5</ele>
        <time>2021-10-03T12:18:14Z</time>
      </trkpt>
      <trkpt lat="48.98274" lon="2.04941">
        <ele>113.9</ele>
        <time>2021-10-03T12:18:19Z</time>
      </trkpt>
      <trkpt lat="48.98277" lon="2.04935">
        <ele>114.2</ele>
        <time>2021-10-03T12:18:24Z</time>
      </trkpt>
      <trkpt lat="48.9828" lon="2.04928">
        <ele>114.6</ele>
        <time>2021-10-03T12:18:30Z</time>
      </trkpt>
      <trkpt lat="48.9828" lon="2.04923">
        <ele>114.8</ele>
        <time>2021-10-03T12:18:36Z</time>
      </trkpt>
      <trkpt lat="48.9828" lon="2.04921">
        <ele>114.9</ele>
        <time>2021-10-03T12:18:41Z</time>
      </trkpt>
      <trkpt lat="48.9828" lon="2.04921">
        <ele>114.9</ele>
        <time>2021-10-03T12:18:46Z</time>
      </trkpt>
      <trkpt lat="48.9828" lon="2.04922">
        <ele>114.9</ele>
        <time>2021-10-03T12:18:52Z</time>
      </trkpt>
      <trkpt lat="48.9828" lon="2.04922">
        <ele>114.9</ele>
        <time>2021-10-03T12:18:57Z</time>
      </trkpt>
      <trkpt lat="48.9828" lon="2.04922">
        <ele>114.9</ele>
        <time>2021-10-03T12:19:03Z</time>
      </trkpt>
      <trkpt lat="48.9828" lon="2.04921">
        <ele>114.9</ele>
        <time>2021-10-03T12:19:08Z</time>
      </trkpt>
      <trkpt lat="48.9828" lon="2.04921">
        <ele>114.9</ele>
        <time>2021-10-03T12:19:14Z</time>
      </trkpt>
      <trkpt lat="48.9828" lon="2.04921">
        <ele>114.9</ele>
        <time>2021-10-03T12:19:19Z</time>
      </trkpt>
      <trkpt lat="48.9828" lon="2.04921">
        <ele>114.9</ele>
        <time>2021-10-03T12:19:24Z</time>
      </trkpt>
      <trkpt lat="48.9828" lon="2.04921">
        <ele>114.9</ele>
        <time>2021-10-03T12:19:30Z</time>
      </trkpt>
      <trkpt lat="48.9828" lon="2.04921">
        <ele>114.9</ele>
        <time>2021-10-03T12:19:36Z</time>
      </trkpt>
      <trkpt lat="48.9828" lon="2.04921">
        <ele>114.9</ele>
        <time>2021-10-03T12:19:42Z</time>
      </trkpt>
      <trkpt lat="48.98279" lon="2.04921">
        <ele>114.9</ele>
        <time>2021-10-03T12:19:48Z</time>
      </trkpt>
      <trkpt lat="48.98279" lon="2.0492">
        <ele>114.9</ele>
        <time>2021-10-03T12:19:54Z</time>
      </trkpt>
      <trkpt lat="48.98279" lon="2.0492">
        <ele>114.9</ele>
        <time>2021-10-03T12:19:59Z</time>
      </trkpt>
      <trkpt lat="48.98279" lon="2.0492">
        <ele>114.9</ele>
        <time>2021-10-03T12:20:05Z</time>
      </trkpt>
      <trkpt lat="48.98279" lon="2.0492">
        <ele>114.9</ele>
        <time>2021-10-03T12:20:10Z</time>
      </trkpt>
      <trkpt lat="48.98279" lon="2.0492">
        <ele>114.9</ele>
        <time>2021-10-03T12:20:15Z</time>
      </trkpt>
      <trkpt lat="48.98279" lon="2.0492">
        <ele>114.9</ele>
        <time>2021-10-03T12:20:20Z</time>
      </trkpt>
      <trkpt lat="48.98279" lon="2.0492">
        <ele>114.9</ele>
        <time>2021-10-03T12:20:26Z</time>
      </trkpt>
      <trkpt lat="48.98281" lon="2.04918">
        <ele>115</ele>
        <time>2021-10-03T12:20:31Z</time>
      </trkpt>
      <trkpt lat="48.98281" lon="2.04918">
        <ele>115.1</ele>
        <time>2021-10-03T12:20:36Z</time>
      </trkpt>
      <trkpt lat="48.98281" lon="2.04917">
        <ele>115.1</ele>
        <time>2021-10-03T12:20:41Z</time>
      </trkpt>
      <trkpt lat="48.98281" lon="2.04916">
        <ele>115.1</ele>
        <time>2021-10-03T12:20:46Z</time>
      </trkpt>
      <trkpt lat="48.98283" lon="2.04915">
        <ele>115.3</ele>
        <time>2021-10-03T12:20:52Z</time>
      </trkpt>
      <trkpt lat="48.98282" lon="2.04914">
        <ele>115.3</ele>
        <time>2021-10-03T12:20:57Z</time>
      </trkpt>
      <trkpt lat="48.98281" lon="2.04914">
        <ele>115.3</ele>
        <time>2021-10-03T12:21:03Z</time>
      </trkpt>
      <trkpt lat="48.98283" lon="2.0491">
        <ele>115.6</ele>
        <time>2021-10-03T12:21:08Z</time>
      </trkpt>
      <trkpt lat="48.98285" lon="2.04901">
        <ele>116.2</ele>
        <time>2021-10-03T12:21:13Z</time>
      </trkpt>
      <trkpt lat="48.98287" lon="2.0489">
        <ele>116.9</ele>
        <time>2021-10-03T12:21:18Z</time>
      </trkpt>
      <trkpt lat="48.9829" lon="2.04876">
        <ele>117.8</ele>
        <time>2021-10-03T12:21:24Z</time>
      </trkpt>
      <trkpt lat="48.98292" lon="2.04867">
        <ele>118.5</ele>
        <time>2021-10-03T12:21:29Z</time>
      </trkpt>
      <trkpt lat="48.98293" lon="2.04858">
        <ele>119.1</ele>
        <time>2021-10-03T12:21:35Z</time>
      </trkpt>
      <trkpt lat="48.98294" lon="2.04847">
        <ele>119.8</ele>
        <time>2021-10-03T12:21:40Z</time>
      </trkpt>
      <trkpt lat="48.98297" lon="2.04836">
        <ele>120.5</ele>
        <time>2021-10-03T12:21:46Z</time>
      </trkpt>
      <trkpt lat="48.98298" lon="2.04826">
        <ele>121.1</ele>
        <time>2021-10-03T12:21:51Z</time>
      </trkpt>
      <trkpt lat="48.98298" lon="2.04812">
        <ele>122</ele>
        <time>2021-10-03T12:21:57Z</time>
      </trkpt>
      <trkpt lat="48.983" lon="2.04797">
        <ele>123</ele>
        <time>2021-10-03T12:22:03Z</time>
      </trkpt>
      <trkpt lat="48.98302" lon="2.04785">
        <ele>123.8</ele>
        <time>2021-10-03T12:22:08Z</time>
      </trkpt>
      <trkpt lat="48.98304" lon="2.04777">
        <ele>124.5</ele>
        <time>2021-10-03T12:22:14Z</time>
      </trkpt>
      <trkpt lat="48.98312" lon="2.04772">
        <ele>125.4</ele>
        <time>2021-10-03T12:22:20Z</time>
      </trkpt>
      <trkpt lat="48.98317" lon="2.04769">
        <ele>126</ele>
        <time>2021-10-03T12:22:25Z</time>
      </trkpt>
      <trkpt lat="48.98322" lon="2.04754">
        <ele>127.6</ele>
        <time>2021-10-03T12:22:31Z</time>
      </trkpt>
      <trkpt lat="48.98327" lon="2.04749">
        <ele>128.5</ele>
        <time>2021-10-03T12:22:36Z</time>
      </trkpt>
      <trkpt lat="48.98331" lon="2.04742">
        <ele>129.4</ele>
        <time>2021-10-03T12:22:41Z</time>
      </trkpt>
      <trkpt lat="48.98335" lon="2.04731">
        <ele>130.6</ele>
        <time>2021-10-03T12:22:47Z</time>
      </trkpt>
      <trkpt lat="48.98336" lon="2.04717">
        <ele>131.8</ele>
        <time>2021-10-03T12:22:53Z</time>
      </trkpt>
      <trkpt lat="48.98336" lon="2.04706">
        <ele>132.8</ele>
        <time>2021-10-03T12:22:58Z</time>
      </trkpt>
      <trkpt lat="48.98337" lon="2.04695">
        <ele>133.8</ele>
        <time>2021-10-03T12:23:04Z</time>
      </trkpt>
      <trkpt lat="48.98339" lon="2.04687">
        <ele>134.6</ele>
        <time>2021-10-03T12:23:09Z</time>
      </trkpt>
      <trkpt lat="48.9834" lon="2.04677">
        <ele>135.6</ele>
        <time>2021-10-03T12:23:15Z</time>
      </trkpt>
      <trkpt lat="48.9834" lon="2.0468">
        <ele>135.3</ele>
        <time>2021-10-03T12:23:21Z</time>
      </trkpt>
      <trkpt lat="48.98338" lon="2.04682">
        <ele>135</ele>
        <time>2021-10-03T12:23:27Z</time>
      </trkpt>
      <trkpt lat="48.9833" lon="2.0468">
        <ele>134.5</ele>
        <time>2021-10-03T12:23:32Z</time>
      </trkpt>
      <trkpt lat="48.98323" lon="2.04674">
        <ele>133.9</ele>
        <time>2021-10-03T12:23:37Z</time>
      </trkpt>
      <trkpt lat="48.98314" lon="2.04669">
        <ele>133</ele>
        <time>2021-10-03T12:23:43Z</time>
      </trkpt>
      <trkpt lat="48.98304" lon="2.04662">
        <ele>132</ele>
        <time>2021-10-03T12:23:49Z</time>
      </trkpt>
      <trkpt lat="48.98298" lon="2.04653">
        <ele>131.5</ele>
        <time>2021-10-03T12:23:55Z</time>
      </trkpt>
      <trkpt lat="48.98292" lon="2.04646">
        <ele>130.9</ele>
        <time>2021-10-03T12:24:01Z</time>
      </trkpt>
      <trkpt lat="48.98288" lon="2.04639">
        <ele>130.7</ele>
        <time>2021-10-03T12:24:06Z</time>
      </trkpt>
      <trkpt lat="48.98284" lon="2.0463">
        <ele>130.3</ele>
        <time>2021-10-03T12:24:12Z</time>
      </trkpt>
      <trkpt lat="48.98277" lon="2.04622">
        <ele>129.7</ele>
        <time>2021-10-03T12:24:18Z</time>
      </trkpt>
      <trkpt lat="48.98272" lon="2.04615">
        <ele>129.2</ele>
        <time>2021-10-03T12:24:23Z</time>
      </trkpt>
      <trkpt lat="48.98266" lon="2.04606">
        <ele>128.6</ele>
        <time>2021-10-03T12:24:29Z</time>
      </trkpt>
      <trkpt lat="48.98262" lon="2.04598">
        <ele>128.3</ele>
        <time>2021-10-03T12:24:34Z</time>
      </trkpt>
      <trkpt lat="48.98257" lon="2.0459">
        <ele>127.9</ele>
        <time>2021-10-03T12:24:40Z</time>
      </trkpt>
      <trkpt lat="48.98253" lon="2.04581">
        <ele>127.6</ele>
        <time>2021-10-03T12:24:46Z</time>
      </trkpt>
      <trkpt lat="48.98248" lon="2.04573">
        <ele>127.7</ele>
        <time>2021-10-03T12:24:51Z</time>
      </trkpt>
      <trkpt lat="48.98243" lon="2.04562">
        <ele>127.9</ele>
        <time>2021-10-03T12:24:57Z</time>
      </trkpt>
      <trkpt lat="48.98237" lon="2.04552">
        <ele>128</ele>
        <time>2021-10-03T12:25:03Z</time>
      </trkpt>
      <trkpt lat="48.98231" lon="2.04544">
        <ele>127.9</ele>
        <time>2021-10-03T12:25:09Z</time>
      </trkpt>
      <trkpt lat="48.98225" lon="2.04535">
        <ele>127.8</ele>
        <time>2021-10-03T12:25:15Z</time>
      </trkpt>
      <trkpt lat="48.98222" lon="2.04528">
        <ele>127.9</ele>
        <time>2021-10-03T12:25:20Z</time>
      </trkpt>
      <trkpt lat="48.98218" lon="2.0452">
        <ele>128</ele>
        <time>2021-10-03T12:25:25Z</time>
      </trkpt>
      <trkpt lat="48.98213" lon="2.04512">
        <ele>127.9</ele>
        <time>2021-10-03T12:25:31Z</time>
      </trkpt>
      <trkpt lat="48.98209" lon="2.04502">
        <ele>128</ele>
        <time>2021-10-03T12:25:36Z</time>
      </trkpt>
      <trkpt lat="48.98204" lon="2.04492">
        <ele>127.6</ele>
        <time>2021-10-03T12:25:42Z</time>
      </trkpt>
      <trkpt lat="48.98201" lon="2.04483">
        <ele>127.3</ele>
        <time>2021-10-03T12:25:47Z</time>
      </trkpt>
      <trkpt lat="48.98199" lon="2.04471">
        <ele>127.1</ele>
        <time>2021-10-03T12:25:53Z</time>
      </trkpt>
      <trkpt lat="48.98196" lon="2.04458">
        <ele>126.9</ele>
        <time>2021-10-03T12:25:59Z</time>
      </trkpt>
      <trkpt lat="48.98194" lon="2.04447">
        <ele>126.7</ele>
        <time>2021-10-03T12:26:04Z</time>
      </trkpt>
      <trkpt lat="48.98195" lon="2.04435">
        <ele>127.2</ele>
        <time>2021-10-03T12:26:10Z</time>
      </trkpt>
      <trkpt lat="48.98196" lon="2.04424">
        <ele>127.5</ele>
        <time>2021-10-03T12:26:15Z</time>
      </trkpt>
      <trkpt lat="48.98197" lon="2.04415">
        <ele>127.7</ele>
        <time>2021-10-03T12:26:21Z</time>
      </trkpt>
      <trkpt lat="48.98196" lon="2.04406">
        <ele>127.2</ele>
        <time>2021-10-03T12:26:26Z</time>
      </trkpt>
      <trkpt lat="48.98195" lon="2.04392">
        <ele>126.5</ele>
        <time>2021-10-03T12:26:32Z</time>
      </trkpt>
      <trkpt lat="48.98194" lon="2.04381">
        <ele>125.9</ele>
        <time>2021-10-03T12:26:38Z</time>
      </trkpt>
      <trkpt lat="48.98192" lon="2.04371">
        <ele>125.2</ele>
        <time>2021-10-03T12:26:43Z</time>
      </trkpt>
      <trkpt lat="48.98191" lon="2.04359">
        <ele>124.5</ele>
        <time>2021-10-03T12:26:49Z</time>
      </trkpt>
      <trkpt lat="48.9819" lon="2.04346">
        <ele>123.8</ele>
        <time>2021-10-03T12:26:55Z</time>
      </trkpt>
      <trkpt lat="48.9819" lon="2.04336">
        <ele>123.5</ele>
        <time>2021-10-03T12:27:00Z</time>
      </trkpt>
      <trkpt lat="48.98188" lon="2.04324">
        <ele>123</ele>
        <time>2021-10-03T12:27:06Z</time>
      </trkpt>
      <trkpt lat="48.98187" lon="2.04314">
        <ele>122.8</ele>
        <time>2021-10-03T12:27:11Z</time>
      </trkpt>
      <trkpt lat="48.98186" lon="2.04303">
        <ele>122.6</ele>
        <time>2021-10-03T12:27:16Z</time>
      </trkpt>
      <trkpt lat="48.98185" lon="2.04291">
        <ele>122.3</ele>
        <time>2021-10-03T12:27:22Z</time>
      </trkpt>
      <trkpt lat="48.98184" lon="2.04282">
        <ele>122.1</ele>
        <time>2021-10-03T12:27:27Z</time>
      </trkpt>
      <trkpt lat="48.98181" lon="2.0427">
        <ele>121.7</ele>
        <time>2021-10-03T12:27:33Z</time>
      </trkpt>
      <trkpt lat="48.98175" lon="2.04267">
        <ele>121</ele>
        <time>2021-10-03T12:27:39Z</time>
      </trkpt>
      <trkpt lat="48.98168" lon="2.0427">
        <ele>120.2</ele>
        <time>2021-10-03T12:27:45Z</time>
      </trkpt>
      <trkpt lat="48.98162" lon="2.04273">
        <ele>119.4</ele>
        <time>2021-10-03T12:27:50Z</time>
      </trkpt>
      <trkpt lat="48.98154" lon="2.04276">
        <ele>118.3</ele>
        <time>2021-10-03T12:27:56Z</time>
      </trkpt>
      <trkpt lat="48.98147" lon="2.04279">
        <ele>117.4</ele>
        <time>2021-10-03T12:28:02Z</time>
      </trkpt>
      <trkpt lat="48.98141" lon="2.04285">
        <ele>116.6</ele>
        <time>2021-10-03T12:28:08Z</time>
      </trkpt>
      <trkpt lat="48.98134" lon="2.0429">
        <ele>115.7</ele>
        <time>2021-10-03T12:28:13Z</time>
      </trkpt>
      <trkpt lat="48.98127" lon="2.04294">
        <ele>114.7</ele>
        <time>2021-10-03T12:28:19Z</time>
      </trkpt>
      <trkpt lat="48.9812" lon="2.04297">
        <ele>113.9</ele>
        <time>2021-10-03T12:28:24Z</time>
      </trkpt>
      <trkpt lat="48.98113" lon="2.04301">
        <ele>112.9</ele>
        <time>2021-10-03T12:28:29Z</time>
      </trkpt>
      <trkpt lat="48.98106" lon="2.04305">
        <ele>112</ele>
        <time>2021-10-03T12:28:35Z</time>
      </trkpt>
      <trkpt lat="48.981" lon="2.04309">
        <ele>111.2</ele>
        <time>2021-10-03T12:28:40Z</time>
      </trkpt>
      <trkpt lat="48.98094" lon="2.04313">
        <ele>110.5</ele>
        <time>2021-10-03T12:28:46Z</time>
      </trkpt>
      <trkpt lat="48.98088" lon="2.04313">
        <ele>109.6</ele>
        <time>2021-10-03T12:28:52Z</time>
      </trkpt>
      <trkpt lat="48.98083" lon="2.04308">
        <ele>109</ele>
        <time>2021-10-03T12:28:57Z</time>
      </trkpt>
      <trkpt lat="48.9808" lon="2.043">
        <ele>108.7</ele>
        <time>2021-10-03T12:29:03Z</time>
      </trkpt>
      <trkpt lat="48.98078" lon="2.04293">
        <ele>108.4</ele>
        <time>2021-10-03T12:29:08Z</time>
      </trkpt>
      <trkpt lat="48.98076" lon="2.04284">
        <ele>108.2</ele>
        <time>2021-10-03T12:29:13Z</time>
      </trkpt>
      <trkpt lat="48.98074" lon="2.04271">
        <ele>107.9</ele>
        <time>2021-10-03T12:29:19Z</time>
      </trkpt>
      <trkpt lat="48.98071" lon="2.04261">
        <ele>107.5</ele>
        <time>2021-10-03T12:29:25Z</time>
      </trkpt>
      <trkpt lat="48.98069" lon="2.0425">
        <ele>107.3</ele>
        <time>2021-10-03T12:29:31Z</time>
      </trkpt>
      <trkpt lat="48.98066" lon="2.04237">
        <ele>107.1</ele>
        <time>2021-10-03T12:29:37Z</time>
      </trkpt>
      <trkpt lat="48.98063" lon="2.04228">
        <ele>106.9</ele>
        <time>2021-10-03T12:29:42Z</time>
      </trkpt>
      <trkpt lat="48.98063" lon="2.04216">
        <ele>107</ele>
        <time>2021-10-03T12:29:48Z</time>
      </trkpt>
      <trkpt lat="48.98063" lon="2.04208">
        <ele>107.2</ele>
        <time>2021-10-03T12:29:54Z</time>
      </trkpt>
      <trkpt lat="48.98062" lon="2.04194">
        <ele>107.3</ele>
        <time>2021-10-03T12:30:00Z</time>
      </trkpt>
      <trkpt lat="48.98062" lon="2.04184">
        <ele>107.5</ele>
        <time>2021-10-03T12:30:06Z</time>
      </trkpt>
      <trkpt lat="48.98062" lon="2.04173">
        <ele>107.6</ele>
        <time>2021-10-03T12:30:12Z</time>
      </trkpt>
      <trkpt lat="48.98061" lon="2.04162">
        <ele>107.7</ele>
        <time>2021-10-03T12:30:17Z</time>
      </trkpt>
      <trkpt lat="48.98057" lon="2.04151">
        <ele>107.4</ele>
        <time>2021-10-03T12:30:23Z</time>
      </trkpt>
      <trkpt lat="48.98054" lon="2.04142">
        <ele>107.3</ele>
        <time>2021-10-03T12:30:28Z</time>
      </trkpt>
      <trkpt lat="48.98052" lon="2.0413">
        <ele>107.3</ele>
        <time>2021-10-03T12:30:34Z</time>
      </trkpt>
      <trkpt lat="48.98049" lon="2.04118">
        <ele>107.2</ele>
        <time>2021-10-03T12:30:40Z</time>
      </trkpt>
      <trkpt lat="48.98048" lon="2.04107">
        <ele>107.3</ele>
        <time>2021-10-03T12:30:45Z</time>
      </trkpt>
      <trkpt lat="48.98047" lon="2.04098">
        <ele>107.3</ele>
        <time>2021-10-03T12:30:50Z</time>
      </trkpt>
      <trkpt lat="48.98044" lon="2.04089">
        <ele>107.2</ele>
        <time>2021-10-03T12:30:55Z</time>
      </trkpt>
      <trkpt lat="48.98042" lon="2.04081">
        <ele>107</ele>
        <time>2021-10-03T12:31:00Z</time>
      </trkpt>
      <trkpt lat="48.9804" lon="2.04068">
        <ele>106.7</ele>
        <time>2021-10-03T12:31:06Z</time>
      </trkpt>
      <trkpt lat="48.98038" lon="2.04055">
        <ele>106.4</ele>
        <time>2021-10-03T12:31:12Z</time>
      </trkpt>
      <trkpt lat="48.98037" lon="2.04046">
        <ele>106.2</ele>
        <time>2021-10-03T12:31:17Z</time>
      </trkpt>
      <trkpt lat="48.98036" lon="2.04034">
        <ele>106</ele>
        <time>2021-10-03T12:31:23Z</time>
      </trkpt>
      <trkpt lat="48.98034" lon="2.04024">
        <ele>105.8</ele>
        <time>2021-10-03T12:31:28Z</time>
      </trkpt>
      <trkpt lat="48.98034" lon="2.04013">
        <ele>105.7</ele>
        <time>2021-10-03T12:31:34Z</time>
      </trkpt>
      <trkpt lat="48.98033" lon="2.04005">
        <ele>105.6</ele>
        <time>2021-10-03T12:31:39Z</time>
      </trkpt>
      <trkpt lat="48.98032" lon="2.03996">
        <ele>105.3</ele>
        <time>2021-10-03T12:31:45Z</time>
      </trkpt>
      <trkpt lat="48.98031" lon="2.03985">
        <ele>104.9</ele>
        <time>2021-10-03T12:31:51Z</time>
      </trkpt>
      <trkpt lat="48.98031" lon="2.03979">
        <ele>104.7</ele>
        <time>2021-10-03T12:31:57Z</time>
      </trkpt>
      <trkpt lat="48.9803" lon="2.03975">
        <ele>104.5</ele>
        <time>2021-10-03T12:32:03Z</time>
      </trkpt>
      <trkpt lat="48.98027" lon="2.03962">
        <ele>103.9</ele>
        <time>2021-10-03T12:32:09Z</time>
      </trkpt>
      <trkpt lat="48.98028" lon="2.03951">
        <ele>103.6</ele>
        <time>2021-10-03T12:32:15Z</time>
      </trkpt>
      <trkpt lat="48.98027" lon="2.03946">
        <ele>103.4</ele>
        <time>2021-10-03T12:32:20Z</time>
      </trkpt>
      <trkpt lat="48.98024" lon="2.03933">
        <ele>102.7</ele>
        <time>2021-10-03T12:32:26Z</time>
      </trkpt>
      <trkpt lat="48.98023" lon="2.03923">
        <ele>102.3</ele>
        <time>2021-10-03T12:32:32Z</time>
      </trkpt>
      <trkpt lat="48.98023" lon="2.03912">
        <ele>102</ele>
        <time>2021-10-03T12:32:37Z</time>
      </trkpt>
      <trkpt lat="48.98023" lon="2.03898">
        <ele>102</ele>
        <time>2021-10-03T12:32:43Z</time>
      </trkpt>
      <trkpt lat="48.98025" lon="2.03884">
        <ele>102.3</ele>
        <time>2021-10-03T12:32:49Z</time>
      </trkpt>
      <trkpt lat="48.98027" lon="2.03874">
        <ele>102.6</ele>
        <time>2021-10-03T12:32:55Z</time>
      </trkpt>
      <trkpt lat="48.9803" lon="2.03867">
        <ele>102.9</ele>
        <time>2021-10-03T12:33:00Z</time>
      </trkpt>
      <trkpt lat="48.98031" lon="2.03853">
        <ele>103.2</ele>
        <time>2021-10-03T12:33:06Z</time>
      </trkpt>
      <trkpt lat="48.9803" lon="2.03838">
        <ele>103</ele>
        <time>2021-10-03T12:33:12Z</time>
      </trkpt>
      <trkpt lat="48.98029" lon="2.03831">
        <ele>102.9</ele>
        <time>2021-10-03T12:33:17Z</time>
      </trkpt>
      <trkpt lat="48.98028" lon="2.03822">
        <ele>103.1</ele>
        <time>2021-10-03T12:33:22Z</time>
      </trkpt>
      <trkpt lat="48.98026" lon="2.0381">
        <ele>103.1</ele>
        <time>2021-10-03T12:33:28Z</time>
      </trkpt>
      <trkpt lat="48.98023" lon="2.03797">
        <ele>103.1</ele>
        <time>2021-10-03T12:33:34Z</time>
      </trkpt>
      <trkpt lat="48.98021" lon="2.03785">
        <ele>103.3</ele>
        <time>2021-10-03T12:33:40Z</time>
      </trkpt>
      <trkpt lat="48.98019" lon="2.03772">
        <ele>103.4</ele>
        <time>2021-10-03T12:33:46Z</time>
      </trkpt>
      <trkpt lat="48.98018" lon="2.03763">
        <ele>103.6</ele>
        <time>2021-10-03T12:33:51Z</time>
      </trkpt>
      <trkpt lat="48.98017" lon="2.03752">
        <ele>103.7</ele>
        <time>2021-10-03T12:33:56Z</time>
      </trkpt>
      <trkpt lat="48.98014" lon="2.0374">
        <ele>103.7</ele>
        <time>2021-10-03T12:34:02Z</time>
      </trkpt>
      <trkpt lat="48.98013" lon="2.03732">
        <ele>103.7</ele>
        <time>2021-10-03T12:34:07Z</time>
      </trkpt>
      <trkpt lat="48.98014" lon="2.03722">
        <ele>103.9</ele>
        <time>2021-10-03T12:34:12Z</time>
      </trkpt>
      <trkpt lat="48.98013" lon="2.03711">
        <ele>104</ele>
        <time>2021-10-03T12:34:18Z</time>
      </trkpt>
      <trkpt lat="48.9801" lon="2.03701">
        <ele>103.8</ele>
        <time>2021-10-03T12:34:23Z</time>
      </trkpt>
      <trkpt lat="48.98007" lon="2.03691">
        <ele>103.5</ele>
        <time>2021-10-03T12:34:29Z</time>
      </trkpt>
      <trkpt lat="48.98008" lon="2.03683">
        <ele>103.8</ele>
        <time>2021-10-03T12:34:34Z</time>
      </trkpt>
      <trkpt lat="48.98009" lon="2.0367">
        <ele>104.1</ele>
        <time>2021-10-03T12:34:40Z</time>
      </trkpt>
      <trkpt lat="48.98009" lon="2.03658">
        <ele>104.1</ele>
        <time>2021-10-03T12:34:45Z</time>
      </trkpt>
      <trkpt lat="48.98013" lon="2.03645">
        <ele>104.4</ele>
        <time>2021-10-03T12:34:51Z</time>
      </trkpt>
      <trkpt lat="48.98018" lon="2.03635">
        <ele>105</ele>
        <time>2021-10-03T12:34:57Z</time>
      </trkpt>
      <trkpt lat="48.98025" lon="2.03628">
        <ele>105.9</ele>
        <time>2021-10-03T12:35:03Z</time>
      </trkpt>
      <trkpt lat="48.98031" lon="2.03621">
        <ele>106.6</ele>
        <time>2021-10-03T12:35:08Z</time>
      </trkpt>
      <trkpt lat="48.98038" lon="2.03614">
        <ele>107.4</ele>
        <time>2021-10-03T12:35:14Z</time>
      </trkpt>
      <trkpt lat="48.98045" lon="2.03608">
        <ele>108.2</ele>
        <time>2021-10-03T12:35:20Z</time>
      </trkpt>
      <trkpt lat="48.98052" lon="2.03604">
        <ele>109.1</ele>
        <time>2021-10-03T12:35:26Z</time>
      </trkpt>
      <trkpt lat="48.98057" lon="2.03599">
        <ele>109.7</ele>
        <time>2021-10-03T12:35:31Z</time>
      </trkpt>
      <trkpt lat="48.98062" lon="2.03591">
        <ele>110.3</ele>
        <time>2021-10-03T12:35:37Z</time>
      </trkpt>
      <trkpt lat="48.98067" lon="2.03584">
        <ele>110.9</ele>
        <time>2021-10-03T12:35:43Z</time>
      </trkpt>
      <trkpt lat="48.98071" lon="2.03576">
        <ele>111.3</ele>
        <time>2021-10-03T12:35:49Z</time>
      </trkpt>
      <trkpt lat="48.98076" lon="2.03568">
        <ele>111.9</ele>
        <time>2021-10-03T12:35:54Z</time>
      </trkpt>
      <trkpt lat="48.98083" lon="2.03563">
        <ele>112.7</ele>
        <time>2021-10-03T12:36:00Z</time>
      </trkpt>
      <trkpt lat="48.98087" lon="2.03558">
        <ele>113.4</ele>
        <time>2021-10-03T12:36:05Z</time>
      </trkpt>
      <trkpt lat="48.98089" lon="2.03549">
        <ele>113.6</ele>
        <time>2021-10-03T12:36:10Z</time>
      </trkpt>
      <trkpt lat="48.98088" lon="2.03539">
        <ele>113.4</ele>
        <time>2021-10-03T12:36:16Z</time>
      </trkpt>
      <trkpt lat="48.98085" lon="2.03526">
        <ele>112.6</ele>
        <time>2021-10-03T12:36:22Z</time>
      </trkpt>
      <trkpt lat="48.98083" lon="2.03515">
        <ele>112.1</ele>
        <time>2021-10-03T12:36:28Z</time>
      </trkpt>
      <trkpt lat="48.98081" lon="2.03506">
        <ele>111.8</ele>
        <time>2021-10-03T12:36:34Z</time>
      </trkpt>
      <trkpt lat="48.98079" lon="2.03496">
        <ele>111.5</ele>
        <time>2021-10-03T12:36:39Z</time>
      </trkpt>
      <trkpt lat="48.98077" lon="2.03487">
        <ele>111</ele>
        <time>2021-10-03T12:36:44Z</time>
      </trkpt>
      <trkpt lat="48.98075" lon="2.03474">
        <ele>110.5</ele>
        <time>2021-10-03T12:36:50Z</time>
      </trkpt>
      <trkpt lat="48.98074" lon="2.03463">
        <ele>110</ele>
        <time>2021-10-03T12:36:55Z</time>
      </trkpt>
      <trkpt lat="48.98073" lon="2.0345">
        <ele>109.6</ele>
        <time>2021-10-03T12:37:01Z</time>
      </trkpt>
      <trkpt lat="48.98072" lon="2.03438">
        <ele>109.3</ele>
        <time>2021-10-03T12:37:07Z</time>
      </trkpt>
      <trkpt lat="48.98071" lon="2.03426">
        <ele>108.8</ele>
        <time>2021-10-03T12:37:13Z</time>
      </trkpt>
      <trkpt lat="48.9807" lon="2.03415">
        <ele>108.5</ele>
        <time>2021-10-03T12:37:18Z</time>
      </trkpt>
      <trkpt lat="48.98068" lon="2.03406">
        <ele>108</ele>
        <time>2021-10-03T12:37:23Z</time>
      </trkpt>
      <trkpt lat="48.98065" lon="2.03397">
        <ele>107.3</ele>
        <time>2021-10-03T12:37:29Z</time>
      </trkpt>
      <trkpt lat="48.9806" lon="2.03387">
        <ele>106.6</ele>
        <time>2021-10-03T12:37:34Z</time>
      </trkpt>
      <trkpt lat="48.98056" lon="2.03374">
        <ele>105.7</ele>
        <time>2021-10-03T12:37:40Z</time>
      </trkpt>
      <trkpt lat="48.98052" lon="2.03363">
        <ele>104.9</ele>
        <time>2021-10-03T12:37:46Z</time>
      </trkpt>
      <trkpt lat="48.98049" lon="2.03353">
        <ele>104.3</ele>
        <time>2021-10-03T12:37:52Z</time>
      </trkpt>
      <trkpt lat="48.98046" lon="2.03344">
        <ele>103.8</ele>
        <time>2021-10-03T12:37:57Z</time>
      </trkpt>
      <trkpt lat="48.98041" lon="2.03337">
        <ele>103</ele>
        <time>2021-10-03T12:38:02Z</time>
      </trkpt>
      <trkpt lat="48.98035" lon="2.03329">
        <ele>102.3</ele>
        <time>2021-10-03T12:38:07Z</time>
      </trkpt>
      <trkpt lat="48.9803" lon="2.0332">
        <ele>101.5</ele>
        <time>2021-10-03T12:38:13Z</time>
      </trkpt>
      <trkpt lat="48.98025" lon="2.03312">
        <ele>100.8</ele>
        <time>2021-10-03T12:38:19Z</time>
      </trkpt>
      <trkpt lat="48.98018" lon="2.03304">
        <ele>100</ele>
        <time>2021-10-03T12:38:25Z</time>
      </trkpt>
      <trkpt lat="48.98014" lon="2.03297">
        <ele>99.4</ele>
        <time>2021-10-03T12:38:30Z</time>
      </trkpt>
      <trkpt lat="48.98009" lon="2.03291">
        <ele>98.8</ele>
        <time>2021-10-03T12:38:35Z</time>
      </trkpt>
      <trkpt lat="48.98005" lon="2.03284">
        <ele>98.3</ele>
        <time>2021-10-03T12:38:40Z</time>
      </trkpt>
      <trkpt lat="48.98001" lon="2.03274">
        <ele>97.7</ele>
        <time>2021-10-03T12:38:46Z</time>
      </trkpt>
      <trkpt lat="48.97997" lon="2.03263">
        <ele>97.2</ele>
        <time>2021-10-03T12:38:52Z</time>
      </trkpt>
      <trkpt lat="48.97992" lon="2.03251">
        <ele>96.7</ele>
        <time>2021-10-03T12:38:58Z</time>
      </trkpt>
      <trkpt lat="48.97991" lon="2.03242">
        <ele>96.6</ele>
        <time>2021-10-03T12:39:03Z</time>
      </trkpt>
      <trkpt lat="48.97988" lon="2.03233">
        <ele>96.5</ele>
        <time>2021-10-03T12:39:08Z</time>
      </trkpt>
      <trkpt lat="48.97986" lon="2.03224">
        <ele>96.4</ele>
        <time>2021-10-03T12:39:14Z</time>
      </trkpt>
      <trkpt lat="48.97983" lon="2.03216">
        <ele>96.4</ele>
        <time>2021-10-03T12:39:19Z</time>
      </trkpt>
      <trkpt lat="48.97983" lon="2.03203">
        <ele>96.4</ele>
        <time>2021-10-03T12:39:25Z</time>
      </trkpt>
      <trkpt lat="48.9798" lon="2.03188">
        <ele>96.4</ele>
        <time>2021-10-03T12:39:31Z</time>
      </trkpt>
      <trkpt lat="48.97978" lon="2.03175">
        <ele>96.4</ele>
        <time>2021-10-03T12:39:37Z</time>
      </trkpt>
      <trkpt lat="48.97978" lon="2.03166">
        <ele>96.5</ele>
        <time>2021-10-03T12:39:42Z</time>
      </trkpt>
      <trkpt lat="48.97978" lon="2.03155">
        <ele>97</ele>
        <time>2021-10-03T12:39:48Z</time>
      </trkpt>
      <trkpt lat="48.97976" lon="2.03148">
        <ele>97.3</ele>
        <time>2021-10-03T12:39:53Z</time>
      </trkpt>
      <trkpt lat="48.97972" lon="2.03138">
        <ele>97.6</ele>
        <time>2021-10-03T12:39:59Z</time>
      </trkpt>
      <trkpt lat="48.97967" lon="2.03127">
        <ele>97.9</ele>
        <time>2021-10-03T12:40:05Z</time>
      </trkpt>
      <trkpt lat="48.97962" lon="2.03116">
        <ele>98.2</ele>
        <time>2021-10-03T12:40:11Z</time>
      </trkpt>
      <trkpt lat="48.97957" lon="2.03111">
        <ele>98.3</ele>
        <time>2021-10-03T12:40:16Z</time>
      </trkpt>
      <trkpt lat="48.97953" lon="2.03102">
        <ele>98.5</ele>
        <time>2021-10-03T12:40:21Z</time>
      </trkpt>
      <trkpt lat="48.97949" lon="2.0309">
        <ele>98.9</ele>
        <time>2021-10-03T12:40:27Z</time>
      </trkpt>
      <trkpt lat="48.97945" lon="2.03081">
        <ele>99.1</ele>
        <time>2021-10-03T12:40:32Z</time>
      </trkpt>
      <trkpt lat="48.97941" lon="2.0307">
        <ele>99.3</ele>
        <time>2021-10-03T12:40:38Z</time>
      </trkpt>
      <trkpt lat="48.97939" lon="2.03065">
        <ele>99.4</ele>
        <time>2021-10-03T12:40:44Z</time>
      </trkpt>
      <trkpt lat="48.97939" lon="2.03063">
        <ele>99.4</ele>
        <time>2021-10-03T12:40:49Z</time>
      </trkpt>
      <trkpt lat="48.9794" lon="2.03061">
        <ele>99.5</ele>
        <time>2021-10-03T12:40:54Z</time>
      </trkpt>
      <trkpt lat="48.97935" lon="2.03063">
        <ele>99.2</ele>
        <time>2021-10-03T12:40:59Z</time>
      </trkpt>
      <trkpt lat="48.97927" lon="2.03059">
        <ele>99.1</ele>
        <time>2021-10-03T12:41:05Z</time>
      </trkpt>
      <trkpt lat="48.97921" lon="2.03057">
        <ele>98.8</ele>
        <time>2021-10-03T12:41:10Z</time>
      </trkpt>
      <trkpt lat="48.97915" lon="2.03054">
        <ele>98.6</ele>
        <time>2021-10-03T12:41:16Z</time>
      </trkpt>
      <trkpt lat="48.9791" lon="2.0305">
        <ele>98.5</ele>
        <time>2021-10-03T12:41:22Z</time>
      </trkpt>
      <trkpt lat="48.9791" lon="2.03041">
        <ele>98.7</ele>
        <time>2021-10-03T12:41:27Z</time>
      </trkpt>
      <trkpt lat="48.97909" lon="2.03041">
        <ele>98.7</ele>
        <time>2021-10-03T12:41:32Z</time>
      </trkpt>
      <trkpt lat="48.97907" lon="2.03039">
        <ele>98.6</ele>
        <time>2021-10-03T12:41:37Z</time>
      </trkpt>
      <trkpt lat="48.97908" lon="2.0303">
        <ele>98.9</ele>
        <time>2021-10-03T12:41:42Z</time>
      </trkpt>
      <trkpt lat="48.9791" lon="2.03018">
        <ele>99.3</ele>
        <time>2021-10-03T12:41:48Z</time>
      </trkpt>
      <trkpt lat="48.97912" lon="2.0301">
        <ele>99.5</ele>
        <time>2021-10-03T12:41:54Z</time>
      </trkpt>
      <trkpt lat="48.97914" lon="2.02998">
        <ele>99.9</ele>
        <time>2021-10-03T12:42:00Z</time>
      </trkpt>
      <trkpt lat="48.97915" lon="2.02988">
        <ele>100.1</ele>
        <time>2021-10-03T12:42:05Z</time>
      </trkpt>
      <trkpt lat="48.97916" lon="2.02977">
        <ele>100.2</ele>
        <time>2021-10-03T12:42:11Z</time>
      </trkpt>
      <trkpt lat="48.97915" lon="2.02967">
        <ele>100.3</ele>
        <time>2021-10-03T12:42:17Z</time>
      </trkpt>
      <trkpt lat="48.97917" lon="2.02958">
        <ele>100.5</ele>
        <time>2021-10-03T12:42:22Z</time>
      </trkpt>
      <trkpt lat="48.97921" lon="2.0295">
        <ele>100.9</ele>
        <time>2021-10-03T12:42:28Z</time>
      </trkpt>
      <trkpt lat="48.97926" lon="2.02944">
        <ele>101.4</ele>
        <time>2021-10-03T12:42:34Z</time>
      </trkpt>
      <trkpt lat="48.97931" lon="2.02942">
        <ele>101.8</ele>
        <time>2021-10-03T12:42:39Z</time>
      </trkpt>
      <trkpt lat="48.97934" lon="2.02938">
        <ele>102.1</ele>
        <time>2021-10-03T12:42:45Z</time>
      </trkpt>
      <trkpt lat="48.9794" lon="2.02938">
        <ele>102.6</ele>
        <time>2021-10-03T12:42:50Z</time>
      </trkpt>
      <trkpt lat="48.97945" lon="2.02935">
        <ele>103</ele>
        <time>2021-10-03T12:42:56Z</time>
      </trkpt>
      <trkpt lat="48.97941" lon="2.02931">
        <ele>102.8</ele>
        <time>2021-10-03T12:43:02Z</time>
      </trkpt>
      <trkpt lat="48.97939" lon="2.02926">
        <ele>102.7</ele>
        <time>2021-10-03T12:43:08Z</time>
      </trkpt>
      <trkpt lat="48.97936" lon="2.02916">
        <ele>102.6</ele>
        <time>2021-10-03T12:43:13Z</time>
      </trkpt>
      <trkpt lat="48.97929" lon="2.02906">
        <ele>102</ele>
        <time>2021-10-03T12:43:19Z</time>
      </trkpt>
      <trkpt lat="48.97921" lon="2.02904">
        <ele>101.3</ele>
        <time>2021-10-03T12:43:24Z</time>
      </trkpt>
      <trkpt lat="48.97913" lon="2.029">
        <ele>100.6</ele>
        <time>2021-10-03T12:43:29Z</time>
      </trkpt>
      <trkpt lat="48.97911" lon="2.02892">
        <ele>100.3</ele>
        <time>2021-10-03T12:43:34Z</time>
      </trkpt>
      <trkpt lat="48.97909" lon="2.02879">
        <ele>100.1</ele>
        <time>2021-10-03T12:43:40Z</time>
      </trkpt>
      <trkpt lat="48.97911" lon="2.02865">
        <ele>100</ele>
        <time>2021-10-03T12:43:46Z</time>
      </trkpt>
      <trkpt lat="48.97914" lon="2.02856">
        <ele>100.1</ele>
        <time>2021-10-03T12:43:51Z</time>
      </trkpt>
      <trkpt lat="48.97918" lon="2.02845">
        <ele>100.4</ele>
        <time>2021-10-03T12:43:57Z</time>
      </trkpt>
      <trkpt lat="48.97919" lon="2.02834">
        <ele>100.4</ele>
        <time>2021-10-03T12:44:02Z</time>
      </trkpt>
      <trkpt lat="48.9792" lon="2.0282">
        <ele>100.4</ele>
        <time>2021-10-03T12:44:08Z</time>
      </trkpt>
      <trkpt lat="48.97923" lon="2.02808">
        <ele>100.6</ele>
        <time>2021-10-03T12:44:14Z</time>
      </trkpt>
      <trkpt lat="48.97924" lon="2.02796">
        <ele>100.7</ele>
        <time>2021-10-03T12:44:20Z</time>
      </trkpt>
      <trkpt lat="48.97927" lon="2.02788">
        <ele>101</ele>
        <time>2021-10-03T12:44:25Z</time>
      </trkpt>
      <trkpt lat="48.97929" lon="2.02781">
        <ele>101.3</ele>
        <time>2021-10-03T12:44:30Z</time>
      </trkpt>
      <trkpt lat="48.97931" lon="2.02768">
        <ele>101.6</ele>
        <time>2021-10-03T12:44:36Z</time>
      </trkpt>
      <trkpt lat="48.97933" lon="2.02758">
        <ele>101.8</ele>
        <time>2021-10-03T12:44:41Z</time>
      </trkpt>
      <trkpt lat="48.97936" lon="2.02746">
        <ele>102.3</ele>
        <time>2021-10-03T12:44:47Z</time>
      </trkpt>
      <trkpt lat="48.9794" lon="2.02735">
        <ele>102.8</ele>
        <time>2021-10-03T12:44:53Z</time>
      </trkpt>
      <trkpt lat="48.97942" lon="2.02726">
        <ele>103.2</ele>
        <time>2021-10-03T12:44:58Z</time>
      </trkpt>
      <trkpt lat="48.97944" lon="2.02716">
        <ele>103.5</ele>
        <time>2021-10-03T12:45:03Z</time>
      </trkpt>
      <trkpt lat="48.97947" lon="2.02706">
        <ele>104</ele>
        <time>2021-10-03T12:45:09Z</time>
      </trkpt>
      <trkpt lat="48.97948" lon="2.02695">
        <ele>104.2</ele>
        <time>2021-10-03T12:45:14Z</time>
      </trkpt>
      <trkpt lat="48.9795" lon="2.02685">
        <ele>104.4</ele>
        <time>2021-10-03T12:45:20Z</time>
      </trkpt>
      <trkpt lat="48.97952" lon="2.02675">
        <ele>104.8</ele>
        <time>2021-10-03T12:45:26Z</time>
      </trkpt>
      <trkpt lat="48.97953" lon="2.02665">
        <ele>104.9</ele>
        <time>2021-10-03T12:45:31Z</time>
      </trkpt>
      <trkpt lat="48.97954" lon="2.02653">
        <ele>104.8</ele>
        <time>2021-10-03T12:45:36Z</time>
      </trkpt>
      <trkpt lat="48.97955" lon="2.02644">
        <ele>104.8</ele>
        <time>2021-10-03T12:45:41Z</time>
      </trkpt>
      <trkpt lat="48.97956" lon="2.02635">
        <ele>104.8</ele>
        <time>2021-10-03T12:45:46Z</time>
      </trkpt>
      <trkpt lat="48.97959" lon="2.02628">
        <ele>105.1</ele>
        <time>2021-10-03T12:45:51Z</time>
      </trkpt>
      <trkpt lat="48.97962" lon="2.02618">
        <ele>105.5</ele>
        <time>2021-10-03T12:45:57Z</time>
      </trkpt>
      <trkpt lat="48.97967" lon="2.02611">
        <ele>106.2</ele>
        <time>2021-10-03T12:46:03Z</time>
      </trkpt>
      <trkpt lat="48.97973" lon="2.02605">
        <ele>107</ele>
        <time>2021-10-03T12:46:09Z</time>
      </trkpt>
      <trkpt lat="48.97978" lon="2.02602">
        <ele>107.8</ele>
        <time>2021-10-03T12:46:14Z</time>
      </trkpt>
      <trkpt lat="48.97982" lon="2.02593">
        <ele>108.3</ele>
        <time>2021-10-03T12:46:19Z</time>
      </trkpt>
      <trkpt lat="48.97989" lon="2.02584">
        <ele>109.1</ele>
        <time>2021-10-03T12:46:25Z</time>
      </trkpt>
      <trkpt lat="48.97994" lon="2.02571">
        <ele>109.4</ele>
        <time>2021-10-03T12:46:31Z</time>
      </trkpt>
      <trkpt lat="48.97999" lon="2.02563">
        <ele>109.9</ele>
        <time>2021-10-03T12:46:37Z</time>
      </trkpt>
      <trkpt lat="48.98003" lon="2.02554">
        <ele>110.4</ele>
        <time>2021-10-03T12:46:42Z</time>
      </trkpt>
      <trkpt lat="48.98008" lon="2.02545">
        <ele>111.1</ele>
        <time>2021-10-03T12:46:48Z</time>
      </trkpt>
      <trkpt lat="48.98013" lon="2.02536">
        <ele>111.9</ele>
        <time>2021-10-03T12:46:53Z</time>
      </trkpt>
      <trkpt lat="48.98017" lon="2.02524">
        <ele>112.2</ele>
        <time>2021-10-03T12:46:58Z</time>
      </trkpt>
      <trkpt lat="48.98019" lon="2.02513">
        <ele>112.1</ele>
        <time>2021-10-03T12:47:04Z</time>
      </trkpt>
      <trkpt lat="48.9802" lon="2.02503">
        <ele>112</ele>
        <time>2021-10-03T12:47:09Z</time>
      </trkpt>
      <trkpt lat="48.98022" lon="2.02493">
        <ele>112.4</ele>
        <time>2021-10-03T12:47:14Z</time>
      </trkpt>
      <trkpt lat="48.98023" lon="2.02478">
        <ele>112.6</ele>
        <time>2021-10-03T12:47:20Z</time>
      </trkpt>
      <trkpt lat="48.98023" lon="2.02466">
        <ele>112.7</ele>
        <time>2021-10-03T12:47:25Z</time>
      </trkpt>
      <trkpt lat="48.98024" lon="2.02454">
        <ele>112.9</ele>
        <time>2021-10-03T12:47:31Z</time>
      </trkpt>
      <trkpt lat="48.98026" lon="2.02443">
        <ele>113.3</ele>
        <time>2021-10-03T12:47:37Z</time>
      </trkpt>
      <trkpt lat="48.98027" lon="2.02431">
        <ele>113.5</ele>
        <time>2021-10-03T12:47:43Z</time>
      </trkpt>
      <trkpt lat="48.98027" lon="2.02421">
        <ele>113.5</ele>
        <time>2021-10-03T12:47:48Z</time>
      </trkpt>
      <trkpt lat="48.98031" lon="2.02414">
        <ele>114.3</ele>
        <time>2021-10-03T12:47:54Z</time>
      </trkpt>
      <trkpt lat="48.98037" lon="2.02409">
        <ele>115.6</ele>
        <time>2021-10-03T12:48:00Z</time>
      </trkpt>
      <trkpt lat="48.98042" lon="2.02408">
        <ele>116.6</ele>
        <time>2021-10-03T12:48:05Z</time>
      </trkpt>
      <trkpt lat="48.98047" lon="2.02403">
        <ele>117.6</ele>
        <time>2021-10-03T12:48:11Z</time>
      </trkpt>
      <trkpt lat="48.98051" lon="2.02399">
        <ele>118.4</ele>
        <time>2021-10-03T12:48:16Z</time>
      </trkpt>
      <trkpt lat="48.98056" lon="2.02395">
        <ele>119.6</ele>
        <time>2021-10-03T12:48:22Z</time>
      </trkpt>
      <trkpt lat="48.98061" lon="2.02388">
        <ele>120.5</ele>
        <time>2021-10-03T12:48:28Z</time>
      </trkpt>
      <trkpt lat="48.98065" lon="2.02384">
        <ele>121.4</ele>
        <time>2021-10-03T12:48:34Z</time>
      </trkpt>
      <trkpt lat="48.98069" lon="2.02377">
        <ele>122.1</ele>
        <time>2021-10-03T12:48:39Z</time>
      </trkpt>
      <trkpt lat="48.98072" lon="2.0237">
        <ele>122.7</ele>
        <time>2021-10-03T12:48:44Z</time>
      </trkpt>
      <trkpt lat="48.98076" lon="2.02357">
        <ele>123.6</ele>
        <time>2021-10-03T12:48:50Z</time>
      </trkpt>
      <trkpt lat="48.98077" lon="2.02341">
        <ele>123.7</ele>
        <time>2021-10-03T12:48:56Z</time>
      </trkpt>
      <trkpt lat="48.98078" lon="2.02331">
        <ele>124</ele>
        <time>2021-10-03T12:49:02Z</time>
      </trkpt>
      <trkpt lat="48.9808" lon="2.02321">
        <ele>124.5</ele>
        <time>2021-10-03T12:49:08Z</time>
      </trkpt>
      <trkpt lat="48.98079" lon="2.02309">
        <ele>124.4</ele>
        <time>2021-10-03T12:49:14Z</time>
      </trkpt>
      <trkpt lat="48.98076" lon="2.02297">
        <ele>124</ele>
        <time>2021-10-03T12:49:20Z</time>
      </trkpt>
      <trkpt lat="48.98073" lon="2.0229">
        <ele>123.5</ele>
        <time>2021-10-03T12:49:25Z</time>
      </trkpt>
      <trkpt lat="48.9807" lon="2.02282">
        <ele>123.1</ele>
        <time>2021-10-03T12:49:30Z</time>
      </trkpt>
      <trkpt lat="48.98066" lon="2.02272">
        <ele>122.6</ele>
        <time>2021-10-03T12:49:36Z</time>
      </trkpt>
      <trkpt lat="48.98061" lon="2.02263">
        <ele>121.8</ele>
        <time>2021-10-03T12:49:42Z</time>
      </trkpt>
      <trkpt lat="48.98057" lon="2.02254">
        <ele>121.2</ele>
        <time>2021-10-03T12:49:47Z</time>
      </trkpt>
      <trkpt lat="48.98054" lon="2.02246">
        <ele>120.6</ele>
        <time>2021-10-03T12:49:52Z</time>
      </trkpt>
      <trkpt lat="48.98049" lon="2.02232">
        <ele>119.7</ele>
        <time>2021-10-03T12:49:58Z</time>
      </trkpt>
      <trkpt lat="48.98048" lon="2.02219">
        <ele>119.4</ele>
        <time>2021-10-03T12:50:04Z</time>
      </trkpt>
      <trkpt lat="48.98047" lon="2.02205">
        <ele>119</ele>
        <time>2021-10-03T12:50:10Z</time>
      </trkpt>
      <trkpt lat="48.98045" lon="2.02195">
        <ele>118.8</ele>
        <time>2021-10-03T12:50:15Z</time>
      </trkpt>
      <trkpt lat="48.98044" lon="2.02186">
        <ele>118.4</ele>
        <time>2021-10-03T12:50:20Z</time>
      </trkpt>
      <trkpt lat="48.98045" lon="2.0218">
        <ele>118.5</ele>
        <time>2021-10-03T12:50:25Z</time>
      </trkpt>
      <trkpt lat="48.98044" lon="2.02173">
        <ele>118.4</ele>
        <time>2021-10-03T12:50:30Z</time>
      </trkpt>
      <trkpt lat="48.98044" lon="2.02163">
        <ele>118.2</ele>
        <time>2021-10-03T12:50:36Z</time>
      </trkpt>
      <trkpt lat="48.98048" lon="2.02154">
        <ele>118.2</ele>
        <time>2021-10-03T12:50:42Z</time>
      </trkpt>
      <trkpt lat="48.98052" lon="2.02142">
        <ele>118.2</ele>
        <time>2021-10-03T12:50:48Z</time>
      </trkpt>
      <trkpt lat="48.98054" lon="2.02128">
        <ele>117.9</ele>
        <time>2021-10-03T12:50:54Z</time>
      </trkpt>
      <trkpt lat="48.98058" lon="2.02118">
        <ele>118.1</ele>
        <time>2021-10-03T12:50:59Z</time>
      </trkpt>
      <trkpt lat="48.98061" lon="2.02104">
        <ele>118</ele>
        <time>2021-10-03T12:51:05Z</time>
      </trkpt>
      <trkpt lat="48.98063" lon="2.02093">
        <ele>117.8</ele>
        <time>2021-10-03T12:51:11Z</time>
      </trkpt>
      <trkpt lat="48.98066" lon="2.02086">
        <ele>118</ele>
        <time>2021-10-03T12:51:16Z</time>
      </trkpt>
      <trkpt lat="48.98069" lon="2.02076">
        <ele>117.9</ele>
        <time>2021-10-03T12:51:21Z</time>
      </trkpt>
      <trkpt lat="48.98072" lon="2.02066">
        <ele>117.7</ele>
        <time>2021-10-03T12:51:27Z</time>
      </trkpt>
      <trkpt lat="48.98073" lon="2.02059">
        <ele>117.5</ele>
        <time>2021-10-03T12:51:32Z</time>
      </trkpt>
      <trkpt lat="48.98074" lon="2.02053">
        <ele>117.2</ele>
        <time>2021-10-03T12:51:38Z</time>
      </trkpt>
      <trkpt lat="48.98076" lon="2.02048">
        <ele>117.2</ele>
        <time>2021-10-03T12:51:43Z</time>
      </trkpt>
      <trkpt lat="48.9808" lon="2.0204">
        <ele>117.3</ele>
        <time>2021-10-03T12:51:49Z</time>
      </trkpt>
      <trkpt lat="48.98084" lon="2.02033">
        <ele>117.4</ele>
        <time>2021-10-03T12:51:54Z</time>
      </trkpt>
      <trkpt lat="48.98088" lon="2.02021">
        <ele>117</ele>
        <time>2021-10-03T12:52:00Z</time>
      </trkpt>
      <trkpt lat="48.98092" lon="2.02011">
        <ele>116.7</ele>
        <time>2021-10-03T12:52:06Z</time>
      </trkpt>
      <trkpt lat="48.98096" lon="2.02002">
        <ele>116.4</ele>
        <time>2021-10-03T12:52:12Z</time>
      </trkpt>
      <trkpt lat="48.98101" lon="2.01995">
        <ele>116.3</ele>
        <time>2021-10-03T12:52:17Z</time>
      </trkpt>
      <trkpt lat="48.98104" lon="2.01983">
        <ele>115.8</ele>
        <time>2021-10-03T12:52:23Z</time>
      </trkpt>
      <trkpt lat="48.98109" lon="2.0197">
        <ele>115.2</ele>
        <time>2021-10-03T12:52:29Z</time>
      </trkpt>
      <trkpt lat="48.98113" lon="2.01959">
        <ele>114.7</ele>
        <time>2021-10-03T12:52:34Z</time>
      </trkpt>
      <trkpt lat="48.98117" lon="2.01948">
        <ele>114.1</ele>
        <time>2021-10-03T12:52:40Z</time>
      </trkpt>
      <trkpt lat="48.98121" lon="2.01936">
        <ele>113.4</ele>
        <time>2021-10-03T12:52:46Z</time>
      </trkpt>
      <trkpt lat="48.98125" lon="2.01926">
        <ele>112.8</ele>
        <time>2021-10-03T12:52:52Z</time>
      </trkpt>
      <trkpt lat="48.98129" lon="2.01919">
        <ele>112.4</ele>
        <time>2021-10-03T12:52:57Z</time>
      </trkpt>
      <trkpt lat="48.98134" lon="2.01908">
        <ele>111.7</ele>
        <time>2021-10-03T12:53:03Z</time>
      </trkpt>
      <trkpt lat="48.98138" lon="2.019">
        <ele>111.2</ele>
        <time>2021-10-03T12:53:09Z</time>
      </trkpt>
      <trkpt lat="48.98141" lon="2.01888">
        <ele>110.4</ele>
        <time>2021-10-03T12:53:15Z</time>
      </trkpt>
      <trkpt lat="48.98141" lon="2.01878">
        <ele>109.5</ele>
        <time>2021-10-03T12:53:20Z</time>
      </trkpt>
      <trkpt lat="48.98141" lon="2.01868">
        <ele>108.7</ele>
        <time>2021-10-03T12:53:25Z</time>
      </trkpt>
      <trkpt lat="48.98139" lon="2.01855">
        <ele>107.5</ele>
        <time>2021-10-03T12:53:31Z</time>
      </trkpt>
      <trkpt lat="48.9814" lon="2.01847">
        <ele>106.9</ele>
        <time>2021-10-03T12:53:36Z</time>
      </trkpt>
      <trkpt lat="48.98142" lon="2.01837">
        <ele>106.2</ele>
        <time>2021-10-03T12:53:42Z</time>
      </trkpt>
      <trkpt lat="48.98146" lon="2.01827">
        <ele>105.8</ele>
        <time>2021-10-03T12:53:48Z</time>
      </trkpt>
      <trkpt lat="48.98149" lon="2.01819">
        <ele>105.6</ele>
        <time>2021-10-03T12:53:53Z</time>
      </trkpt>
      <trkpt lat="48.98154" lon="2.0181">
        <ele>105.5</ele>
        <time>2021-10-03T12:53:59Z</time>
      </trkpt>
      <trkpt lat="48.9816" lon="2.01805">
        <ele>105.7</ele>
        <time>2021-10-03T12:54:04Z</time>
      </trkpt>
      <trkpt lat="48.98167" lon="2.018">
        <ele>106</ele>
        <time>2021-10-03T12:54:10Z</time>
      </trkpt>
      <trkpt lat="48.98174" lon="2.01796">
        <ele>106.9</ele>
        <time>2021-10-03T12:54:16Z</time>
      </trkpt>
      <trkpt lat="48.9818" lon="2.0179">
        <ele>107.6</ele>
        <time>2021-10-03T12:54:22Z</time>
      </trkpt>
      <trkpt lat="48.98186" lon="2.01784">
        <ele>108.1</ele>
        <time>2021-10-03T12:54:28Z</time>
      </trkpt>
      <trkpt lat="48.98192" lon="2.01778">
        <ele>108.4</ele>
        <time>2021-10-03T12:54:33Z</time>
      </trkpt>
      <trkpt lat="48.98197" lon="2.0177">
        <ele>108.7</ele>
        <time>2021-10-03T12:54:39Z</time>
      </trkpt>
      <trkpt lat="48.98202" lon="2.01764">
        <ele>109.1</ele>
        <time>2021-10-03T12:54:44Z</time>
      </trkpt>
      <trkpt lat="48.98207" lon="2.01754">
        <ele>109.1</ele>
        <time>2021-10-03T12:54:50Z</time>
      </trkpt>
      <trkpt lat="48.98213" lon="2.0175">
        <ele>109.7</ele>
        <time>2021-10-03T12:54:56Z</time>
      </trkpt>
      <trkpt lat="48.98218" lon="2.01752">
        <ele>110.6</ele>
        <time>2021-10-03T12:55:01Z</time>
      </trkpt>
      <trkpt lat="48.9822" lon="2.01759">
        <ele>111.4</ele>
        <time>2021-10-03T12:55:07Z</time>
      </trkpt>
      <trkpt lat="48.98222" lon="2.01762">
        <ele>111.9</ele>
        <time>2021-10-03T12:55:12Z</time>
      </trkpt>
      <trkpt lat="48.98225" lon="2.01768">
        <ele>112.7</ele>
        <time>2021-10-03T12:55:18Z</time>
      </trkpt>
      <trkpt lat="48.98227" lon="2.01774">
        <ele>113.6</ele>
        <time>2021-10-03T12:55:23Z</time>
      </trkpt>
      <trkpt lat="48.98232" lon="2.0178">
        <ele>114.8</ele>
        <time>2021-10-03T12:55:28Z</time>
      </trkpt>
      <trkpt lat="48.98235" lon="2.01788">
        <ele>115.8</ele>
        <time>2021-10-03T12:55:34Z</time>
      </trkpt>
      <trkpt lat="48.98238" lon="2.01789">
        <ele>116.5</ele>
        <time>2021-10-03T12:55:40Z</time>
      </trkpt>
      <trkpt lat="48.98243" lon="2.01796">
        <ele>117.8</ele>
        <time>2021-10-03T12:55:45Z</time>
      </trkpt>
      <trkpt lat="48.98249" lon="2.01801">
        <ele>119.1</ele>
        <time>2021-10-03T12:55:50Z</time>
      </trkpt>
      <trkpt lat="48.98249" lon="2.01807">
        <ele>119.7</ele>
        <time>2021-10-03T12:55:55Z</time>
      </trkpt>
      <trkpt lat="48.98256" lon="2.01811">
        <ele>121.4</ele>
        <time>2021-10-03T12:56:01Z</time>
      </trkpt>
      <trkpt lat="48.98258" lon="2.01817">
        <ele>122.4</ele>
        <time>2021-10-03T12:56:07Z</time>
      </trkpt>
      <trkpt lat="48.98263" lon="2.01819">
        <ele>123.7</ele>
        <time>2021-10-03T12:56:13Z</time>
      </trkpt>
      <trkpt lat="48.98267" lon="2.01824">
        <ele>125.1</ele>
        <time>2021-10-03T12:56:18Z</time>
      </trkpt>
      <trkpt lat="48.9827" lon="2.01829">
        <ele>126.3</ele>
        <time>2021-10-03T12:56:23Z</time>
      </trkpt>
      <trkpt lat="48.98275" lon="2.01835">
        <ele>127.8</ele>
        <time>2021-10-03T12:56:29Z</time>
      </trkpt>
      <trkpt lat="48.98277" lon="2.01841">
        <ele>128.8</ele>
        <time>2021-10-03T12:56:35Z</time>
      </trkpt>
      <trkpt lat="48.98279" lon="2.01842">
        <ele>129.3</ele>
        <time>2021-10-03T12:56:40Z</time>
      </trkpt>
      <trkpt lat="48.9828" lon="2.01842">
        <ele>129.7</ele>
        <time>2021-10-03T12:56:46Z</time>
      </trkpt>
      <trkpt lat="48.98284" lon="2.01844">
        <ele>130.6</ele>
        <time>2021-10-03T12:56:52Z</time>
      </trkpt>
      <trkpt lat="48.98286" lon="2.01842">
        <ele>131.1</ele>
        <time>2021-10-03T12:56:57Z</time>
      </trkpt>
      <trkpt lat="48.98291" lon="2.01843">
        <ele>132.2</ele>
        <time>2021-10-03T12:57:02Z</time>
      </trkpt>
      <trkpt lat="48.98295" lon="2.01845">
        <ele>133.3</ele>
        <time>2021-10-03T12:57:08Z</time>
      </trkpt>
      <trkpt lat="48.98299" lon="2.0185">
        <ele>134.7</ele>
        <time>2021-10-03T12:57:14Z</time>
      </trkpt>
      <trkpt lat="48.98304" lon="2.01853">
        <ele>136</ele>
        <time>2021-10-03T12:57:20Z</time>
      </trkpt>
      <trkpt lat="48.98308" lon="2.01853">
        <ele>137.1</ele>
        <time>2021-10-03T12:57:25Z</time>
      </trkpt>
      <trkpt lat="48.98312" lon="2.01855">
        <ele>138.1</ele>
        <time>2021-10-03T12:57:30Z</time>
      </trkpt>
      <trkpt lat="48.98316" lon="2.01855">
        <ele>139</ele>
        <time>2021-10-03T12:57:35Z</time>
      </trkpt>
      <trkpt lat="48.9832" lon="2.01854">
        <ele>140</ele>
        <time>2021-10-03T12:57:41Z</time>
      </trkpt>
      <trkpt lat="48.98327" lon="2.01854">
        <ele>141.5</ele>
        <time>2021-10-03T12:57:47Z</time>
      </trkpt>
      <trkpt lat="48.98329" lon="2.01852">
        <ele>141.8</ele>
        <time>2021-10-03T12:57:52Z</time>
      </trkpt>
      <trkpt lat="48.98332" lon="2.01851">
        <ele>142.5</ele>
        <time>2021-10-03T12:57:58Z</time>
      </trkpt>
      <trkpt lat="48.98339" lon="2.0185">
        <ele>143.7</ele>
        <time>2021-10-03T12:58:04Z</time>
      </trkpt>
      <trkpt lat="48.98342" lon="2.0185">
        <ele>144.3</ele>
        <time>2021-10-03T12:58:09Z</time>
      </trkpt>
      <trkpt lat="48.98346" lon="2.01851">
        <ele>145.1</ele>
        <time>2021-10-03T12:58:15Z</time>
      </trkpt>
      <trkpt lat="48.9835" lon="2.01851">
        <ele>145.9</ele>
        <time>2021-10-03T12:58:20Z</time>
      </trkpt>
      <trkpt lat="48.98355" lon="2.01851">
        <ele>146.9</ele>
        <time>2021-10-03T12:58:26Z</time>
      </trkpt>
      <trkpt lat="48.98361" lon="2.01853">
        <ele>148</ele>
        <time>2021-10-03T12:58:32Z</time>
      </trkpt>
      <trkpt lat="48.98365" lon="2.01855">
        <ele>149.1</ele>
        <time>2021-10-03T12:58:37Z</time>
      </trkpt>
      <trkpt lat="48.98371" lon="2.01854">
        <ele>150</ele>
        <time>2021-10-03T12:58:42Z</time>
      </trkpt>
      <trkpt lat="48.98373" lon="2.0185">
        <ele>150.3</ele>
        <time>2021-10-03T12:58:48Z</time>
      </trkpt>
      <trkpt lat="48.98378" lon="2.01847">
        <ele>150.9</ele>
        <time>2021-10-03T12:58:54Z</time>
      </trkpt>
      <trkpt lat="48.9838" lon="2.01843">
        <ele>151.1</ele>
        <time>2021-10-03T12:58:59Z</time>
      </trkpt>
      <trkpt lat="48.98386" lon="2.01844">
        <ele>152.3</ele>
        <time>2021-10-03T12:59:05Z</time>
      </trkpt>
      <trkpt lat="48.98392" lon="2.01846">
        <ele>153.7</ele>
        <time>2021-10-03T12:59:11Z</time>
      </trkpt>
      <trkpt lat="48.98396" lon="2.01847">
        <ele>154.5</ele>
        <time>2021-10-03T12:59:16Z</time>
      </trkpt>
      <trkpt lat="48.98399" lon="2.01844">
        <ele>154.8</ele>
        <time>2021-10-03T12:59:21Z</time>
      </trkpt>
      <trkpt lat="48.984" lon="2.01843">
        <ele>155.2</ele>
        <time>2021-10-03T12:59:26Z</time>
      </trkpt>
      <trkpt lat="48.98406" lon="2.01842">
        <ele>156.3</ele>
        <time>2021-10-03T12:59:32Z</time>
      </trkpt>
      <trkpt lat="48.98412" lon="2.01841">
        <ele>157.3</ele>
        <time>2021-10-03T12:59:38Z</time>
      </trkpt>
      <trkpt lat="48.98414" lon="2.0184">
        <ele>157.7</ele>
        <time>2021-10-03T12:59:44Z</time>
      </trkpt>
      <trkpt lat="48.98418" lon="2.01842">
        <ele>158.5</ele>
        <time>2021-10-03T12:59:50Z</time>
      </trkpt>
      <trkpt lat="48.9842" lon="2.01843">
        <ele>158.6</ele>
        <time>2021-10-03T12:59:55Z</time>
      </trkpt>
      <trkpt lat="48.98424" lon="2.01846">
        <ele>159.1</ele>
        <time>2021-10-03T13:00:01Z</time>
      </trkpt>
      <trkpt lat="48.98429" lon="2.01847">
        <ele>159.6</ele>
        <time>2021-10-03T13:00:07Z</time>
      </trkpt>
      <trkpt lat="48.98434" lon="2.0185">
        <ele>160.1</ele>
        <time>2021-10-03T13:00:13Z</time>
      </trkpt>
      <trkpt lat="48.98438" lon="2.01852">
        <ele>160.5</ele>
        <time>2021-10-03T13:00:19Z</time>
      </trkpt>
      <trkpt lat="48.9844" lon="2.01854">
        <ele>160.7</ele>
        <time>2021-10-03T13:00:24Z</time>
      </trkpt>
      <trkpt lat="48.98442" lon="2.01856">
        <ele>160.9</ele>
        <time>2021-10-03T13:00:29Z</time>
      </trkpt>
      <trkpt lat="48.98442" lon="2.01856">
        <ele>160.9</ele>
        <time>2021-10-03T13:00:34Z</time>
      </trkpt>
      <trkpt lat="48.98442" lon="2.01856">
        <ele>160.9</ele>
        <time>2021-10-03T13:00:39Z</time>
      </trkpt>
      <trkpt lat="48.98442" lon="2.01856">
        <ele>161</ele>
        <time>2021-10-03T13:00:44Z</time>
      </trkpt>
      <trkpt lat="48.98442" lon="2.01856">
        <ele>161</ele>
        <time>2021-10-03T13:00:49Z</time>
      </trkpt>
      <trkpt lat="48.98442" lon="2.01856">
        <ele>161</ele>
        <time>2021-10-03T13:00:55Z</time>
      </trkpt>
      <trkpt lat="48.98442" lon="2.01856">
        <ele>161</ele>
        <time>2021-10-03T13:01:01Z</time>
      </trkpt>
      <trkpt lat="48.98443" lon="2.01856">
        <ele>161</ele>
        <time>2021-10-03T13:01:06Z</time>
      </trkpt>
      <trkpt lat="48.98443" lon="2.01856">
        <ele>161</ele>
        <time>2021-10-03T13:01:11Z</time>
      </trkpt>
      <trkpt lat="48.98443" lon="2.01856">
        <ele>161</ele>
        <time>2021-10-03T13:01:17Z</time>
      </trkpt>
      <trkpt lat="48.98443" lon="2.01857">
        <ele>161</ele>
        <time>2021-10-03T13:01:22Z</time>
      </trkpt>
      <trkpt lat="48.98443" lon="2.01857">
        <ele>161</ele>
        <time>2021-10-03T13:01:28Z</time>
      </trkpt>
      <trkpt lat="48.98443" lon="2.01857">
        <ele>161</ele>
        <time>2021-10-03T13:01:34Z</time>
      </trkpt>
      <trkpt lat="48.98443" lon="2.01857">
        <ele>161</ele>
        <time>2021-10-03T13:01:40Z</time>
      </trkpt>
      <trkpt lat="48.98443" lon="2.01857">
        <ele>161</ele>
        <time>2021-10-03T13:01:46Z</time>
      </trkpt>
      <trkpt lat="48.98443" lon="2.01857">
        <ele>161</ele>
        <time>2021-10-03T13:01:51Z</time>
      </trkpt>
      <trkpt lat="48.98443" lon="2.01857">
        <ele>161</ele>
        <time>2021-10-03T13:01:56Z</time>
      </trkpt>
      <trkpt lat="48.98443" lon="2.01857">
        <ele>161</ele>
        <time>2021-10-03T13:02:01Z</time>
      </trkpt>
      <trkpt lat="48.98443" lon="2.01857">
        <ele>161</ele>
        <time>2021-10-03T13:02:07Z</time>
      </trkpt>
      <trkpt lat="48.98443" lon="2.01857">
        <ele>161</ele>
        <time>2021-10-03T13:02:12Z</time>
      </trkpt>
      <trkpt lat="48.98443" lon="2.01857">
        <ele>161</ele>
        <time>2021-10-03T13:02:17Z</time>
      </trkpt>
      <trkpt lat="48.98443" lon="2.01857">
        <ele>161</ele>
        <time>2021-10-03T13:02:22Z</time>
      </trkpt>
      <trkpt lat="48.98443" lon="2.01857">
        <ele>161</ele>
        <time>2021-10-03T13:02:28Z</time>
      </trkpt>
      <trkpt lat="48.98443" lon="2.01857">
        <ele>161</ele>
        <time>2021-10-03T13:02:34Z</time>
      </trkpt>
      <trkpt lat="48.98443" lon="2.01857">
        <ele>161</ele>
        <time>2021-10-03T13:02:40Z</time>
      </trkpt>
      <trkpt lat="48.98443" lon="2.01857">
        <ele>161</ele>
        <time>2021-10-03T13:02:46Z</time>
      </trkpt>
      <trkpt lat="48.98443" lon="2.01857">
        <ele>161</ele>
        <time>2021-10-03T13:02:51Z</time>
      </trkpt>
      <trkpt lat="48.98443" lon="2.01857">
        <ele>161</ele>
        <time>2021-10-03T13:02:56Z</time>
      </trkpt>
      <trkpt lat="48.98443" lon="2.01857">
        <ele>161</ele>
        <time>2021-10-03T13:03:02Z</time>
      </trkpt>
      <trkpt lat="48.98443" lon="2.01857">
        <ele>161</ele>
        <time>2021-10-03T13:03:08Z</time>
      </trkpt>
      <trkpt lat="48.98443" lon="2.01857">
        <ele>161</ele>
        <time>2021-10-03T13:03:13Z</time>
      </trkpt>
      <trkpt lat="48.98443" lon="2.01857">
        <ele>161</ele>
        <time>2021-10-03T13:03:19Z</time>
      </trkpt>
      <trkpt lat="48.98443" lon="2.01857">
        <ele>161</ele>
        <time>2021-10-03T13:03:24Z</time>
      </trkpt>
      <trkpt lat="48.98443" lon="2.01857">
        <ele>161</ele>
        <time>2021-10-03T13:03:30Z</time>
      </trkpt>
      <trkpt lat="48.98443" lon="2.01857">
        <ele>161</ele>
        <time>2021-10-03T13:03:35Z</time>
      </trkpt>
      <trkpt lat="48.98443" lon="2.01857">
        <ele>161</ele>
        <time>2021-10-03T13:03:41Z</time>
      </trkpt>
      <trkpt lat="48.98443" lon="2.01857">
        <ele>161</ele>
        <time>2021-10-03T13:03:47Z</time>
      </trkpt>
      <trkpt lat="48.98443" lon="2.01857">
        <ele>161</ele>
        <time>2021-10-03T13:03:53Z</time>
      </trkpt>
      <trkpt lat="48.98443" lon="2.01857">
        <ele>161.1</ele>
        <time>2021-10-03T13:03:59Z</time>
      </trkpt>
      <trkpt lat="48.98443" lon="2.01857">
        <ele>161.1</ele>
        <time>2021-10-03T13:04:04Z</time>
      </trkpt>
      <trkpt lat="48.98443" lon="2.01857">
        <ele>161.1</ele>
        <time>2021-10-03T13:04:09Z</time>
      </trkpt>
      <trkpt lat="48.98443" lon="2.01858">
        <ele>161.1</ele>
        <time>2021-10-03T13:04:15Z</time>
      </trkpt>
      <trkpt lat="48.98443" lon="2.01858">
        <ele>161.1</ele>
        <time>2021-10-03T13:04:21Z</time>
      </trkpt>
      <trkpt lat="48.98443" lon="2.01858">
        <ele>161.1</ele>
        <time>2021-10-03T13:04:27Z</time>
      </trkpt>
      <trkpt lat="48.98443" lon="2.01858">
        <ele>161.1</ele>
        <time>2021-10-03T13:04:33Z</time>
      </trkpt>
      <trkpt lat="48.98443" lon="2.01858">
        <ele>161.1</ele>
        <time>2021-10-03T13:04:38Z</time>
      </trkpt>
      <trkpt lat="48.98443" lon="2.01858">
        <ele>161.1</ele>
        <time>2021-10-03T13:04:43Z</time>
      </trkpt>
      <trkpt lat="48.98443" lon="2.01858">
        <ele>161.1</ele>
        <time>2021-10-03T13:04:49Z</time>
      </trkpt>
      <trkpt lat="48.98443" lon="2.01858">
        <ele>161.1</ele>
        <time>2021-10-03T13:04:54Z</time>
      </trkpt>
      <trkpt lat="48.98443" lon="2.01858">
        <ele>161.1</ele>
        <time>2021-10-03T13:04:59Z</time>
      </trkpt>
      <trkpt lat="48.98443" lon="2.01858">
        <ele>161.1</ele>
        <time>2021-10-03T13:05:05Z</time>
      </trkpt>
      <trkpt lat="48.98443" lon="2.01858">
        <ele>161.1</ele>
        <time>2021-10-03T13:05:10Z</time>
      </trkpt>
      <trkpt lat="48.98444" lon="2.01858">
        <ele>161.1</ele>
        <time>2021-10-03T13:05:15Z</time>
      </trkpt>
      <trkpt lat="48.98444" lon="2.01858">
        <ele>161.1</ele>
        <time>2021-10-03T13:05:21Z</time>
      </trkpt>
      <trkpt lat="48.98444" lon="2.01858">
        <ele>161.1</ele>
        <time>2021-10-03T13:05:27Z</time>
      </trkpt>
      <trkpt lat="48.98444" lon="2.01858">
        <ele>161.1</ele>
        <time>2021-10-03T13:05:32Z</time>
      </trkpt>
      <trkpt lat="48.98444" lon="2.01858">
        <ele>161.1</ele>
        <time>2021-10-03T13:05:38Z</time>
      </trkpt>
      <trkpt lat="48.98445" lon="2.01858">
        <ele>161.2</ele>
        <time>2021-10-03T13:05:43Z</time>
      </trkpt>
      <trkpt lat="48.98448" lon="2.0186">
        <ele>161.5</ele>
        <time>2021-10-03T13:05:48Z</time>
      </trkpt>
      <trkpt lat="48.98452" lon="2.01861">
        <ele>161.8</ele>
        <time>2021-10-03T13:05:53Z</time>
      </trkpt>
      <trkpt lat="48.98455" lon="2.01866">
        <ele>162.1</ele>
        <time>2021-10-03T13:05:59Z</time>
      </trkpt>
      <trkpt lat="48.98457" lon="2.0187">
        <ele>162.3</ele>
        <time>2021-10-03T13:06:04Z</time>
      </trkpt>
      <trkpt lat="48.98458" lon="2.01875">
        <ele>162.5</ele>
        <time>2021-10-03T13:06:10Z</time>
      </trkpt>
      <trkpt lat="48.98462" lon="2.01876">
        <ele>162.7</ele>
        <time>2021-10-03T13:06:16Z</time>
      </trkpt>
      <trkpt lat="48.98463" lon="2.01877">
        <ele>162.9</ele>
        <time>2021-10-03T13:06:21Z</time>
      </trkpt>
      <trkpt lat="48.98463" lon="2.0188">
        <ele>162.9</ele>
        <time>2021-10-03T13:06:26Z</time>
      </trkpt>
      <trkpt lat="48.98467" lon="2.0188">
        <ele>163.2</ele>
        <time>2021-10-03T13:06:32Z</time>
      </trkpt>
      <trkpt lat="48.9847" lon="2.01881">
        <ele>163.4</ele>
        <time>2021-10-03T13:06:37Z</time>
      </trkpt>
      <trkpt lat="48.98474" lon="2.01889">
        <ele>163.7</ele>
        <time>2021-10-03T13:06:43Z</time>
      </trkpt>
      <trkpt lat="48.98477" lon="2.0189">
        <ele>163.8</ele>
        <time>2021-10-03T13:06:49Z</time>
      </trkpt>
      <trkpt lat="48.98478" lon="2.0189">
        <ele>163.9</ele>
        <time>2021-10-03T13:06:54Z</time>
      </trkpt>
      <trkpt lat="48.98482" lon="2.01891">
        <ele>164.2</ele>
        <time>2021-10-03T13:07:00Z</time>
      </trkpt>
      <trkpt lat="48.98483" lon="2.0189">
        <ele>164.2</ele>
        <time>2021-10-03T13:07:05Z</time>
      </trkpt>
      <trkpt lat="48.98483" lon="2.01891">
        <ele>164.2</ele>
        <time>2021-10-03T13:07:11Z</time>
      </trkpt>
      <trkpt lat="48.98485" lon="2.01896">
        <ele>164.4</ele>
        <time>2021-10-03T13:07:16Z</time>
      </trkpt>
      <trkpt lat="48.98489" lon="2.01895">
        <ele>164.6</ele>
        <time>2021-10-03T13:07:22Z</time>
      </trkpt>
      <trkpt lat="48.98493" lon="2.01892">
        <ele>164.9</ele>
        <time>2021-10-03T13:07:28Z</time>
      </trkpt>
      <trkpt lat="48.98498" lon="2.01891">
        <ele>165.2</ele>
        <time>2021-10-03T13:07:33Z</time>
      </trkpt>
      <trkpt lat="48.98502" lon="2.01891">
        <ele>165.4</ele>
        <time>2021-10-03T13:07:39Z</time>
      </trkpt>
      <trkpt lat="48.98505" lon="2.01891">
        <ele>165.7</ele>
        <time>2021-10-03T13:07:44Z</time>
      </trkpt>
      <trkpt lat="48.98508" lon="2.0189">
        <ele>166</ele>
        <time>2021-10-03T13:07:50Z</time>
      </trkpt>
      <trkpt lat="48.98513" lon="2.01887">
        <ele>166.4</ele>
        <time>2021-10-03T13:07:56Z</time>
      </trkpt>
      <trkpt lat="48.98516" lon="2.0188">
        <ele>166.8</ele>
        <time>2021-10-03T13:08:01Z</time>
      </trkpt>
      <trkpt lat="48.98522" lon="2.01872">
        <ele>167.4</ele>
        <time>2021-10-03T13:08:06Z</time>
      </trkpt>
      <trkpt lat="48.98527" lon="2.01864">
        <ele>167.9</ele>
        <time>2021-10-03T13:08:11Z</time>
      </trkpt>
      <trkpt lat="48.98532" lon="2.01854">
        <ele>168.4</ele>
        <time>2021-10-03T13:08:16Z</time>
      </trkpt>
      <trkpt lat="48.98537" lon="2.01847">
        <ele>168.9</ele>
        <time>2021-10-03T13:08:22Z</time>
      </trkpt>
      <trkpt lat="48.98541" lon="2.01842">
        <ele>169.4</ele>
        <time>2021-10-03T13:08:27Z</time>
      </trkpt>
      <trkpt lat="48.98548" lon="2.01838">
        <ele>170</ele>
        <time>2021-10-03T13:08:33Z</time>
      </trkpt>
      <trkpt lat="48.98554" lon="2.01835">
        <ele>170.5</ele>
        <time>2021-10-03T13:08:38Z</time>
      </trkpt>
      <trkpt lat="48.98561" lon="2.01833">
        <ele>171.1</ele>
        <time>2021-10-03T13:08:43Z</time>
      </trkpt>
      <trkpt lat="48.9857" lon="2.01828">
        <ele>171.8</ele>
        <time>2021-10-03T13:08:49Z</time>
      </trkpt>
      <trkpt lat="48.98576" lon="2.01824">
        <ele>172.3</ele>
        <time>2021-10-03T13:08:55Z</time>
      </trkpt>
      <trkpt lat="48.98582" lon="2.01822">
        <ele>172.8</ele>
        <time>2021-10-03T13:09:01Z</time>
      </trkpt>
      <trkpt lat="48.98587" lon="2.01821">
        <ele>172.9</ele>
        <time>2021-10-03T13:09:07Z</time>
      </trkpt>
      <trkpt lat="48.98591" lon="2.01819">
        <ele>172.8</ele>
        <time>2021-10-03T13:09:12Z</time>
      </trkpt>
      <trkpt lat="48.98598" lon="2.01819">
        <ele>172.9</ele>
        <time>2021-10-03T13:09:18Z</time>
      </trkpt>
      <trkpt lat="48.98605" lon="2.01819">
        <ele>172.9</ele>
        <time>2021-10-03T13:09:23Z</time>
      </trkpt>
      <trkpt lat="48.98614" lon="2.01818">
        <ele>172.9</ele>
        <time>2021-10-03T13:09:29Z</time>
      </trkpt>
      <trkpt lat="48.98621" lon="2.01814">
        <ele>172.9</ele>
        <time>2021-10-03T13:09:34Z</time>
      </trkpt>
      <trkpt lat="48.9863" lon="2.01807">
        <ele>172.9</ele>
        <time>2021-10-03T13:09:40Z</time>
      </trkpt>
      <trkpt lat="48.98636" lon="2.01807">
        <ele>172.9</ele>
        <time>2021-10-03T13:09:45Z</time>
      </trkpt>
      <trkpt lat="48.98642" lon="2.01805">
        <ele>172.9</ele>
        <time>2021-10-03T13:09:50Z</time>
      </trkpt>
      <trkpt lat="48.9865" lon="2.01801">
        <ele>172.9</ele>
        <time>2021-10-03T13:09:56Z</time>
      </trkpt>
      <trkpt lat="48.98655" lon="2.01795">
        <ele>172.9</ele>
        <time>2021-10-03T13:10:01Z</time>
      </trkpt>
      <trkpt lat="48.98662" lon="2.01789">
        <ele>173</ele>
        <time>2021-10-03T13:10:07Z</time>
      </trkpt>
      <trkpt lat="48.98666" lon="2.01781">
        <ele>173</ele>
        <time>2021-10-03T13:10:13Z</time>
      </trkpt>
      <trkpt lat="48.98674" lon="2.01773">
        <ele>173</ele>
        <time>2021-10-03T13:10:19Z</time>
      </trkpt>
      <trkpt lat="48.98678" lon="2.01767">
        <ele>173.1</ele>
        <time>2021-10-03T13:10:24Z</time>
      </trkpt>
      <trkpt lat="48.98684" lon="2.01759">
        <ele>173</ele>
        <time>2021-10-03T13:10:30Z</time>
      </trkpt>
      <trkpt lat="48.98687" lon="2.01751">
        <ele>173</ele>
        <time>2021-10-03T13:10:35Z</time>
      </trkpt>
      <trkpt lat="48.98693" lon="2.01741">
        <ele>172.5</ele>
        <time>2021-10-03T13:10:41Z</time>
      </trkpt>
      <trkpt lat="48.98698" lon="2.0173">
        <ele>171.8</ele>
        <time>2021-10-03T13:10:46Z</time>
      </trkpt>
      <trkpt lat="48.98705" lon="2.01722">
        <ele>171.3</ele>
        <time>2021-10-03T13:10:52Z</time>
      </trkpt>
      <trkpt lat="48.98708" lon="2.01716">
        <ele>170.9</ele>
        <time>2021-10-03T13:10:57Z</time>
      </trkpt>
      <trkpt lat="48.98712" lon="2.01711">
        <ele>170.7</ele>
        <time>2021-10-03T13:11:02Z</time>
      </trkpt>
      <trkpt lat="48.98714" lon="2.01712">
        <ele>170.7</ele>
        <time>2021-10-03T13:11:07Z</time>
      </trkpt>
      <trkpt lat="48.98722" lon="2.01716">
        <ele>170.9</ele>
        <time>2021-10-03T13:11:13Z</time>
      </trkpt>
      <trkpt lat="48.98729" lon="2.01719">
        <ele>171.1</ele>
        <time>2021-10-03T13:11:19Z</time>
      </trkpt>
      <trkpt lat="48.98733" lon="2.01722">
        <ele>171.3</ele>
        <time>2021-10-03T13:11:25Z</time>
      </trkpt>
      <trkpt lat="48.98739" lon="2.01724">
        <ele>171.4</ele>
        <time>2021-10-03T13:11:31Z</time>
      </trkpt>
      <trkpt lat="48.98743" lon="2.01726">
        <ele>171.6</ele>
        <time>2021-10-03T13:11:36Z</time>
      </trkpt>
      <trkpt lat="48.98752" lon="2.01725">
        <ele>171.5</ele>
        <time>2021-10-03T13:11:42Z</time>
      </trkpt>
      <trkpt lat="48.98756" lon="2.01725">
        <ele>171.6</ele>
        <time>2021-10-03T13:11:47Z</time>
      </trkpt>
      <trkpt lat="48.98764" lon="2.01723">
        <ele>171.6</ele>
        <time>2021-10-03T13:11:53Z</time>
      </trkpt>
      <trkpt lat="48.9877" lon="2.0172">
        <ele>171.4</ele>
        <time>2021-10-03T13:11:58Z</time>
      </trkpt>
      <trkpt lat="48.98779" lon="2.01719">
        <ele>171.5</ele>
        <time>2021-10-03T13:12:04Z</time>
      </trkpt>
      <trkpt lat="48.98784" lon="2.01719">
        <ele>171.6</ele>
        <time>2021-10-03T13:12:09Z</time>
      </trkpt>
      <trkpt lat="48.98791" lon="2.01719">
        <ele>171.7</ele>
        <time>2021-10-03T13:12:14Z</time>
      </trkpt>
      <trkpt lat="48.98795" lon="2.01714">
        <ele>171.5</ele>
        <time>2021-10-03T13:12:19Z</time>
      </trkpt>
      <trkpt lat="48.98801" lon="2.0171">
        <ele>171.5</ele>
        <time>2021-10-03T13:12:24Z</time>
      </trkpt>
      <trkpt lat="48.98808" lon="2.01706">
        <ele>171.5</ele>
        <time>2021-10-03T13:12:30Z</time>
      </trkpt>
      <trkpt lat="48.98813" lon="2.01705">
        <ele>171.5</ele>
        <time>2021-10-03T13:12:35Z</time>
      </trkpt>
      <trkpt lat="48.98818" lon="2.01704">
        <ele>171.6</ele>
        <time>2021-10-03T13:12:41Z</time>
      </trkpt>
      <trkpt lat="48.9882" lon="2.01704">
        <ele>171.6</ele>
        <time>2021-10-03T13:12:46Z</time>
      </trkpt>
      <trkpt lat="48.98821" lon="2.01703">
        <ele>171.6</ele>
        <time>2021-10-03T13:12:51Z</time>
      </trkpt>
      <trkpt lat="48.98821" lon="2.01703">
        <ele>171.6</ele>
        <time>2021-10-03T13:12:57Z</time>
      </trkpt>
      <trkpt lat="48.9882" lon="2.01707">
        <ele>171.7</ele>
        <time>2021-10-03T13:13:02Z</time>
      </trkpt>
      <trkpt lat="48.98817" lon="2.01711">
        <ele>171.8</ele>
        <time>2021-10-03T13:13:07Z</time>
      </trkpt>
      <trkpt lat="48.98812" lon="2.01715">
        <ele>171.8</ele>
        <time>2021-10-03T13:13:13Z</time>
      </trkpt>
      <trkpt lat="48.98809" lon="2.01713">
        <ele>171.7</ele>
        <time>2021-10-03T13:13:18Z</time>
      </trkpt>
      <trkpt lat="48.98813" lon="2.01703">
        <ele>171.4</ele>
        <time>2021-10-03T13:13:24Z</time>
      </trkpt>
      <trkpt lat="48.98814" lon="2.01694">
        <ele>171.2</ele>
        <time>2021-10-03T13:13:29Z</time>
      </trkpt>
      <trkpt lat="48.98815" lon="2.0169">
        <ele>171.1</ele>
        <time>2021-10-03T13:13:34Z</time>
      </trkpt>
      <trkpt lat="48.98817" lon="2.01681">
        <ele>170.8</ele>
        <time>2021-10-03T13:13:40Z</time>
      </trkpt>
      <trkpt lat="48.98818" lon="2.01676">
        <ele>170.7</ele>
        <time>2021-10-03T13:13:45Z</time>
      </trkpt>
      <trkpt lat="48.98822" lon="2.01667">
        <ele>170.6</ele>
        <time>2021-10-03T13:13:51Z</time>
      </trkpt>
      <trkpt lat="48.98827" lon="2.01661">
        <ele>170.6</ele>
        <time>2021-10-03T13:13:57Z</time>
      </trkpt>
      <trkpt lat="48.98833" lon="2.01654">
        <ele>170.7</ele>
        <time>2021-10-03T13:14:03Z</time>
      </trkpt>
      <trkpt lat="48.98835" lon="2.01647">
        <ele>170.6</ele>
        <time>2021-10-03T13:14:08Z</time>
      </trkpt>
      <trkpt lat="48.98838" lon="2.0164">
        <ele>170.5</ele>
        <time>2021-10-03T13:14:14Z</time>
      </trkpt>
      <trkpt lat="48.98843" lon="2.01631">
        <ele>170.4</ele>
        <time>2021-10-03T13:14:19Z</time>
      </trkpt>
      <trkpt lat="48.98844" lon="2.01622">
        <ele>170.2</ele>
        <time>2021-10-03T13:14:24Z</time>
      </trkpt>
      <trkpt lat="48.98842" lon="2.01614">
        <ele>170</ele>
        <time>2021-10-03T13:14:30Z</time>
      </trkpt>
      <trkpt lat="48.98844" lon="2.01605">
        <ele>169.9</ele>
        <time>2021-10-03T13:14:35Z</time>
      </trkpt>
      <trkpt lat="48.98844" lon="2.01601">
        <ele>169.8</ele>
        <time>2021-10-03T13:14:41Z</time>
      </trkpt>
      <trkpt lat="48.98845" lon="2.01594">
        <ele>169.7</ele>
        <time>2021-10-03T13:14:47Z</time>
      </trkpt>
      <trkpt lat="48.98848" lon="2.01586">
        <ele>169.6</ele>
        <time>2021-10-03T13:14:52Z</time>
      </trkpt>
      <trkpt lat="48.98856" lon="2.01579">
        <ele>169.6</ele>
        <time>2021-10-03T13:14:58Z</time>
      </trkpt>
      <trkpt lat="48.98862" lon="2.01578">
        <ele>169.8</ele>
        <time>2021-10-03T13:15:03Z</time>
      </trkpt>
      <trkpt lat="48.9887" lon="2.01576">
        <ele>170</ele>
        <time>2021-10-03T13:15:09Z</time>
      </trkpt>
      <trkpt lat="48.98874" lon="2.01576">
        <ele>170.2</ele>
        <time>2021-10-03T13:15:14Z</time>
      </trkpt>
      <trkpt lat="48.98879" lon="2.01574">
        <ele>170.3</ele>
        <time>2021-10-03T13:15:20Z</time>
      </trkpt>
      <trkpt lat="48.98886" lon="2.0157">
        <ele>170.4</ele>
        <time>2021-10-03T13:15:26Z</time>
      </trkpt>
      <trkpt lat="48.98896" lon="2.01565">
        <ele>170.8</ele>
        <time>2021-10-03T13:15:32Z</time>
      </trkpt>
      <trkpt lat="48.98903" lon="2.01559">
        <ele>171</ele>
        <time>2021-10-03T13:15:37Z</time>
      </trkpt>
      <trkpt lat="48.98909" lon="2.01554">
        <ele>171.2</ele>
        <time>2021-10-03T13:15:42Z</time>
      </trkpt>
      <trkpt lat="48.98916" lon="2.01554">
        <ele>171.6</ele>
        <time>2021-10-03T13:15:48Z</time>
      </trkpt>
      <trkpt lat="48.9892" lon="2.01561">
        <ele>171.8</ele>
        <time>2021-10-03T13:15:54Z</time>
      </trkpt>
      <trkpt lat="48.98925" lon="2.01563">
        <ele>172</ele>
        <time>2021-10-03T13:16:00Z</time>
      </trkpt>
      <trkpt lat="48.9893" lon="2.01563">
        <ele>172.1</ele>
        <time>2021-10-03T13:16:06Z</time>
      </trkpt>
      <trkpt lat="48.98937" lon="2.0156">
        <ele>172.3</ele>
        <time>2021-10-03T13:16:12Z</time>
      </trkpt>
      <trkpt lat="48.9894" lon="2.01556">
        <ele>172.3</ele>
        <time>2021-10-03T13:16:17Z</time>
      </trkpt>
      <trkpt lat="48.98944" lon="2.01551">
        <ele>172.4</ele>
        <time>2021-10-03T13:16:22Z</time>
      </trkpt>
      <trkpt lat="48.98947" lon="2.01544">
        <ele>172.4</ele>
        <time>2021-10-03T13:16:28Z</time>
      </trkpt>
      <trkpt lat="48.98952" lon="2.01538">
        <ele>172.5</ele>
        <time>2021-10-03T13:16:34Z</time>
      </trkpt>
      <trkpt lat="48.98959" lon="2.01533">
        <ele>172.7</ele>
        <time>2021-10-03T13:16:40Z</time>
      </trkpt>
      <trkpt lat="48.98966" lon="2.0153">
        <ele>172.9</ele>
        <time>2021-10-03T13:16:45Z</time>
      </trkpt>
      <trkpt lat="48.98974" lon="2.01525">
        <ele>173.1</ele>
        <time>2021-10-03T13:16:50Z</time>
      </trkpt>
      <trkpt lat="48.9898" lon="2.01521">
        <ele>173.3</ele>
        <time>2021-10-03T13:16:56Z</time>
      </trkpt>
      <trkpt lat="48.98985" lon="2.01515">
        <ele>173.5</ele>
        <time>2021-10-03T13:17:01Z</time>
      </trkpt>
      <trkpt lat="48.9899" lon="2.01507">
        <ele>173.7</ele>
        <time>2021-10-03T13:17:07Z</time>
      </trkpt>
      <trkpt lat="48.98997" lon="2.01501">
        <ele>173.9</ele>
        <time>2021-10-03T13:17:13Z</time>
      </trkpt>
      <trkpt lat="48.99" lon="2.01497">
        <ele>174</ele>
        <time>2021-10-03T13:17:18Z</time>
      </trkpt>
      <trkpt lat="48.99005" lon="2.01492">
        <ele>174</ele>
        <time>2021-10-03T13:17:23Z</time>
      </trkpt>
      <trkpt lat="48.99009" lon="2.01484">
        <ele>173.9</ele>
        <time>2021-10-03T13:17:29Z</time>
      </trkpt>
      <trkpt lat="48.99013" lon="2.01479">
        <ele>173.9</ele>
        <time>2021-10-03T13:17:34Z</time>
      </trkpt>
      <trkpt lat="48.99018" lon="2.01471">
        <ele>173.9</ele>
        <time>2021-10-03T13:17:40Z</time>
      </trkpt>
      <trkpt lat="48.99022" lon="2.01466">
        <ele>173.9</ele>
        <time>2021-10-03T13:17:45Z</time>
      </trkpt>
      <trkpt lat="48.99027" lon="2.01462">
        <ele>173.9</ele>
        <time>2021-10-03T13:17:51Z</time>
      </trkpt>
      <trkpt lat="48.99033" lon="2.0146">
        <ele>173.9</ele>
        <time>2021-10-03T13:17:56Z</time>
      </trkpt>
      <trkpt lat="48.99039" lon="2.01457">
        <ele>173.9</ele>
        <time>2021-10-03T13:18:01Z</time>
      </trkpt>
      <trkpt lat="48.99046" lon="2.0145">
        <ele>173.9</ele>
        <time>2021-10-03T13:18:07Z</time>
      </trkpt>
      <trkpt lat="48.9905" lon="2.01444">
        <ele>173.9</ele>
        <time>2021-10-03T13:18:13Z</time>
      </trkpt>
      <trkpt lat="48.99056" lon="2.01437">
        <ele>173.9</ele>
        <time>2021-10-03T13:18:19Z</time>
      </trkpt>
      <trkpt lat="48.99059" lon="2.01432">
        <ele>173.9</ele>
        <time>2021-10-03T13:18:25Z</time>
      </trkpt>
      <trkpt lat="48.99066" lon="2.01423">
        <ele>173.9</ele>
        <time>2021-10-03T13:18:31Z</time>
      </trkpt>
      <trkpt lat="48.99073" lon="2.01417">
        <ele>173.9</ele>
        <time>2021-10-03T13:18:36Z</time>
      </trkpt>
      <trkpt lat="48.99078" lon="2.0141">
        <ele>173.7</ele>
        <time>2021-10-03T13:18:41Z</time>
      </trkpt>
      <trkpt lat="48.99085" lon="2.01401">
        <ele>173.5</ele>
        <time>2021-10-03T13:18:47Z</time>
      </trkpt>
      <trkpt lat="48.9909" lon="2.01395">
        <ele>173.5</ele>
        <time>2021-10-03T13:18:52Z</time>
      </trkpt>
      <trkpt lat="48.99095" lon="2.01386">
        <ele>173.4</ele>
        <time>2021-10-03T13:18:58Z</time>
      </trkpt>
      <trkpt lat="48.99102" lon="2.01378">
        <ele>173.5</ele>
        <time>2021-10-03T13:19:03Z</time>
      </trkpt>
      <trkpt lat="48.99106" lon="2.01371">
        <ele>173.5</ele>
        <time>2021-10-03T13:19:08Z</time>
      </trkpt>
      <trkpt lat="48.9911" lon="2.01365">
        <ele>173.5</ele>
        <time>2021-10-03T13:19:14Z</time>
      </trkpt>
      <trkpt lat="48.99114" lon="2.01359">
        <ele>173.5</ele>
        <time>2021-10-03T13:19:20Z</time>
      </trkpt>
      <trkpt lat="48.99118" lon="2.01355">
        <ele>173.6</ele>
        <time>2021-10-03T13:19:25Z</time>
      </trkpt>
      <trkpt lat="48.99121" lon="2.0135">
        <ele>173.7</ele>
        <time>2021-10-03T13:19:31Z</time>
      </trkpt>
      <trkpt lat="48.99126" lon="2.01339">
        <ele>173.7</ele>
        <time>2021-10-03T13:19:37Z</time>
      </trkpt>
      <trkpt lat="48.9913" lon="2.01333">
        <ele>173.8</ele>
        <time>2021-10-03T13:19:43Z</time>
      </trkpt>
      <trkpt lat="48.99134" lon="2.01329">
        <ele>173.8</ele>
        <time>2021-10-03T13:19:48Z</time>
      </trkpt>
      <trkpt lat="48.9914" lon="2.01325">
        <ele>174</ele>
        <time>2021-10-03T13:19:53Z</time>
      </trkpt>
      <trkpt lat="48.99145" lon="2.01319">
        <ele>174</ele>
        <time>2021-10-03T13:19:58Z</time>
      </trkpt>
      <trkpt lat="48.99151" lon="2.01311">
        <ele>174</ele>
        <time>2021-10-03T13:20:04Z</time>
      </trkpt>
      <trkpt lat="48.99159" lon="2.01302">
        <ele>174</ele>
        <time>2021-10-03T13:20:10Z</time>
      </trkpt>
      <trkpt lat="48.99164" lon="2.01293">
        <ele>173.9</ele>
        <time>2021-10-03T13:20:15Z</time>
      </trkpt>
      <trkpt lat="48.99167" lon="2.01284">
        <ele>173.6</ele>
        <time>2021-10-03T13:20:21Z</time>
      </trkpt>
      <trkpt lat="48.99171" lon="2.01277">
        <ele>173.5</ele>
        <time>2021-10-03T13:20:27Z</time>
      </trkpt>
      <trkpt lat="48.99172" lon="2.01269">
        <ele>173.3</ele>
        <time>2021-10-03T13:20:33Z</time>
      </trkpt>
      <trkpt lat="48.99176" lon="2.01264">
        <ele>173.3</ele>
        <time>2021-10-03T13:20:38Z</time>
      </trkpt>
      <trkpt lat="48.99181" lon="2.01256">
        <ele>173.2</ele>
        <time>2021-10-03T13:20:43Z</time>
      </trkpt>
      <trkpt lat="48.99187" lon="2.01246">
        <ele>173.2</ele>
        <time>2021-10-03T13:20:49Z</time>
      </trkpt>
      <trkpt lat="48.99192" lon="2.01243">
        <ele>173.5</ele>
        <time>2021-10-03T13:20:54Z</time>
      </trkpt>
      <trkpt lat="48.99197" lon="2.01236">
        <ele>173.5</ele>
        <time>2021-10-03T13:21:00Z</time>
      </trkpt>
      <trkpt lat="48.99203" lon="2.01227">
        <ele>173.5</ele>
        <time>2021-10-03T13:21:06Z</time>
      </trkpt>
      <trkpt lat="48.99208" lon="2.01221">
        <ele>173.6</ele>
        <time>2021-10-03T13:21:11Z</time>
      </trkpt>
      <trkpt lat="48.99211" lon="2.01217">
        <ele>173.6</ele>
        <time>2021-10-03T13:21:16Z</time>
      </trkpt>
      <trkpt lat="48.99215" lon="2.01209">
        <ele>173.5</ele>
        <time>2021-10-03T13:21:22Z</time>
      </trkpt>
      <trkpt lat="48.99222" lon="2.01198">
        <ele>173.5</ele>
        <time>2021-10-03T13:21:28Z</time>
      </trkpt>
      <trkpt lat="48.99226" lon="2.01192">
        <ele>173.5</ele>
        <time>2021-10-03T13:21:33Z</time>
      </trkpt>
      <trkpt lat="48.99229" lon="2.01186">
        <ele>173.4</ele>
        <time>2021-10-03T13:21:38Z</time>
      </trkpt>
      <trkpt lat="48.99234" lon="2.01179">
        <ele>173.4</ele>
        <time>2021-10-03T13:21:43Z</time>
      </trkpt>
      <trkpt lat="48.99239" lon="2.01173">
        <ele>173.5</ele>
        <time>2021-10-03T13:21:48Z</time>
      </trkpt>
      <trkpt lat="48.99242" lon="2.01172">
        <ele>173.7</ele>
        <time>2021-10-03T13:21:53Z</time>
      </trkpt>
      <trkpt lat="48.99244" lon="2.01169">
        <ele>173.7</ele>
        <time>2021-10-03T13:21:59Z</time>
      </trkpt>
      <trkpt lat="48.99248" lon="2.01164">
        <ele>173.6</ele>
        <time>2021-10-03T13:22:05Z</time>
      </trkpt>
      <trkpt lat="48.99252" lon="2.01158">
        <ele>173.3</ele>
        <time>2021-10-03T13:22:10Z</time>
      </trkpt>
      <trkpt lat="48.99256" lon="2.01153">
        <ele>173.1</ele>
        <time>2021-10-03T13:22:15Z</time>
      </trkpt>
      <trkpt lat="48.9926" lon="2.01147">
        <ele>172.9</ele>
        <time>2021-10-03T13:22:21Z</time>
      </trkpt>
      <trkpt lat="48.99265" lon="2.01141">
        <ele>172.6</ele>
        <time>2021-10-03T13:22:27Z</time>
      </trkpt>
      <trkpt lat="48.9927" lon="2.0113">
        <ele>172.1</ele>
        <time>2021-10-03T13:22:33Z</time>
      </trkpt>
      <trkpt lat="48.99274" lon="2.0112">
        <ele>171.6</ele>
        <time>2021-10-03T13:22:38Z</time>
      </trkpt>
      <trkpt lat="48.99278" lon="2.01112">
        <ele>171.4</ele>
        <time>2021-10-03T13:22:43Z</time>
      </trkpt>
      <trkpt lat="48.99283" lon="2.01108">
        <ele>171.5</ele>
        <time>2021-10-03T13:22:48Z</time>
      </trkpt>
      <trkpt lat="48.9929" lon="2.01103">
        <ele>171.7</ele>
        <time>2021-10-03T13:22:54Z</time>
      </trkpt>
      <trkpt lat="48.99295" lon="2.01098">
        <ele>171.9</ele>
        <time>2021-10-03T13:23:00Z</time>
      </trkpt>
      <trkpt lat="48.99301" lon="2.01088">
        <ele>171.8</ele>
        <time>2021-10-03T13:23:06Z</time>
      </trkpt>
      <trkpt lat="48.99306" lon="2.01079">
        <ele>171.8</ele>
        <time>2021-10-03T13:23:12Z</time>
      </trkpt>
      <trkpt lat="48.9931" lon="2.01072">
        <ele>172</ele>
        <time>2021-10-03T13:23:17Z</time>
      </trkpt>
      <trkpt lat="48.99313" lon="2.01064">
        <ele>172</ele>
        <time>2021-10-03T13:23:23Z</time>
      </trkpt>
      <trkpt lat="48.99316" lon="2.01054">
        <ele>172.1</ele>
        <time>2021-10-03T13:23:29Z</time>
      </trkpt>
      <trkpt lat="48.99314" lon="2.01044">
        <ele>171.4</ele>
        <time>2021-10-03T13:23:35Z</time>
      </trkpt>
      <trkpt lat="48.99316" lon="2.01035">
        <ele>171.3</ele>
        <time>2021-10-03T13:23:41Z</time>
      </trkpt>
      <trkpt lat="48.9932" lon="2.01025">
        <ele>171.6</ele>
        <time>2021-10-03T13:23:47Z</time>
      </trkpt>
      <trkpt lat="48.99323" lon="2.01018">
        <ele>171.9</ele>
        <time>2021-10-03T13:23:53Z</time>
      </trkpt>
      <trkpt lat="48.99327" lon="2.01011">
        <ele>172.3</ele>
        <time>2021-10-03T13:23:59Z</time>
      </trkpt>
      <trkpt lat="48.9933" lon="2.01002">
        <ele>172.4</ele>
        <time>2021-10-03T13:24:04Z</time>
      </trkpt>
      <trkpt lat="48.99334" lon="2.00992">
        <ele>172.7</ele>
        <time>2021-10-03T13:24:10Z</time>
      </trkpt>
      <trkpt lat="48.99334" lon="2.00981">
        <ele>172.4</ele>
        <time>2021-10-03T13:24:16Z</time>
      </trkpt>
      <trkpt lat="48.99336" lon="2.0097">
        <ele>172.1</ele>
        <time>2021-10-03T13:24:22Z</time>
      </trkpt>
      <trkpt lat="48.99333" lon="2.00957">
        <ele>171.3</ele>
        <time>2021-10-03T13:24:28Z</time>
      </trkpt>
      <trkpt lat="48.99331" lon="2.00948">
        <ele>170.6</ele>
        <time>2021-10-03T13:24:33Z</time>
      </trkpt>
      <trkpt lat="48.99328" lon="2.00945">
        <ele>170</ele>
        <time>2021-10-03T13:24:39Z</time>
      </trkpt>
      <trkpt lat="48.99327" lon="2.00945">
        <ele>169.8</ele>
        <time>2021-10-03T13:24:44Z</time>
      </trkpt>
      <trkpt lat="48.99326" lon="2.00945">
        <ele>169.6</ele>
        <time>2021-10-03T13:24:50Z</time>
      </trkpt>
      <trkpt lat="48.99327" lon="2.00945">
        <ele>169.7</ele>
        <time>2021-10-03T13:24:56Z</time>
      </trkpt>
      <trkpt lat="48.99331" lon="2.0094">
        <ele>170.3</ele>
        <time>2021-10-03T13:25:01Z</time>
      </trkpt>
      <trkpt lat="48.99331" lon="2.00934">
        <ele>170.2</ele>
        <time>2021-10-03T13:25:06Z</time>
      </trkpt>
      <trkpt lat="48.99331" lon="2.00932">
        <ele>170</ele>
        <time>2021-10-03T13:25:12Z</time>
      </trkpt>
      <trkpt lat="48.99329" lon="2.00927">
        <ele>169.6</ele>
        <time>2021-10-03T13:25:17Z</time>
      </trkpt>
      <trkpt lat="48.99326" lon="2.00921">
        <ele>168.5</ele>
        <time>2021-10-03T13:25:23Z</time>
      </trkpt>
      <trkpt lat="48.9932" lon="2.00913">
        <ele>166.8</ele>
        <time>2021-10-03T13:25:29Z</time>
      </trkpt>
      <trkpt lat="48.99319" lon="2.00909">
        <ele>166.4</ele>
        <time>2021-10-03T13:25:35Z</time>
      </trkpt>
      <trkpt lat="48.99317" lon="2.00903">
        <ele>165.7</ele>
        <time>2021-10-03T13:25:40Z</time>
      </trkpt>
      <trkpt lat="48.99314" lon="2.00895">
        <ele>164.3</ele>
        <time>2021-10-03T13:25:46Z</time>
      </trkpt>
      <trkpt lat="48.99313" lon="2.00886">
        <ele>163.6</ele>
        <time>2021-10-03T13:25:52Z</time>
      </trkpt>
      <trkpt lat="48.99315" lon="2.00879">
        <ele>163.5</ele>
        <time>2021-10-03T13:25:58Z</time>
      </trkpt>
      <trkpt lat="48.99315" lon="2.00873">
        <ele>163.3</ele>
        <time>2021-10-03T13:26:03Z</time>
      </trkpt>
      <trkpt lat="48.99317" lon="2.00863">
        <ele>163</ele>
        <time>2021-10-03T13:26:09Z</time>
      </trkpt>
      <trkpt lat="48.9932" lon="2.00858">
        <ele>163.3</ele>
        <time>2021-10-03T13:26:15Z</time>
      </trkpt>
      <trkpt lat="48.99323" lon="2.00851">
        <ele>163.6</ele>
        <time>2021-10-03T13:26:20Z</time>
      </trkpt>
      <trkpt lat="48.99329" lon="2.00845">
        <ele>164.8</ele>
        <time>2021-10-03T13:26:26Z</time>
      </trkpt>
      <trkpt lat="48.99335" lon="2.00838">
        <ele>165.4</ele>
        <time>2021-10-03T13:26:32Z</time>
      </trkpt>
      <trkpt lat="48.99339" lon="2.00835">
        <ele>165.6</ele>
        <time>2021-10-03T13:26:38Z</time>
      </trkpt>
      <trkpt lat="48.99342" lon="2.00838">
        <ele>166.1</ele>
        <time>2021-10-03T13:26:44Z</time>
      </trkpt>
      <trkpt lat="48.99345" lon="2.0084">
        <ele>166.5</ele>
        <time>2021-10-03T13:26:49Z</time>
      </trkpt>
      <trkpt lat="48.99349" lon="2.00845">
        <ele>167.2</ele>
        <time>2021-10-03T13:26:54Z</time>
      </trkpt>
      <trkpt lat="48.99356" lon="2.00849">
        <ele>168</ele>
        <time>2021-10-03T13:26:59Z</time>
      </trkpt>
      <trkpt lat="48.9936" lon="2.00848">
        <ele>168.3</ele>
        <time>2021-10-03T13:27:05Z</time>
      </trkpt>
      <trkpt lat="48.99365" lon="2.00846">
        <ele>168.7</ele>
        <time>2021-10-03T13:27:10Z</time>
      </trkpt>
      <trkpt lat="48.9937" lon="2.00843">
        <ele>169</ele>
        <time>2021-10-03T13:27:15Z</time>
      </trkpt>
      <trkpt lat="48.99375" lon="2.00836">
        <ele>169.1</ele>
        <time>2021-10-03T13:27:21Z</time>
      </trkpt>
      <trkpt lat="48.99378" lon="2.00829">
        <ele>168.9</ele>
        <time>2021-10-03T13:27:26Z</time>
      </trkpt>
      <trkpt lat="48.99379" lon="2.00823">
        <ele>168.3</ele>
        <time>2021-10-03T13:27:31Z</time>
      </trkpt>
      <trkpt lat="48.99383" lon="2.00818">
        <ele>168.1</ele>
        <time>2021-10-03T13:27:37Z</time>
      </trkpt>
      <trkpt lat="48.99386" lon="2.00814">
        <ele>168.1</ele>
        <time>2021-10-03T13:27:42Z</time>
      </trkpt>
      <trkpt lat="48.99392" lon="2.00808">
        <ele>168.1</ele>
        <time>2021-10-03T13:27:48Z</time>
      </trkpt>
      <trkpt lat="48.99399" lon="2.00802">
        <ele>168.2</ele>
        <time>2021-10-03T13:27:54Z</time>
      </trkpt>
      <trkpt lat="48.99404" lon="2.00796">
        <ele>168.1</ele>
        <time>2021-10-03T13:27:59Z</time>
      </trkpt>
      <trkpt lat="48.99409" lon="2.00794">
        <ele>168.4</ele>
        <time>2021-10-03T13:28:04Z</time>
      </trkpt>
      <trkpt lat="48.99413" lon="2.0079">
        <ele>168.5</ele>
        <time>2021-10-03T13:28:09Z</time>
      </trkpt>
      <trkpt lat="48.99418" lon="2.00788">
        <ele>168.7</ele>
        <time>2021-10-03T13:28:14Z</time>
      </trkpt>
      <trkpt lat="48.99423" lon="2.00786">
        <ele>168.6</ele>
        <time>2021-10-03T13:28:20Z</time>
      </trkpt>
      <trkpt lat="48.99427" lon="2.00782">
        <ele>168.3</ele>
        <time>2021-10-03T13:28:26Z</time>
      </trkpt>
      <trkpt lat="48.99434" lon="2.00781">
        <ele>168.3</ele>
        <time>2021-10-03T13:28:31Z</time>
      </trkpt>
      <trkpt lat="48.99442" lon="2.00778">
        <ele>168.2</ele>
        <time>2021-10-03T13:28:37Z</time>
      </trkpt>
      <trkpt lat="48.99449" lon="2.00772">
        <ele>167.8</ele>
        <time>2021-10-03T13:28:42Z</time>
      </trkpt>
      <trkpt lat="48.99457" lon="2.00766">
        <ele>167.4</ele>
        <time>2021-10-03T13:28:47Z</time>
      </trkpt>
      <trkpt lat="48.99463" lon="2.00762">
        <ele>167.2</ele>
        <time>2021-10-03T13:28:53Z</time>
      </trkpt>
      <trkpt lat="48.99467" lon="2.00762">
        <ele>167.3</ele>
        <time>2021-10-03T13:28:59Z</time>
      </trkpt>
      <trkpt lat="48.99474" lon="2.00759">
        <ele>167.2</ele>
        <time>2021-10-03T13:29:05Z</time>
      </trkpt>
      <trkpt lat="48.99479" lon="2.00759">
        <ele>167.3</ele>
        <time>2021-10-03T13:29:11Z</time>
      </trkpt>
      <trkpt lat="48.99483" lon="2.0076">
        <ele>167.4</ele>
        <time>2021-10-03T13:29:16Z</time>
      </trkpt>
      <trkpt lat="48.99487" lon="2.00761">
        <ele>167.6</ele>
        <time>2021-10-03T13:29:21Z</time>
      </trkpt>
      <trkpt lat="48.99491" lon="2.00764">
        <ele>168</ele>
        <time>2021-10-03T13:29:27Z</time>
      </trkpt>
      <trkpt lat="48.99497" lon="2.00768">
        <ele>168.4</ele>
        <time>2021-10-03T13:29:32Z</time>
      </trkpt>
      <trkpt lat="48.99502" lon="2.0077">
        <ele>168.7</ele>
        <time>2021-10-03T13:29:37Z</time>
      </trkpt>
      <trkpt lat="48.99509" lon="2.00773">
        <ele>169.2</ele>
        <time>2021-10-03T13:29:43Z</time>
      </trkpt>
      <trkpt lat="48.99517" lon="2.00776">
        <ele>169.6</ele>
        <time>2021-10-03T13:29:49Z</time>
      </trkpt>
      <trkpt lat="48.99524" lon="2.00779">
        <ele>170.1</ele>
        <time>2021-10-03T13:29:54Z</time>
      </trkpt>
      <trkpt lat="48.99532" lon="2.00782">
        <ele>170.5</ele>
        <time>2021-10-03T13:30:00Z</time>
      </trkpt>
      <trkpt lat="48.99539" lon="2.00786">
        <ele>171</ele>
        <time>2021-10-03T13:30:05Z</time>
      </trkpt>
      <trkpt lat="48.99547" lon="2.0079">
        <ele>171.5</ele>
        <time>2021-10-03T13:30:11Z</time>
      </trkpt>
      <trkpt lat="48.99553" lon="2.0079">
        <ele>171.6</ele>
        <time>2021-10-03T13:30:17Z</time>
      </trkpt>
      <trkpt lat="48.99557" lon="2.00791">
        <ele>171.8</ele>
        <time>2021-10-03T13:30:22Z</time>
      </trkpt>
      <trkpt lat="48.99562" lon="2.00795">
        <ele>172.2</ele>
        <time>2021-10-03T13:30:27Z</time>
      </trkpt>
      <trkpt lat="48.99568" lon="2.00797">
        <ele>172.5</ele>
        <time>2021-10-03T13:30:32Z</time>
      </trkpt>
      <trkpt lat="48.99573" lon="2.008">
        <ele>172.8</ele>
        <time>2021-10-03T13:30:38Z</time>
      </trkpt>
      <trkpt lat="48.99579" lon="2.00802">
        <ele>173</ele>
        <time>2021-10-03T13:30:43Z</time>
      </trkpt>
      <trkpt lat="48.99586" lon="2.00805">
        <ele>173.3</ele>
        <time>2021-10-03T13:30:49Z</time>
      </trkpt>
      <trkpt lat="48.99591" lon="2.00809">
        <ele>173.6</ele>
        <time>2021-10-03T13:30:54Z</time>
      </trkpt>
      <trkpt lat="48.99598" lon="2.00814">
        <ele>174</ele>
        <time>2021-10-03T13:30:59Z</time>
      </trkpt>
      <trkpt lat="48.99606" lon="2.00816">
        <ele>174.3</ele>
        <time>2021-10-03T13:31:04Z</time>
      </trkpt>
      <trkpt lat="48.99613" lon="2.00818">
        <ele>174.5</ele>
        <time>2021-10-03T13:31:10Z</time>
      </trkpt>
      <trkpt lat="48.99619" lon="2.0082">
        <ele>174.7</ele>
        <time>2021-10-03T13:31:15Z</time>
      </trkpt>
      <trkpt lat="48.99629" lon="2.00824">
        <ele>175</ele>
        <time>2021-10-03T13:31:21Z</time>
      </trkpt>
      <trkpt lat="48.99638" lon="2.00824">
        <ele>175.2</ele>
        <time>2021-10-03T13:31:27Z</time>
      </trkpt>
      <trkpt lat="48.99648" lon="2.00827">
        <ele>175.5</ele>
        <time>2021-10-03T13:31:32Z</time>
      </trkpt>
      <trkpt lat="48.99656" lon="2.00831">
        <ele>175.8</ele>
        <time>2021-10-03T13:31:38Z</time>
      </trkpt>
      <trkpt lat="48.99661" lon="2.00836">
        <ele>176</ele>
        <time>2021-10-03T13:31:44Z</time>
      </trkpt>
      <trkpt lat="48.99667" lon="2.0084">
        <ele>176.1</ele>
        <time>2021-10-03T13:31:50Z</time>
      </trkpt>
      <trkpt lat="48.99675" lon="2.00842">
        <ele>176.2</ele>
        <time>2021-10-03T13:31:56Z</time>
      </trkpt>
      <trkpt lat="48.99682" lon="2.00845">
        <ele>176.4</ele>
        <time>2021-10-03T13:32:02Z</time>
      </trkpt>
      <trkpt lat="48.99685" lon="2.00847">
        <ele>176.5</ele>
        <time>2021-10-03T13:32:07Z</time>
      </trkpt>
      <trkpt lat="48.99686" lon="2.00851">
        <ele>176.5</ele>
        <time>2021-10-03T13:32:13Z</time>
      </trkpt>
      <trkpt lat="48.99689" lon="2.0086">
        <ele>176.7</ele>
        <time>2021-10-03T13:32:19Z</time>
      </trkpt>
      <trkpt lat="48.99691" lon="2.00866">
        <ele>176.9</ele>
        <time>2021-10-03T13:32:25Z</time>
      </trkpt>
      <trkpt lat="48.99694" lon="2.00869">
        <ele>177</ele>
        <time>2021-10-03T13:32:31Z</time>
      </trkpt>
      <trkpt lat="48.99695" lon="2.00871">
        <ele>177.1</ele>
        <time>2021-10-03T13:32:37Z</time>
      </trkpt>
      <trkpt lat="48.99703" lon="2.00875">
        <ele>177.4</ele>
        <time>2021-10-03T13:32:42Z</time>
      </trkpt>
      <trkpt lat="48.99707" lon="2.00873">
        <ele>177.4</ele>
        <time>2021-10-03T13:32:47Z</time>
      </trkpt>
      <trkpt lat="48.99716" lon="2.00871">
        <ele>177.6</ele>
        <time>2021-10-03T13:32:53Z</time>
      </trkpt>
      <trkpt lat="48.99725" lon="2.00869">
        <ele>177.7</ele>
        <time>2021-10-03T13:32:59Z</time>
      </trkpt>
      <trkpt lat="48.99731" lon="2.00867">
        <ele>177.8</ele>
        <time>2021-10-03T13:33:04Z</time>
      </trkpt>
      <trkpt lat="48.99738" lon="2.00864">
        <ele>177.9</ele>
        <time>2021-10-03T13:33:10Z</time>
      </trkpt>
      <trkpt lat="48.99741" lon="2.00865">
        <ele>178</ele>
        <time>2021-10-03T13:33:15Z</time>
      </trkpt>
      <trkpt lat="48.99745" lon="2.00867">
        <ele>178.1</ele>
        <time>2021-10-03T13:33:21Z</time>
      </trkpt>
      <trkpt lat="48.99753" lon="2.00871">
        <ele>178.2</ele>
        <time>2021-10-03T13:33:27Z</time>
      </trkpt>
      <trkpt lat="48.99756" lon="2.00872">
        <ele>178.1</ele>
        <time>2021-10-03T13:33:33Z</time>
      </trkpt>
      <trkpt lat="48.99759" lon="2.00874">
        <ele>178.1</ele>
        <time>2021-10-03T13:33:38Z</time>
      </trkpt>
      <trkpt lat="48.99763" lon="2.00876">
        <ele>178</ele>
        <time>2021-10-03T13:33:44Z</time>
      </trkpt>
      <trkpt lat="48.9977" lon="2.00879">
        <ele>177.8</ele>
        <time>2021-10-03T13:33:50Z</time>
      </trkpt>
      <trkpt lat="48.99774" lon="2.00882">
        <ele>177.7</ele>
        <time>2021-10-03T13:33:55Z</time>
      </trkpt>
      <trkpt lat="48.99785" lon="2.00882">
        <ele>177.2</ele>
        <time>2021-10-03T13:34:01Z</time>
      </trkpt>
      <trkpt lat="48.99793" lon="2.00881">
        <ele>176.9</ele>
        <time>2021-10-03T13:34:06Z</time>
      </trkpt>
      <trkpt lat="48.99799" lon="2.00881">
        <ele>176.6</ele>
        <time>2021-10-03T13:34:12Z</time>
      </trkpt>
      <trkpt lat="48.9981" lon="2.00878">
        <ele>176.1</ele>
        <time>2021-10-03T13:34:18Z</time>
      </trkpt>
      <trkpt lat="48.99823" lon="2.00873">
        <ele>175.4</ele>
        <time>2021-10-03T13:34:24Z</time>
      </trkpt>
      <trkpt lat="48.99828" lon="2.00876">
        <ele>175.2</ele>
        <time>2021-10-03T13:34:29Z</time>
      </trkpt>
      <trkpt lat="48.99833" lon="2.00879">
        <ele>175.1</ele>
        <time>2021-10-03T13:34:34Z</time>
      </trkpt>
      <trkpt lat="48.9984" lon="2.00882">
        <ele>175.2</ele>
        <time>2021-10-03T13:34:40Z</time>
      </trkpt>
      <trkpt lat="48.99848" lon="2.00886">
        <ele>175.3</ele>
        <time>2021-10-03T13:34:45Z</time>
      </trkpt>
      <trkpt lat="48.99856" lon="2.0089">
        <ele>175.5</ele>
        <time>2021-10-03T13:34:51Z</time>
      </trkpt>
      <trkpt lat="48.99864" lon="2.00897">
        <ele>175.6</ele>
        <time>2021-10-03T13:34:57Z</time>
      </trkpt>
      <trkpt lat="48.99872" lon="2.009">
        <ele>175.7</ele>
        <time>2021-10-03T13:35:03Z</time>
      </trkpt>
      <trkpt lat="48.99879" lon="2.00904">
        <ele>175.8</ele>
        <time>2021-10-03T13:35:08Z</time>
      </trkpt>
      <trkpt lat="48.99886" lon="2.00908">
        <ele>175.9</ele>
        <time>2021-10-03T13:35:14Z</time>
      </trkpt>
      <trkpt lat="48.99894" lon="2.00911">
        <ele>175.9</ele>
        <time>2021-10-03T13:35:20Z</time>
      </trkpt>
      <trkpt lat="48.99897" lon="2.0092">
        <ele>176</ele>
        <time>2021-10-03T13:35:25Z</time>
      </trkpt>
      <trkpt lat="48.99902" lon="2.00929">
        <ele>176.1</ele>
        <time>2021-10-03T13:35:31Z</time>
      </trkpt>
      <trkpt lat="48.99909" lon="2.00934">
        <ele>176.2</ele>
        <time>2021-10-03T13:35:37Z</time>
      </trkpt>
      <trkpt lat="48.99915" lon="2.00937">
        <ele>176.2</ele>
        <time>2021-10-03T13:35:42Z</time>
      </trkpt>
      <trkpt lat="48.99917" lon="2.00947">
        <ele>176.4</ele>
        <time>2021-10-03T13:35:48Z</time>
      </trkpt>
      <trkpt lat="48.99918" lon="2.00957">
        <ele>176.5</ele>
        <time>2021-10-03T13:35:54Z</time>
      </trkpt>
      <trkpt lat="48.9992" lon="2.00966">
        <ele>176.7</ele>
        <time>2021-10-03T13:35:59Z</time>
      </trkpt>
      <trkpt lat="48.99918" lon="2.00977">
        <ele>176.8</ele>
        <time>2021-10-03T13:36:05Z</time>
      </trkpt>
      <trkpt lat="48.99916" lon="2.00986">
        <ele>176.8</ele>
        <time>2021-10-03T13:36:10Z</time>
      </trkpt>
      <trkpt lat="48.99912" lon="2.00998">
        <ele>177</ele>
        <time>2021-10-03T13:36:16Z</time>
      </trkpt>
      <trkpt lat="48.99909" lon="2.01006">
        <ele>177.1</ele>
        <time>2021-10-03T13:36:21Z</time>
      </trkpt>
      <trkpt lat="48.99904" lon="2.01015">
        <ele>177.2</ele>
        <time>2021-10-03T13:36:27Z</time>
      </trkpt>
      <trkpt lat="48.999" lon="2.01021">
        <ele>177.2</ele>
        <time>2021-10-03T13:36:32Z</time>
      </trkpt>
      <trkpt lat="48.99896" lon="2.01028">
        <ele>177.3</ele>
        <time>2021-10-03T13:36:38Z</time>
      </trkpt>
      <trkpt lat="48.99898" lon="2.0104">
        <ele>177.5</ele>
        <time>2021-10-03T13:36:44Z</time>
      </trkpt>
      <trkpt lat="48.99902" lon="2.01048">
        <ele>177.6</ele>
        <time>2021-10-03T13:36:49Z</time>
      </trkpt>
      <trkpt lat="48.99905" lon="2.01056">
        <ele>177.7</ele>
        <time>2021-10-03T13:36:54Z</time>
      </trkpt>
      <trkpt lat="48.9991" lon="2.01066">
        <ele>177.8</ele>
        <time>2021-10-03T13:37:00Z</time>
      </trkpt>
      <trkpt lat="48.99916" lon="2.01075">
        <ele>177.9</ele>
        <time>2021-10-03T13:37:06Z</time>
      </trkpt>
      <trkpt lat="48.9992" lon="2.01085">
        <ele>178.1</ele>
        <time>2021-10-03T13:37:12Z</time>
      </trkpt>
      <trkpt lat="48.99924" lon="2.01095">
        <ele>178.2</ele>
        <time>2021-10-03T13:37:18Z</time>
      </trkpt>
      <trkpt lat="48.99927" lon="2.01109">
        <ele>178.2</ele>
        <time>2021-10-03T13:37:24Z</time>
      </trkpt>
      <trkpt lat="48.9993" lon="2.0112">
        <ele>178.3</ele>
        <time>2021-10-03T13:37:29Z</time>
      </trkpt>
      <trkpt lat="48.99936" lon="2.01128">
        <ele>178.5</ele>
        <time>2021-10-03T13:37:35Z</time>
      </trkpt>
      <trkpt lat="48.9994" lon="2.01136">
        <ele>178.6</ele>
        <time>2021-10-03T13:37:41Z</time>
      </trkpt>
      <trkpt lat="48.99945" lon="2.01147">
        <ele>178.7</ele>
        <time>2021-10-03T13:37:47Z</time>
      </trkpt>
      <trkpt lat="48.99951" lon="2.01158">
        <ele>178.8</ele>
        <time>2021-10-03T13:37:53Z</time>
      </trkpt>
      <trkpt lat="48.99954" lon="2.01167">
        <ele>178.9</ele>
        <time>2021-10-03T13:37:58Z</time>
      </trkpt>
      <trkpt lat="48.99955" lon="2.01177">
        <ele>178.7</ele>
        <time>2021-10-03T13:38:03Z</time>
      </trkpt>
      <trkpt lat="48.99959" lon="2.01188">
        <ele>178.7</ele>
        <time>2021-10-03T13:38:09Z</time>
      </trkpt>
      <trkpt lat="48.99962" lon="2.01196">
        <ele>178.6</ele>
        <time>2021-10-03T13:38:14Z</time>
      </trkpt>
      <trkpt lat="48.99968" lon="2.01205">
        <ele>178.7</ele>
        <time>2021-10-03T13:38:19Z</time>
      </trkpt>
      <trkpt lat="48.99973" lon="2.01214">
        <ele>178.8</ele>
        <time>2021-10-03T13:38:25Z</time>
      </trkpt>
      <trkpt lat="48.99977" lon="2.01222">
        <ele>178.9</ele>
        <time>2021-10-03T13:38:30Z</time>
      </trkpt>
      <trkpt lat="48.9998" lon="2.01232">
        <ele>179</ele>
        <time>2021-10-03T13:38:36Z</time>
      </trkpt>
      <trkpt lat="48.99983" lon="2.01241">
        <ele>179</ele>
        <time>2021-10-03T13:38:41Z</time>
      </trkpt>
      <trkpt lat="48.99986" lon="2.01249">
        <ele>179.2</ele>
        <time>2021-10-03T13:38:46Z</time>
      </trkpt>
      <trkpt lat="48.99989" lon="2.01256">
        <ele>179.2</ele>
        <time>2021-10-03T13:38:51Z</time>
      </trkpt>
      <trkpt lat="48.99994" lon="2.01266">
        <ele>179.3</ele>
        <time>2021-10-03T13:38:57Z</time>
      </trkpt>
      <trkpt lat="48.99998" lon="2.01277">
        <ele>179.3</ele>
        <time>2021-10-03T13:39:03Z</time>
      </trkpt>
      <trkpt lat="49.00003" lon="2.01288">
        <ele>179</ele>
        <time>2021-10-03T13:39:09Z</time>
      </trkpt>
      <trkpt lat="49.00007" lon="2.01298">
        <ele>178.6</ele>
        <time>2021-10-03T13:39:15Z</time>
      </trkpt>
      <trkpt lat="49.00009" lon="2.01307">
        <ele>178.4</ele>
        <time>2021-10-03T13:39:20Z</time>
      </trkpt>
      <trkpt lat="49.00013" lon="2.01313">
        <ele>178.1</ele>
        <time>2021-10-03T13:39:25Z</time>
      </trkpt>
      <trkpt lat="49.00021" lon="2.01321">
        <ele>177.8</ele>
        <time>2021-10-03T13:39:31Z</time>
      </trkpt>
      <trkpt lat="49.00028" lon="2.01328">
        <ele>177.4</ele>
        <time>2021-10-03T13:39:36Z</time>
      </trkpt>
      <trkpt lat="49.00035" lon="2.01339">
        <ele>177.1</ele>
        <time>2021-10-03T13:39:42Z</time>
      </trkpt>
      <trkpt lat="49.0004" lon="2.01349">
        <ele>176.9</ele>
        <time>2021-10-03T13:39:48Z</time>
      </trkpt>
      <trkpt lat="49.00045" lon="2.01355">
        <ele>176.7</ele>
        <time>2021-10-03T13:39:54Z</time>
      </trkpt>
      <trkpt lat="49.00051" lon="2.01361">
        <ele>176.4</ele>
        <time>2021-10-03T13:39:59Z</time>
      </trkpt>
      <trkpt lat="49.00058" lon="2.01369">
        <ele>176.2</ele>
        <time>2021-10-03T13:40:05Z</time>
      </trkpt>
      <trkpt lat="49.00063" lon="2.01371">
        <ele>176</ele>
        <time>2021-10-03T13:40:11Z</time>
      </trkpt>
      <trkpt lat="49.00065" lon="2.01374">
        <ele>175.9</ele>
        <time>2021-10-03T13:40:17Z</time>
      </trkpt>
      <trkpt lat="49.00067" lon="2.01384">
        <ele>175.8</ele>
        <time>2021-10-03T13:40:22Z</time>
      </trkpt>
      <trkpt lat="49.00072" lon="2.01393">
        <ele>175.6</ele>
        <time>2021-10-03T13:40:27Z</time>
      </trkpt>
      <trkpt lat="49.00075" lon="2.01404">
        <ele>175.4</ele>
        <time>2021-10-03T13:40:32Z</time>
      </trkpt>
      <trkpt lat="49.0008" lon="2.01417">
        <ele>175.1</ele>
        <time>2021-10-03T13:40:38Z</time>
      </trkpt>
      <trkpt lat="49.00082" lon="2.01428">
        <ele>174.9</ele>
        <time>2021-10-03T13:40:43Z</time>
      </trkpt>
      <trkpt lat="49.00079" lon="2.01439">
        <ele>174.8</ele>
        <time>2021-10-03T13:40:49Z</time>
      </trkpt>
      <trkpt lat="49.00076" lon="2.01448">
        <ele>174.7</ele>
        <time>2021-10-03T13:40:55Z</time>
      </trkpt>
      <trkpt lat="49.00071" lon="2.01463">
        <ele>174.6</ele>
        <time>2021-10-03T13:41:01Z</time>
      </trkpt>
      <trkpt lat="49.00065" lon="2.01468">
        <ele>174.5</ele>
        <time>2021-10-03T13:41:06Z</time>
      </trkpt>
      <trkpt lat="49.00059" lon="2.01477">
        <ele>174.4</ele>
        <time>2021-10-03T13:41:12Z</time>
      </trkpt>
      <trkpt lat="49.00054" lon="2.01486">
        <ele>174.3</ele>
        <time>2021-10-03T13:41:18Z</time>
      </trkpt>
      <trkpt lat="49.00054" lon="2.01499">
        <ele>174</ele>
        <time>2021-10-03T13:41:24Z</time>
      </trkpt>
      <trkpt lat="49.00055" lon="2.01513">
        <ele>173.8</ele>
        <time>2021-10-03T13:41:30Z</time>
      </trkpt>
      <trkpt lat="49.00058" lon="2.01529">
        <ele>173.5</ele>
        <time>2021-10-03T13:41:36Z</time>
      </trkpt>
      <trkpt lat="49.0006" lon="2.01539">
        <ele>173.3</ele>
        <time>2021-10-03T13:41:41Z</time>
      </trkpt>
      <trkpt lat="49.0006" lon="2.01553">
        <ele>173.1</ele>
        <time>2021-10-03T13:41:47Z</time>
      </trkpt>
      <trkpt lat="49.00062" lon="2.01569">
        <ele>172.8</ele>
        <time>2021-10-03T13:41:53Z</time>
      </trkpt>
      <trkpt lat="49.00063" lon="2.01581">
        <ele>172.5</ele>
        <time>2021-10-03T13:41:59Z</time>
      </trkpt>
      <trkpt lat="49.00063" lon="2.01594">
        <ele>172.6</ele>
        <time>2021-10-03T13:42:05Z</time>
      </trkpt>
      <trkpt lat="49.00061" lon="2.01606">
        <ele>172.8</ele>
        <time>2021-10-03T13:42:11Z</time>
      </trkpt>
      <trkpt lat="49.00058" lon="2.01615">
        <ele>173</ele>
        <time>2021-10-03T13:42:16Z</time>
      </trkpt>
      <trkpt lat="49.00055" lon="2.01627">
        <ele>173.2</ele>
        <time>2021-10-03T13:42:22Z</time>
      </trkpt>
      <trkpt lat="49.00052" lon="2.01638">
        <ele>173.4</ele>
        <time>2021-10-03T13:42:28Z</time>
      </trkpt>
      <trkpt lat="49.00047" lon="2.01651">
        <ele>173.7</ele>
        <time>2021-10-03T13:42:34Z</time>
      </trkpt>
      <trkpt lat="49.00043" lon="2.01664">
        <ele>173.9</ele>
        <time>2021-10-03T13:42:40Z</time>
      </trkpt>
      <trkpt lat="49.00039" lon="2.01676">
        <ele>174</ele>
        <time>2021-10-03T13:42:46Z</time>
      </trkpt>
      <trkpt lat="49.00037" lon="2.01685">
        <ele>174.1</ele>
        <time>2021-10-03T13:42:51Z</time>
      </trkpt>
      <trkpt lat="49.00034" lon="2.01696">
        <ele>174.1</ele>
        <time>2021-10-03T13:42:57Z</time>
      </trkpt>
      <trkpt lat="49.00034" lon="2.01706">
        <ele>174.1</ele>
        <time>2021-10-03T13:43:02Z</time>
      </trkpt>
      <trkpt lat="49.00028" lon="2.01718">
        <ele>174.1</ele>
        <time>2021-10-03T13:43:08Z</time>
      </trkpt>
      <trkpt lat="49.00024" lon="2.0173">
        <ele>174.1</ele>
        <time>2021-10-03T13:43:14Z</time>
      </trkpt>
      <trkpt lat="49.00021" lon="2.0174">
        <ele>174.1</ele>
        <time>2021-10-03T13:43:19Z</time>
      </trkpt>
      <trkpt lat="49.00019" lon="2.01751">
        <ele>174</ele>
        <time>2021-10-03T13:43:25Z</time>
      </trkpt>
      <trkpt lat="49.00017" lon="2.01761">
        <ele>173.9</ele>
        <time>2021-10-03T13:43:30Z</time>
      </trkpt>
      <trkpt lat="49.00016" lon="2.0177">
        <ele>173.9</ele>
        <time>2021-10-03T13:43:35Z</time>
      </trkpt>
      <trkpt lat="49.00011" lon="2.0178">
        <ele>173.9</ele>
        <time>2021-10-03T13:43:41Z</time>
      </trkpt>
      <trkpt lat="49.00007" lon="2.01792">
        <ele>173.9</ele>
        <time>2021-10-03T13:43:47Z</time>
      </trkpt>
      <trkpt lat="49.00003" lon="2.01805">
        <ele>173.9</ele>
        <time>2021-10-03T13:43:53Z</time>
      </trkpt>
      <trkpt lat="49" lon="2.01816">
        <ele>174</ele>
        <time>2021-10-03T13:43:59Z</time>
      </trkpt>
      <trkpt lat="48.99996" lon="2.01825">
        <ele>174</ele>
        <time>2021-10-03T13:44:04Z</time>
      </trkpt>
      <trkpt lat="48.99993" lon="2.01837">
        <ele>174.1</ele>
        <time>2021-10-03T13:44:10Z</time>
      </trkpt>
      <trkpt lat="48.99991" lon="2.01846">
        <ele>174.2</ele>
        <time>2021-10-03T13:44:15Z</time>
      </trkpt>
      <trkpt lat="48.99989" lon="2.01859">
        <ele>174.3</ele>
        <time>2021-10-03T13:44:21Z</time>
      </trkpt>
      <trkpt lat="48.99984" lon="2.01868">
        <ele>174.5</ele>
        <time>2021-10-03T13:44:27Z</time>
      </trkpt>
      <trkpt lat="48.99981" lon="2.0188">
        <ele>174.7</ele>
        <time>2021-10-03T13:44:33Z</time>
      </trkpt>
      <trkpt lat="48.99977" lon="2.01891">
        <ele>174.9</ele>
        <time>2021-10-03T13:44:39Z</time>
      </trkpt>
      <trkpt lat="48.99974" lon="2.01903">
        <ele>175.1</ele>
        <time>2021-10-03T13:44:45Z</time>
      </trkpt>
      <trkpt lat="48.99971" lon="2.01914">
        <ele>175.3</ele>
        <time>2021-10-03T13:44:51Z</time>
      </trkpt>
      <trkpt lat="48.99969" lon="2.01923">
        <ele>175.3</ele>
        <time>2021-10-03T13:44:56Z</time>
      </trkpt>
      <trkpt lat="48.99965" lon="2.01935">
        <ele>175.3</ele>
        <time>2021-10-03T13:45:02Z</time>
      </trkpt>
      <trkpt lat="48.99963" lon="2.01946">
        <ele>175.4</ele>
        <time>2021-10-03T13:45:08Z</time>
      </trkpt>
      <trkpt lat="48.9996" lon="2.01955">
        <ele>175.4</ele>
        <time>2021-10-03T13:45:14Z</time>
      </trkpt>
      <trkpt lat="48.99958" lon="2.01965">
        <ele>175.5</ele>
        <time>2021-10-03T13:45:19Z</time>
      </trkpt>
      <trkpt lat="48.99955" lon="2.01976">
        <ele>175.6</ele>
        <time>2021-10-03T13:45:24Z</time>
      </trkpt>
      <trkpt lat="48.99951" lon="2.01987">
        <ele>175.9</ele>
        <time>2021-10-03T13:45:29Z</time>
      </trkpt>
      <trkpt lat="48.99949" lon="2.01998">
        <ele>176</ele>
        <time>2021-10-03T13:45:35Z</time>
      </trkpt>
      <trkpt lat="48.99947" lon="2.02011">
        <ele>176.1</ele>
        <time>2021-10-03T13:45:41Z</time>
      </trkpt>
      <trkpt lat="48.99943" lon="2.0202">
        <ele>176.2</ele>
        <time>2021-10-03T13:45:46Z</time>
      </trkpt>
      <trkpt lat="48.99938" lon="2.02029">
        <ele>176.5</ele>
        <time>2021-10-03T13:45:51Z</time>
      </trkpt>
      <trkpt lat="48.99933" lon="2.02039">
        <ele>176.8</ele>
        <time>2021-10-03T13:45:57Z</time>
      </trkpt>
      <trkpt lat="48.99931" lon="2.02049">
        <ele>176.9</ele>
        <time>2021-10-03T13:46:02Z</time>
      </trkpt>
      <trkpt lat="48.99931" lon="2.0206">
        <ele>176.8</ele>
        <time>2021-10-03T13:46:07Z</time>
      </trkpt>
      <trkpt lat="48.9993" lon="2.02071">
        <ele>176.8</ele>
        <time>2021-10-03T13:46:13Z</time>
      </trkpt>
      <trkpt lat="48.99928" lon="2.02082">
        <ele>176.9</ele>
        <time>2021-10-03T13:46:19Z</time>
      </trkpt>
      <trkpt lat="48.99929" lon="2.0208">
        <ele>176.8</ele>
        <time>2021-10-03T13:46:24Z</time>
      </trkpt>
      <trkpt lat="48.99933" lon="2.02077">
        <ele>176.5</ele>
        <time>2021-10-03T13:46:29Z</time>
      </trkpt>
      <trkpt lat="48.99937" lon="2.02074">
        <ele>176.1</ele>
        <time>2021-10-03T13:46:35Z</time>
      </trkpt>
      <trkpt lat="48.99941" lon="2.02079">
        <ele>175.7</ele>
        <time>2021-10-03T13:46:41Z</time>
      </trkpt>
      <trkpt lat="48.99945" lon="2.02083">
        <ele>175.3</ele>
        <time>2021-10-03T13:46:47Z</time>
      </trkpt>
      <trkpt lat="48.99948" lon="2.02086">
        <ele>174.9</ele>
        <time>2021-10-03T13:46:53Z</time>
      </trkpt>
      <trkpt lat="48.99951" lon="2.02093">
        <ele>174.4</ele>
        <time>2021-10-03T13:46:59Z</time>
      </trkpt>
      <trkpt lat="48.99953" lon="2.02099">
        <ele>174</ele>
        <time>2021-10-03T13:47:05Z</time>
      </trkpt>
      <trkpt lat="48.99955" lon="2.02104">
        <ele>173.6</ele>
        <time>2021-10-03T13:47:10Z</time>
      </trkpt>
      <trkpt lat="48.99957" lon="2.02108">
        <ele>173.3</ele>
        <time>2021-10-03T13:47:15Z</time>
      </trkpt>
      <trkpt lat="48.9996" lon="2.02111">
        <ele>172.8</ele>
        <time>2021-10-03T13:47:21Z</time>
      </trkpt>
      <trkpt lat="48.99964" lon="2.02117">
        <ele>172.1</ele>
        <time>2021-10-03T13:47:27Z</time>
      </trkpt>
      <trkpt lat="48.99967" lon="2.02121">
        <ele>171.6</ele>
        <time>2021-10-03T13:47:33Z</time>
      </trkpt>
      <trkpt lat="48.99971" lon="2.02127">
        <ele>170.9</ele>
        <time>2021-10-03T13:47:39Z</time>
      </trkpt>
      <trkpt lat="48.99976" lon="2.02132">
        <ele>170.1</ele>
        <time>2021-10-03T13:47:44Z</time>
      </trkpt>
      <trkpt lat="48.99979" lon="2.02137">
        <ele>169.4</ele>
        <time>2021-10-03T13:47:50Z</time>
      </trkpt>
      <trkpt lat="48.99982" lon="2.02144">
        <ele>168.7</ele>
        <time>2021-10-03T13:47:55Z</time>
      </trkpt>
      <trkpt lat="48.99986" lon="2.0215">
        <ele>167.9</ele>
        <time>2021-10-03T13:48:00Z</time>
      </trkpt>
      <trkpt lat="48.99989" lon="2.02157">
        <ele>167.1</ele>
        <time>2021-10-03T13:48:06Z</time>
      </trkpt>
      <trkpt lat="48.99994" lon="2.02164">
        <ele>166</ele>
        <time>2021-10-03T13:48:12Z</time>
      </trkpt>
      <trkpt lat="49" lon="2.02171">
        <ele>164.7</ele>
        <time>2021-10-03T13:48:18Z</time>
      </trkpt>
      <trkpt lat="49.00003" lon="2.02176">
        <ele>164.1</ele>
        <time>2021-10-03T13:48:23Z</time>
      </trkpt>
      <trkpt lat="49.00007" lon="2.02181">
        <ele>163.2</ele>
        <time>2021-10-03T13:48:28Z</time>
      </trkpt>
      <trkpt lat="49.00012" lon="2.02187">
        <ele>162.2</ele>
        <time>2021-10-03T13:48:33Z</time>
      </trkpt>
      <trkpt lat="49.00016" lon="2.02193">
        <ele>161.2</ele>
        <time>2021-10-03T13:48:39Z</time>
      </trkpt>
      <trkpt lat="49.0002" lon="2.022">
        <ele>160.3</ele>
        <time>2021-10-03T13:48:45Z</time>
      </trkpt>
      <trkpt lat="49.00023" lon="2.02205">
        <ele>159.5</ele>
        <time>2021-10-03T13:48:50Z</time>
      </trkpt>
      <trkpt lat="49.00028" lon="2.02213">
        <ele>158.2</ele>
        <time>2021-10-03T13:48:56Z</time>
      </trkpt>
      <trkpt lat="49.00034" lon="2.02218">
        <ele>156.9</ele>
        <time>2021-10-03T13:49:02Z</time>
      </trkpt>
      <trkpt lat="49.00037" lon="2.02221">
        <ele>156.2</ele>
        <time>2021-10-03T13:49:07Z</time>
      </trkpt>
      <trkpt lat="49.0004" lon="2.02225">
        <ele>155.4</ele>
        <time>2021-10-03T13:49:13Z</time>
      </trkpt>
      <trkpt lat="49.00043" lon="2.02231">
        <ele>154.6</ele>
        <time>2021-10-03T13:49:19Z</time>
      </trkpt>
      <trkpt lat="49.00045" lon="2.02236">
        <ele>153.8</ele>
        <time>2021-10-03T13:49:25Z</time>
      </trkpt>
      <trkpt lat="49.00048" lon="2.0224">
        <ele>153.1</ele>
        <time>2021-10-03T13:49:31Z</time>
      </trkpt>
      <trkpt lat="49.00051" lon="2.02242">
        <ele>152.4</ele>
        <time>2021-10-03T13:49:36Z</time>
      </trkpt>
      <trkpt lat="49.00055" lon="2.02248">
        <ele>151.2</ele>
        <time>2021-10-03T13:49:41Z</time>
      </trkpt>
      <trkpt lat="49.00061" lon="2.02254">
        <ele>149.7</ele>
        <time>2021-10-03T13:49:47Z</time>
      </trkpt>
      <trkpt lat="49.00065" lon="2.02261">
        <ele>148.6</ele>
        <time>2021-10-03T13:49:53Z</time>
      </trkpt>
      <trkpt lat="49.00069" lon="2.02268">
        <ele>147.4</ele>
        <time>2021-10-03T13:49:59Z</time>
      </trkpt>
      <trkpt lat="49.00071" lon="2.02274">
        <ele>146.6</ele>
        <time>2021-10-03T13:50:04Z</time>
      </trkpt>
      <trkpt lat="49.00075" lon="2.02277">
        <ele>145.7</ele>
        <time>2021-10-03T13:50:10Z</time>
      </trkpt>
      <trkpt lat="49.00079" lon="2.02283">
        <ele>144.8</ele>
        <time>2021-10-03T13:50:15Z</time>
      </trkpt>
      <trkpt lat="49.00082" lon="2.02289">
        <ele>143.8</ele>
        <time>2021-10-03T13:50:20Z</time>
      </trkpt>
      <trkpt lat="49.00087" lon="2.02294">
        <ele>142.9</ele>
        <time>2021-10-03T13:50:26Z</time>
      </trkpt>
      <trkpt lat="49.00094" lon="2.02301">
        <ele>141.8</ele>
        <time>2021-10-03T13:50:31Z</time>
      </trkpt>
      <trkpt lat="49.001" lon="2.02307">
        <ele>140.8</ele>
        <time>2021-10-03T13:50:37Z</time>
      </trkpt>
      <trkpt lat="49.00106" lon="2.02314">
        <ele>139.7</ele>
        <time>2021-10-03T13:50:43Z</time>
      </trkpt>
      <trkpt lat="49.00109" lon="2.02321">
        <ele>138.9</ele>
        <time>2021-10-03T13:50:48Z</time>
      </trkpt>
      <trkpt lat="49.00113" lon="2.02328">
        <ele>138.1</ele>
        <time>2021-10-03T13:50:54Z</time>
      </trkpt>
      <trkpt lat="49.00116" lon="2.02333">
        <ele>137.5</ele>
        <time>2021-10-03T13:50:59Z</time>
      </trkpt>
      <trkpt lat="49.0012" lon="2.0234">
        <ele>136.4</ele>
        <time>2021-10-03T13:51:05Z</time>
      </trkpt>
      <trkpt lat="49.00125" lon="2.02347">
        <ele>135.2</ele>
        <time>2021-10-03T13:51:11Z</time>
      </trkpt>
      <trkpt lat="49.00128" lon="2.02354">
        <ele>134.3</ele>
        <time>2021-10-03T13:51:17Z</time>
      </trkpt>
      <trkpt lat="49.00132" lon="2.02361">
        <ele>133.3</ele>
        <time>2021-10-03T13:51:23Z</time>
      </trkpt>
      <trkpt lat="49.00135" lon="2.02371">
        <ele>132</ele>
        <time>2021-10-03T13:51:29Z</time>
      </trkpt>
      <trkpt lat="49.00139" lon="2.02377">
        <ele>131</ele>
        <time>2021-10-03T13:51:35Z</time>
      </trkpt>
      <trkpt lat="49.00143" lon="2.02384">
        <ele>129.9</ele>
        <time>2021-10-03T13:51:41Z</time>
      </trkpt>
      <trkpt lat="49.00146" lon="2.02387">
        <ele>129.3</ele>
        <time>2021-10-03T13:51:46Z</time>
      </trkpt>
      <trkpt lat="49.00151" lon="2.02397">
        <ele>127.7</ele>
        <time>2021-10-03T13:51:52Z</time>
      </trkpt>
      <trkpt lat="49.00153" lon="2.02405">
        <ele>126.7</ele>
        <time>2021-10-03T13:51:57Z</time>
      </trkpt>
      <trkpt lat="49.00154" lon="2.02418">
        <ele>125.4</ele>
        <time>2021-10-03T13:52:03Z</time>
      </trkpt>
      <trkpt lat="49.00156" lon="2.02428">
        <ele>124</ele>
        <time>2021-10-03T13:52:09Z</time>
      </trkpt>
      <trkpt lat="49.0016" lon="2.02437">
        <ele>122.7</ele>
        <time>2021-10-03T13:52:15Z</time>
      </trkpt>
      <trkpt lat="49.00163" lon="2.02442">
        <ele>121.7</ele>
        <time>2021-10-03T13:52:21Z</time>
      </trkpt>
      <trkpt lat="49.00155" lon="2.02439">
        <ele>123</ele>
        <time>2021-10-03T13:52:26Z</time>
      </trkpt>
      <trkpt lat="49.00149" lon="2.02438">
        <ele>124</ele>
        <time>2021-10-03T13:52:31Z</time>
      </trkpt>
      <trkpt lat="49.00146" lon="2.02434">
        <ele>124.7</ele>
        <time>2021-10-03T13:52:37Z</time>
      </trkpt>
      <trkpt lat="49.00146" lon="2.02435">
        <ele>124.7</ele>
        <time>2021-10-03T13:52:43Z</time>
      </trkpt>
      <trkpt lat="49.00146" lon="2.02434">
        <ele>124.7</ele>
        <time>2021-10-03T13:52:49Z</time>
      </trkpt>
      <trkpt lat="49.00146" lon="2.02433">
        <ele>124.8</ele>
        <time>2021-10-03T13:52:55Z</time>
      </trkpt>
      <trkpt lat="49.00146" lon="2.02434">
        <ele>124.8</ele>
        <time>2021-10-03T13:53:01Z</time>
      </trkpt>
      <trkpt lat="49.00147" lon="2.02439">
        <ele>124.1</ele>
        <time>2021-10-03T13:53:06Z</time>
      </trkpt>
      <trkpt lat="49.00151" lon="2.02446">
        <ele>122.9</ele>
        <time>2021-10-03T13:53:11Z</time>
      </trkpt>
      <trkpt lat="49.00153" lon="2.0245">
        <ele>122.1</ele>
        <time>2021-10-03T13:53:16Z</time>
      </trkpt>
      <trkpt lat="49.00152" lon="2.02447">
        <ele>122.6</ele>
        <time>2021-10-03T13:53:21Z</time>
      </trkpt>
      <trkpt lat="49.00152" lon="2.02449">
        <ele>122.4</ele>
        <time>2021-10-03T13:53:27Z</time>
      </trkpt>
      <trkpt lat="49.00152" lon="2.02449">
        <ele>122.5</ele>
        <time>2021-10-03T13:53:33Z</time>
      </trkpt>
      <trkpt lat="49.00151" lon="2.02449">
        <ele>122.5</ele>
        <time>2021-10-03T13:53:39Z</time>
      </trkpt>
      <trkpt lat="49.00151" lon="2.02449">
        <ele>122.5</ele>
        <time>2021-10-03T13:53:44Z</time>
      </trkpt>
      <trkpt lat="49.00149" lon="2.02451">
        <ele>122.6</ele>
        <time>2021-10-03T13:53:49Z</time>
      </trkpt>
      <trkpt lat="49.00149" lon="2.0245">
        <ele>122.6</ele>
        <time>2021-10-03T13:53:55Z</time>
      </trkpt>
      <trkpt lat="49.00149" lon="2.0245">
        <ele>122.6</ele>
        <time>2021-10-03T13:54:00Z</time>
      </trkpt>
      <trkpt lat="49.00149" lon="2.0245">
        <ele>122.6</ele>
        <time>2021-10-03T13:54:05Z</time>
      </trkpt>
      <trkpt lat="49.00149" lon="2.0245">
        <ele>122.6</ele>
        <time>2021-10-03T13:54:11Z</time>
      </trkpt>
      <trkpt lat="49.00149" lon="2.0245">
        <ele>122.6</ele>
        <time>2021-10-03T13:54:16Z</time>
      </trkpt>
      <trkpt lat="49.00149" lon="2.0245">
        <ele>122.6</ele>
        <time>2021-10-03T13:54:21Z</time>
      </trkpt>
      <trkpt lat="49.00149" lon="2.0245">
        <ele>122.6</ele>
        <time>2021-10-03T13:54:26Z</time>
      </trkpt>
      <trkpt lat="49.00149" lon="2.0245">
        <ele>122.6</ele>
        <time>2021-10-03T13:54:32Z</time>
      </trkpt>
      <trkpt lat="49.00149" lon="2.0245">
        <ele>122.6</ele>
        <time>2021-10-03T13:54:37Z</time>
      </trkpt>
      <trkpt lat="49.00149" lon="2.0245">
        <ele>122.6</ele>
        <time>2021-10-03T13:54:43Z</time>
      </trkpt>
      <trkpt lat="49.0015" lon="2.0245">
        <ele>122.6</ele>
        <time>2021-10-03T13:54:49Z</time>
      </trkpt>
      <trkpt lat="49.00151" lon="2.0245">
        <ele>122.4</ele>
        <time>2021-10-03T13:54:54Z</time>
      </trkpt>
      <trkpt lat="49.00152" lon="2.02451">
        <ele>122.3</ele>
        <time>2021-10-03T13:54:59Z</time>
      </trkpt>
      <trkpt lat="49.00152" lon="2.02451">
        <ele>122.3</ele>
        <time>2021-10-03T13:55:05Z</time>
      </trkpt>
      <trkpt lat="49.00151" lon="2.02451">
        <ele>122.3</ele>
        <time>2021-10-03T13:55:11Z</time>
      </trkpt>
      <trkpt lat="49.00152" lon="2.0245">
        <ele>122.2</ele>
        <time>2021-10-03T13:55:16Z</time>
      </trkpt>
      <trkpt lat="49.00152" lon="2.0245">
        <ele>122.3</ele>
        <time>2021-10-03T13:55:22Z</time>
      </trkpt>
      <trkpt lat="49.00152" lon="2.0245">
        <ele>122.3</ele>
        <time>2021-10-03T13:55:27Z</time>
      </trkpt>
      <trkpt lat="49.00152" lon="2.0245">
        <ele>122.3</ele>
        <time>2021-10-03T13:55:33Z</time>
      </trkpt>
      <trkpt lat="49.00152" lon="2.0245">
        <ele>122.3</ele>
        <time>2021-10-03T13:55:38Z</time>
      </trkpt>
      <trkpt lat="49.00152" lon="2.0245">
        <ele>122.3</ele>
        <time>2021-10-03T13:55:44Z</time>
      </trkpt>
      <trkpt lat="49.00152" lon="2.0245">
        <ele>122.3</ele>
        <time>2021-10-03T13:55:50Z</time>
      </trkpt>
      <trkpt lat="49.00152" lon="2.0245">
        <ele>122.3</ele>
        <time>2021-10-03T13:55:56Z</time>
      </trkpt>
      <trkpt lat="49.00152" lon="2.0245">
        <ele>122.3</ele>
        <time>2021-10-03T13:56:02Z</time>
      </trkpt>
      <trkpt lat="49.00152" lon="2.0245">
        <ele>122.3</ele>
        <time>2021-10-03T13:56:08Z</time>
      </trkpt>
      <trkpt lat="49.00152" lon="2.0245">
        <ele>122.3</ele>
        <time>2021-10-03T13:56:13Z</time>
      </trkpt>
      <trkpt lat="49.00152" lon="2.0245">
        <ele>122.3</ele>
        <time>2021-10-03T13:56:19Z</time>
      </trkpt>
      <trkpt lat="49.00151" lon="2.02451">
        <ele>122.3</ele>
        <time>2021-10-03T13:56:24Z</time>
      </trkpt>
      <trkpt lat="49.00152" lon="2.02452">
        <ele>122</ele>
        <time>2021-10-03T13:56:30Z</time>
      </trkpt>
      <trkpt lat="49.00153" lon="2.02452">
        <ele>122</ele>
        <time>2021-10-03T13:56:36Z</time>
      </trkpt>
      <trkpt lat="49.00153" lon="2.02452">
        <ele>122</ele>
        <time>2021-10-03T13:56:42Z</time>
      </trkpt>
      <trkpt lat="49.00153" lon="2.02452">
        <ele>122</ele>
        <time>2021-10-03T13:56:47Z</time>
      </trkpt>
      <trkpt lat="49.00153" lon="2.02452">
        <ele>122</ele>
        <time>2021-10-03T13:56:53Z</time>
      </trkpt>
      <trkpt lat="49.00153" lon="2.02452">
        <ele>122</ele>
        <time>2021-10-03T13:56:58Z</time>
      </trkpt>
      <trkpt lat="49.00153" lon="2.02452">
        <ele>122</ele>
        <time>2021-10-03T13:57:03Z</time>
      </trkpt>
      <trkpt lat="49.00153" lon="2.02452">
        <ele>122</ele>
        <time>2021-10-03T13:57:09Z</time>
      </trkpt>
      <trkpt lat="49.00152" lon="2.02452">
        <ele>122</ele>
        <time>2021-10-03T13:57:15Z</time>
      </trkpt>
      <trkpt lat="49.00152" lon="2.02452">
        <ele>122</ele>
        <time>2021-10-03T13:57:21Z</time>
      </trkpt>
      <trkpt lat="49.00152" lon="2.02452">
        <ele>122</ele>
        <time>2021-10-03T13:57:26Z</time>
      </trkpt>
      <trkpt lat="49.00152" lon="2.02452">
        <ele>122</ele>
        <time>2021-10-03T13:57:31Z</time>
      </trkpt>
      <trkpt lat="49.00152" lon="2.02452">
        <ele>122</ele>
        <time>2021-10-03T13:57:37Z</time>
      </trkpt>
      <trkpt lat="49.00152" lon="2.02452">
        <ele>122</ele>
        <time>2021-10-03T13:57:43Z</time>
      </trkpt>
      <trkpt lat="49.00152" lon="2.02452">
        <ele>122</ele>
        <time>2021-10-03T13:57:48Z</time>
      </trkpt>
      <trkpt lat="49.00152" lon="2.02452">
        <ele>122</ele>
        <time>2021-10-03T13:57:53Z</time>
      </trkpt>
      <trkpt lat="49.00152" lon="2.02453">
        <ele>122</ele>
        <time>2021-10-03T13:57:58Z</time>
      </trkpt>
      <trkpt lat="49.00152" lon="2.02456">
        <ele>121.7</ele>
        <time>2021-10-03T13:58:04Z</time>
      </trkpt>
      <trkpt lat="49.00151" lon="2.02457">
        <ele>121.7</ele>
        <time>2021-10-03T13:58:10Z</time>
      </trkpt>
      <trkpt lat="49.00151" lon="2.02458">
        <ele>121.6</ele>
        <time>2021-10-03T13:58:16Z</time>
      </trkpt>
      <trkpt lat="49.00151" lon="2.02458">
        <ele>121.6</ele>
        <time>2021-10-03T13:58:22Z</time>
      </trkpt>
      <trkpt lat="49.00151" lon="2.02458">
        <ele>121.7</ele>
        <time>2021-10-03T13:58:27Z</time>
      </trkpt>
      <trkpt lat="49.00151" lon="2.02457">
        <ele>121.7</ele>
        <time>2021-10-03T13:58:33Z</time>
      </trkpt>
      <trkpt lat="49.0015" lon="2.02456">
        <ele>121.9</ele>
        <time>2021-10-03T13:58:39Z</time>
      </trkpt>
      <trkpt lat="49.00149" lon="2.02455">
        <ele>122.2</ele>
        <time>2021-10-03T13:58:44Z</time>
      </trkpt>
      <trkpt lat="49.00148" lon="2.02455">
        <ele>122.2</ele>
        <time>2021-10-03T13:58:50Z</time>
      </trkpt>
      <trkpt lat="49.00148" lon="2.02455">
        <ele>122.2</ele>
        <time>2021-10-03T13:58:56Z</time>
      </trkpt>
      <trkpt lat="49.00148" lon="2.02456">
        <ele>122.2</ele>
        <time>2021-10-03T13:59:01Z</time>
      </trkpt>
      <trkpt lat="49.00148" lon="2.02456">
        <ele>122.2</ele>
        <time>2021-10-03T13:59:07Z</time>
      </trkpt>
      <trkpt lat="49.00148" lon="2.02456">
        <ele>122.2</ele>
        <time>2021-10-03T13:59:13Z</time>
      </trkpt>
      <trkpt lat="49.00148" lon="2.02456">
        <ele>122.2</ele>
        <time>2021-10-03T13:59:19Z</time>
      </trkpt>
      <trkpt lat="49.00148" lon="2.02456">
        <ele>122.2</ele>
        <time>2021-10-03T13:59:25Z</time>
      </trkpt>
      <trkpt lat="49.00148" lon="2.02456">
        <ele>122.2</ele>
        <time>2021-10-03T13:59:31Z</time>
      </trkpt>
      <trkpt lat="49.00148" lon="2.02456">
        <ele>122.2</ele>
        <time>2021-10-03T13:59:36Z</time>
      </trkpt>
      <trkpt lat="49.00148" lon="2.02456">
        <ele>122.2</ele>
        <time>2021-10-03T13:59:42Z</time>
      </trkpt>
      <trkpt lat="49.00148" lon="2.02456">
        <ele>122.2</ele>
        <time>2021-10-03T13:59:48Z</time>
      </trkpt>
      <trkpt lat="49.00148" lon="2.02456">
        <ele>122.2</ele>
        <time>2021-10-03T13:59:54Z</time>
      </trkpt>
      <trkpt lat="49.00148" lon="2.02456">
        <ele>122.2</ele>
        <time>2021-10-03T13:59:59Z</time>
      </trkpt>
      <trkpt lat="49.00148" lon="2.02456">
        <ele>122.2</ele>
        <time>2021-10-03T14:00:05Z</time>
      </trkpt>
      <trkpt lat="49.00148" lon="2.02456">
        <ele>122.2</ele>
        <time>2021-10-03T14:00:10Z</time>
      </trkpt>
      <trkpt lat="49.00148" lon="2.02456">
        <ele>122.2</ele>
        <time>2021-10-03T14:00:15Z</time>
      </trkpt>
      <trkpt lat="49.00148" lon="2.02456">
        <ele>122.2</ele>
        <time>2021-10-03T14:00:21Z</time>
      </trkpt>
      <trkpt lat="49.00148" lon="2.02456">
        <ele>122.2</ele>
        <time>2021-10-03T14:00:27Z</time>
      </trkpt>
      <trkpt lat="49.00148" lon="2.02456">
        <ele>122.2</ele>
        <time>2021-10-03T14:00:33Z</time>
      </trkpt>
      <trkpt lat="49.00148" lon="2.02456">
        <ele>122.2</ele>
        <time>2021-10-03T14:00:39Z</time>
      </trkpt>
      <trkpt lat="49.00148" lon="2.02456">
        <ele>122.2</ele>
        <time>2021-10-03T14:00:44Z</time>
      </trkpt>
      <trkpt lat="49.00148" lon="2.02456">
        <ele>122.2</ele>
        <time>2021-10-03T14:00:50Z</time>
      </trkpt>
      <trkpt lat="49.00148" lon="2.02456">
        <ele>122.2</ele>
        <time>2021-10-03T14:00:55Z</time>
      </trkpt>
      <trkpt lat="49.00148" lon="2.02456">
        <ele>122.2</ele>
        <time>2021-10-03T14:01:01Z</time>
      </trkpt>
      <trkpt lat="49.00148" lon="2.02456">
        <ele>122.2</ele>
        <time>2021-10-03T14:01:07Z</time>
      </trkpt>
      <trkpt lat="49.00148" lon="2.02456">
        <ele>122.2</ele>
        <time>2021-10-03T14:01:13Z</time>
      </trkpt>
      <trkpt lat="49.00148" lon="2.02456">
        <ele>122.2</ele>
        <time>2021-10-03T14:01:18Z</time>
      </trkpt>
      <trkpt lat="49.00148" lon="2.02456">
        <ele>122.2</ele>
        <time>2021-10-03T14:01:24Z</time>
      </trkpt>
      <trkpt lat="49.00148" lon="2.02456">
        <ele>122.2</ele>
        <time>2021-10-03T14:01:30Z</time>
      </trkpt>
      <trkpt lat="49.00148" lon="2.02456">
        <ele>122.2</ele>
        <time>2021-10-03T14:01:36Z</time>
      </trkpt>
      <trkpt lat="49.00148" lon="2.02456">
        <ele>122.2</ele>
        <time>2021-10-03T14:01:42Z</time>
      </trkpt>
      <trkpt lat="49.00148" lon="2.02456">
        <ele>122.2</ele>
        <time>2021-10-03T14:01:47Z</time>
      </trkpt>
      <trkpt lat="49.00148" lon="2.02456">
        <ele>122.2</ele>
        <time>2021-10-03T14:01:53Z</time>
      </trkpt>
      <trkpt lat="49.00148" lon="2.02456">
        <ele>122.2</ele>
        <time>2021-10-03T14:01:59Z</time>
      </trkpt>
      <trkpt lat="49.00148" lon="2.02456">
        <ele>122.2</ele>
        <time>2021-10-03T14:02:05Z</time>
      </trkpt>
      <trkpt lat="49.00148" lon="2.02456">
        <ele>122.2</ele>
        <time>2021-10-03T14:02:11Z</time>
      </trkpt>
      <trkpt lat="49.00147" lon="2.02458">
        <ele>122.1</ele>
        <time>2021-10-03T14:02:16Z</time>
      </trkpt>
      <trkpt lat="49.00149" lon="2.02463">
        <ele>121.3</ele>
        <time>2021-10-03T14:02:22Z</time>
      </trkpt>
      <trkpt lat="49.00152" lon="2.0247">
        <ele>120.2</ele>
        <time>2021-10-03T14:02:27Z</time>
      </trkpt>
      <trkpt lat="49.00157" lon="2.02477">
        <ele>118.8</ele>
        <time>2021-10-03T14:02:33Z</time>
      </trkpt>
      <trkpt lat="49.00159" lon="2.02485">
        <ele>117.7</ele>
        <time>2021-10-03T14:02:39Z</time>
      </trkpt>
      <trkpt lat="49.00162" lon="2.0249">
        <ele>116.8</ele>
        <time>2021-10-03T14:02:44Z</time>
      </trkpt>
      <trkpt lat="49.00164" lon="2.02498">
        <ele>115.6</ele>
        <time>2021-10-03T14:02:50Z</time>
      </trkpt>
      <trkpt lat="49.00166" lon="2.02505">
        <ele>114.9</ele>
        <time>2021-10-03T14:02:55Z</time>
      </trkpt>
      <trkpt lat="49.0017" lon="2.02512">
        <ele>114.5</ele>
        <time>2021-10-03T14:03:00Z</time>
      </trkpt>
      <trkpt lat="49.00174" lon="2.02521">
        <ele>114</ele>
        <time>2021-10-03T14:03:06Z</time>
      </trkpt>
      <trkpt lat="49.00178" lon="2.02529">
        <ele>113.5</ele>
        <time>2021-10-03T14:03:12Z</time>
      </trkpt>
      <trkpt lat="49.00183" lon="2.02536">
        <ele>113.1</ele>
        <time>2021-10-03T14:03:17Z</time>
      </trkpt>
      <trkpt lat="49.00187" lon="2.02541">
        <ele>112.8</ele>
        <time>2021-10-03T14:03:22Z</time>
      </trkpt>
      <trkpt lat="49.00192" lon="2.02548">
        <ele>112.4</ele>
        <time>2021-10-03T14:03:28Z</time>
      </trkpt>
      <trkpt lat="49.00197" lon="2.02553">
        <ele>112</ele>
        <time>2021-10-03T14:03:34Z</time>
      </trkpt>
      <trkpt lat="49.00202" lon="2.02557">
        <ele>111.7</ele>
        <time>2021-10-03T14:03:39Z</time>
      </trkpt>
      <trkpt lat="49.00209" lon="2.02562">
        <ele>111.3</ele>
        <time>2021-10-03T14:03:45Z</time>
      </trkpt>
      <trkpt lat="49.00214" lon="2.02566">
        <ele>110.9</ele>
        <time>2021-10-03T14:03:50Z</time>
      </trkpt>
      <trkpt lat="49.00222" lon="2.02569">
        <ele>110.5</ele>
        <time>2021-10-03T14:03:56Z</time>
      </trkpt>
      <trkpt lat="49.00229" lon="2.02576">
        <ele>110</ele>
        <time>2021-10-03T14:04:02Z</time>
      </trkpt>
      <trkpt lat="49.00235" lon="2.02581">
        <ele>109.6</ele>
        <time>2021-10-03T14:04:07Z</time>
      </trkpt>
      <trkpt lat="49.0024" lon="2.02584">
        <ele>109.3</ele>
        <time>2021-10-03T14:04:12Z</time>
      </trkpt>
      <trkpt lat="49.00247" lon="2.02589">
        <ele>108.9</ele>
        <time>2021-10-03T14:04:17Z</time>
      </trkpt>
      <trkpt lat="49.00254" lon="2.02595">
        <ele>108.3</ele>
        <time>2021-10-03T14:04:23Z</time>
      </trkpt>
      <trkpt lat="49.00261" lon="2.02601">
        <ele>107.9</ele>
        <time>2021-10-03T14:04:28Z</time>
      </trkpt>
      <trkpt lat="49.00266" lon="2.02607">
        <ele>107.5</ele>
        <time>2021-10-03T14:04:34Z</time>
      </trkpt>
      <trkpt lat="49.00272" lon="2.02613">
        <ele>107.1</ele>
        <time>2021-10-03T14:04:40Z</time>
      </trkpt>
      <trkpt lat="49.00278" lon="2.0262">
        <ele>106.7</ele>
        <time>2021-10-03T14:04:46Z</time>
      </trkpt>
      <trkpt lat="49.00284" lon="2.02624">
        <ele>106.4</ele>
        <time>2021-10-03T14:04:51Z</time>
      </trkpt>
      <trkpt lat="49.00289" lon="2.02629">
        <ele>106.1</ele>
        <time>2021-10-03T14:04:56Z</time>
      </trkpt>
      <trkpt lat="49.00295" lon="2.02635">
        <ele>105.8</ele>
        <time>2021-10-03T14:05:01Z</time>
      </trkpt>
      <trkpt lat="49.003" lon="2.0264">
        <ele>105.5</ele>
        <time>2021-10-03T14:05:06Z</time>
      </trkpt>
      <trkpt lat="49.00307" lon="2.02647">
        <ele>105.1</ele>
        <time>2021-10-03T14:05:12Z</time>
      </trkpt>
      <trkpt lat="49.00313" lon="2.02653">
        <ele>104.8</ele>
        <time>2021-10-03T14:05:18Z</time>
      </trkpt>
      <trkpt lat="49.00318" lon="2.02659">
        <ele>104.5</ele>
        <time>2021-10-03T14:05:23Z</time>
      </trkpt>
      <trkpt lat="49.00325" lon="2.02668">
        <ele>104</ele>
        <time>2021-10-03T14:05:29Z</time>
      </trkpt>
      <trkpt lat="49.00331" lon="2.02677">
        <ele>103.4</ele>
        <time>2021-10-03T14:05:35Z</time>
      </trkpt>
      <trkpt lat="49.00336" lon="2.02686">
        <ele>102.8</ele>
        <time>2021-10-03T14:05:41Z</time>
      </trkpt>
      <trkpt lat="49.0034" lon="2.02693">
        <ele>102.4</ele>
        <time>2021-10-03T14:05:46Z</time>
      </trkpt>
      <trkpt lat="49.00345" lon="2.02702">
        <ele>101.8</ele>
        <time>2021-10-03T14:05:52Z</time>
      </trkpt>
      <trkpt lat="49.00349" lon="2.0271">
        <ele>101.3</ele>
        <time>2021-10-03T14:05:57Z</time>
      </trkpt>
      <trkpt lat="49.00352" lon="2.02718">
        <ele>100.8</ele>
        <time>2021-10-03T14:06:03Z</time>
      </trkpt>
      <trkpt lat="49.00356" lon="2.02727">
        <ele>100.3</ele>
        <time>2021-10-03T14:06:08Z</time>
      </trkpt>
      <trkpt lat="49.0036" lon="2.02738">
        <ele>99.7</ele>
        <time>2021-10-03T14:06:14Z</time>
      </trkpt>
      <trkpt lat="49.00362" lon="2.02748">
        <ele>99.1</ele>
        <time>2021-10-03T14:06:20Z</time>
      </trkpt>
      <trkpt lat="49.00362" lon="2.02755">
        <ele>98.8</ele>
        <time>2021-10-03T14:06:25Z</time>
      </trkpt>
      <trkpt lat="49.00366" lon="2.02763">
        <ele>98.6</ele>
        <time>2021-10-03T14:06:30Z</time>
      </trkpt>
      <trkpt lat="49.0037" lon="2.02773">
        <ele>98.3</ele>
        <time>2021-10-03T14:06:35Z</time>
      </trkpt>
      <trkpt lat="49.00374" lon="2.02783">
        <ele>98</ele>
        <time>2021-10-03T14:06:41Z</time>
      </trkpt>
      <trkpt lat="49.00378" lon="2.02791">
        <ele>97.8</ele>
        <time>2021-10-03T14:06:46Z</time>
      </trkpt>
      <trkpt lat="49.0038" lon="2.028">
        <ele>97.5</ele>
        <time>2021-10-03T14:06:51Z</time>
      </trkpt>
      <trkpt lat="49.00383" lon="2.02811">
        <ele>97.2</ele>
        <time>2021-10-03T14:06:57Z</time>
      </trkpt>
      <trkpt lat="49.00386" lon="2.02821">
        <ele>97</ele>
        <time>2021-10-03T14:07:02Z</time>
      </trkpt>
      <trkpt lat="49.00389" lon="2.02832">
        <ele>96.7</ele>
        <time>2021-10-03T14:07:08Z</time>
      </trkpt>
      <trkpt lat="49.0039" lon="2.0284">
        <ele>96.4</ele>
        <time>2021-10-03T14:07:13Z</time>
      </trkpt>
      <trkpt lat="49.00385" lon="2.0285">
        <ele>95.9</ele>
        <time>2021-10-03T14:07:19Z</time>
      </trkpt>
      <trkpt lat="49.00378" lon="2.02854">
        <ele>95.7</ele>
        <time>2021-10-03T14:07:25Z</time>
      </trkpt>
      <trkpt lat="49.00371" lon="2.0286">
        <ele>95.4</ele>
        <time>2021-10-03T14:07:30Z</time>
      </trkpt>
      <trkpt lat="49.00363" lon="2.02866">
        <ele>95</ele>
        <time>2021-10-03T14:07:36Z</time>
      </trkpt>
      <trkpt lat="49.00358" lon="2.0287">
        <ele>94.8</ele>
        <time>2021-10-03T14:07:41Z</time>
      </trkpt>
      <trkpt lat="49.00351" lon="2.02874">
        <ele>94.6</ele>
        <time>2021-10-03T14:07:46Z</time>
      </trkpt>
      <trkpt lat="49.00344" lon="2.02879">
        <ele>94.4</ele>
        <time>2021-10-03T14:07:52Z</time>
      </trkpt>
      <trkpt lat="49.00339" lon="2.02883">
        <ele>94.3</ele>
        <time>2021-10-03T14:07:57Z</time>
      </trkpt>
      <trkpt lat="49.00332" lon="2.02888">
        <ele>94.1</ele>
        <time>2021-10-03T14:08:03Z</time>
      </trkpt>
      <trkpt lat="49.00325" lon="2.02895">
        <ele>94.3</ele>
        <time>2021-10-03T14:08:09Z</time>
      </trkpt>
      <trkpt lat="49.00319" lon="2.02901">
        <ele>94.5</ele>
        <time>2021-10-03T14:08:14Z</time>
      </trkpt>
      <trkpt lat="49.00312" lon="2.02907">
        <ele>94.8</ele>
        <time>2021-10-03T14:08:20Z</time>
      </trkpt>
      <trkpt lat="49.00305" lon="2.02914">
        <ele>95.1</ele>
        <time>2021-10-03T14:08:26Z</time>
      </trkpt>
      <trkpt lat="49.00299" lon="2.0292">
        <ele>95.5</ele>
        <time>2021-10-03T14:08:31Z</time>
      </trkpt>
      <trkpt lat="49.00291" lon="2.02925">
        <ele>96.1</ele>
        <time>2021-10-03T14:08:37Z</time>
      </trkpt>
      <trkpt lat="49.00286" lon="2.02932">
        <ele>96.5</ele>
        <time>2021-10-03T14:08:42Z</time>
      </trkpt>
      <trkpt lat="49.00281" lon="2.02938">
        <ele>97</ele>
        <time>2021-10-03T14:08:47Z</time>
      </trkpt>
      <trkpt lat="49.00274" lon="2.02944">
        <ele>97.5</ele>
        <time>2021-10-03T14:08:52Z</time>
      </trkpt>
      <trkpt lat="49.00267" lon="2.02952">
        <ele>98.1</ele>
        <time>2021-10-03T14:08:58Z</time>
      </trkpt>
      <trkpt lat="49.00262" lon="2.02957">
        <ele>98.5</ele>
        <time>2021-10-03T14:09:03Z</time>
      </trkpt>
      <trkpt lat="49.00257" lon="2.02963">
        <ele>99</ele>
        <time>2021-10-03T14:09:09Z</time>
      </trkpt>
      <trkpt lat="49.00251" lon="2.02969">
        <ele>99.5</ele>
        <time>2021-10-03T14:09:14Z</time>
      </trkpt>
      <trkpt lat="49.00246" lon="2.02974">
        <ele>100</ele>
        <time>2021-10-03T14:09:19Z</time>
      </trkpt>
      <trkpt lat="49.00241" lon="2.02979">
        <ele>100.4</ele>
        <time>2021-10-03T14:09:24Z</time>
      </trkpt>
      <trkpt lat="49.00236" lon="2.02985">
        <ele>100.8</ele>
        <time>2021-10-03T14:09:29Z</time>
      </trkpt>
      <trkpt lat="49.00231" lon="2.02992">
        <ele>101.1</ele>
        <time>2021-10-03T14:09:35Z</time>
      </trkpt>
      <trkpt lat="49.00224" lon="2.03">
        <ele>101.6</ele>
        <time>2021-10-03T14:09:41Z</time>
      </trkpt>
      <trkpt lat="49.00217" lon="2.03006">
        <ele>101.8</ele>
        <time>2021-10-03T14:09:47Z</time>
      </trkpt>
      <trkpt lat="49.00212" lon="2.03013">
        <ele>102</ele>
        <time>2021-10-03T14:09:52Z</time>
      </trkpt>
      <trkpt lat="49.00207" lon="2.03019">
        <ele>102.2</ele>
        <time>2021-10-03T14:09:57Z</time>
      </trkpt>
      <trkpt lat="49.00202" lon="2.03025">
        <ele>102.4</ele>
        <time>2021-10-03T14:10:03Z</time>
      </trkpt>
      <trkpt lat="49.00198" lon="2.03031">
        <ele>102.5</ele>
        <time>2021-10-03T14:10:08Z</time>
      </trkpt>
      <trkpt lat="49.00191" lon="2.03038">
        <ele>102.8</ele>
        <time>2021-10-03T14:10:14Z</time>
      </trkpt>
      <trkpt lat="49.00185" lon="2.03046">
        <ele>102.9</ele>
        <time>2021-10-03T14:10:20Z</time>
      </trkpt>
      <trkpt lat="49.00179" lon="2.03055">
        <ele>103.1</ele>
        <time>2021-10-03T14:10:25Z</time>
      </trkpt>
      <trkpt lat="49.00171" lon="2.03062">
        <ele>103.3</ele>
        <time>2021-10-03T14:10:31Z</time>
      </trkpt>
      <trkpt lat="49.00164" lon="2.03067">
        <ele>103.5</ele>
        <time>2021-10-03T14:10:37Z</time>
      </trkpt>
      <trkpt lat="49.00157" lon="2.03072">
        <ele>103.5</ele>
        <time>2021-10-03T14:10:43Z</time>
      </trkpt>
      <trkpt lat="49.0015" lon="2.03076">
        <ele>103.6</ele>
        <time>2021-10-03T14:10:49Z</time>
      </trkpt>
      <trkpt lat="49.00145" lon="2.0308">
        <ele>103.6</ele>
        <time>2021-10-03T14:10:55Z</time>
      </trkpt>
      <trkpt lat="49.00138" lon="2.03085">
        <ele>103.6</ele>
        <time>2021-10-03T14:11:00Z</time>
      </trkpt>
      <trkpt lat="49.00132" lon="2.03089">
        <ele>103.7</ele>
        <time>2021-10-03T14:11:05Z</time>
      </trkpt>
      <trkpt lat="49.00124" lon="2.03094">
        <ele>103.7</ele>
        <time>2021-10-03T14:11:11Z</time>
      </trkpt>
      <trkpt lat="49.00118" lon="2.03099">
        <ele>103.7</ele>
        <time>2021-10-03T14:11:16Z</time>
      </trkpt>
      <trkpt lat="49.00111" lon="2.03105">
        <ele>103.7</ele>
        <time>2021-10-03T14:11:22Z</time>
      </trkpt>
      <trkpt lat="49.00103" lon="2.0311">
        <ele>103.6</ele>
        <time>2021-10-03T14:11:28Z</time>
      </trkpt>
      <trkpt lat="49.00096" lon="2.03114">
        <ele>103.7</ele>
        <time>2021-10-03T14:11:34Z</time>
      </trkpt>
      <trkpt lat="49.0009" lon="2.03117">
        <ele>103.7</ele>
        <time>2021-10-03T14:11:39Z</time>
      </trkpt>
      <trkpt lat="49.00083" lon="2.03123">
        <ele>103.6</ele>
        <time>2021-10-03T14:11:45Z</time>
      </trkpt>
      <trkpt lat="49.00075" lon="2.03129">
        <ele>103.9</ele>
        <time>2021-10-03T14:11:51Z</time>
      </trkpt>
      <trkpt lat="49.00067" lon="2.03134">
        <ele>104.3</ele>
        <time>2021-10-03T14:11:57Z</time>
      </trkpt>
      <trkpt lat="49.00061" lon="2.03139">
        <ele>104.5</ele>
        <time>2021-10-03T14:12:02Z</time>
      </trkpt>
      <trkpt lat="49.00056" lon="2.03143">
        <ele>104.8</ele>
        <time>2021-10-03T14:12:08Z</time>
      </trkpt>
      <trkpt lat="49.00049" lon="2.03149">
        <ele>105</ele>
        <time>2021-10-03T14:12:14Z</time>
      </trkpt>
      <trkpt lat="49.00046" lon="2.03151">
        <ele>105.1</ele>
        <time>2021-10-03T14:12:20Z</time>
      </trkpt>
      <trkpt lat="49.00041" lon="2.03152">
        <ele>105.5</ele>
        <time>2021-10-03T14:12:26Z</time>
      </trkpt>
      <trkpt lat="49.00032" lon="2.03151">
        <ele>106.1</ele>
        <time>2021-10-03T14:12:32Z</time>
      </trkpt>
      <trkpt lat="49.00024" lon="2.03155">
        <ele>106.6</ele>
        <time>2021-10-03T14:12:37Z</time>
      </trkpt>
      <trkpt lat="49.00016" lon="2.03162">
        <ele>107</ele>
        <time>2021-10-03T14:12:42Z</time>
      </trkpt>
      <trkpt lat="49.00008" lon="2.03168">
        <ele>107.4</ele>
        <time>2021-10-03T14:12:47Z</time>
      </trkpt>
      <trkpt lat="48.99999" lon="2.03178">
        <ele>107.1</ele>
        <time>2021-10-03T14:12:53Z</time>
      </trkpt>
      <trkpt lat="48.99993" lon="2.03189">
        <ele>106.3</ele>
        <time>2021-10-03T14:12:58Z</time>
      </trkpt>
      <trkpt lat="48.99989" lon="2.03204">
        <ele>105.3</ele>
        <time>2021-10-03T14:13:04Z</time>
      </trkpt>
      <trkpt lat="48.99988" lon="2.03216">
        <ele>104.6</ele>
        <time>2021-10-03T14:13:10Z</time>
      </trkpt>
      <trkpt lat="48.99987" lon="2.03229">
        <ele>103.9</ele>
        <time>2021-10-03T14:13:15Z</time>
      </trkpt>
      <trkpt lat="48.99987" lon="2.03239">
        <ele>103.2</ele>
        <time>2021-10-03T14:13:20Z</time>
      </trkpt>
      <trkpt lat="48.99988" lon="2.03252">
        <ele>102.5</ele>
        <time>2021-10-03T14:13:26Z</time>
      </trkpt>
      <trkpt lat="48.99985" lon="2.03265">
        <ele>102.2</ele>
        <time>2021-10-03T14:13:32Z</time>
      </trkpt>
      <trkpt lat="48.99984" lon="2.03275">
        <ele>102</ele>
        <time>2021-10-03T14:13:37Z</time>
      </trkpt>
      <trkpt lat="48.99983" lon="2.03288">
        <ele>101.7</ele>
        <time>2021-10-03T14:13:43Z</time>
      </trkpt>
      <trkpt lat="48.99982" lon="2.033">
        <ele>101.3</ele>
        <time>2021-10-03T14:13:49Z</time>
      </trkpt>
      <trkpt lat="48.9998" lon="2.03311">
        <ele>101.1</ele>
        <time>2021-10-03T14:13:54Z</time>
      </trkpt>
      <trkpt lat="48.99978" lon="2.03321">
        <ele>100.9</ele>
        <time>2021-10-03T14:13:59Z</time>
      </trkpt>
      <trkpt lat="48.99976" lon="2.03333">
        <ele>100.7</ele>
        <time>2021-10-03T14:14:05Z</time>
      </trkpt>
      <trkpt lat="48.99975" lon="2.03345">
        <ele>100.6</ele>
        <time>2021-10-03T14:14:10Z</time>
      </trkpt>
      <trkpt lat="48.99973" lon="2.03358">
        <ele>100.5</ele>
        <time>2021-10-03T14:14:16Z</time>
      </trkpt>
      <trkpt lat="48.99971" lon="2.0337">
        <ele>100.3</ele>
        <time>2021-10-03T14:14:21Z</time>
      </trkpt>
      <trkpt lat="48.9997" lon="2.0338">
        <ele>100.2</ele>
        <time>2021-10-03T14:14:26Z</time>
      </trkpt>
      <trkpt lat="48.99967" lon="2.03393">
        <ele>100.1</ele>
        <time>2021-10-03T14:14:32Z</time>
      </trkpt>
      <trkpt lat="48.99964" lon="2.03403">
        <ele>100</ele>
        <time>2021-10-03T14:14:37Z</time>
      </trkpt>
      <trkpt lat="48.9996" lon="2.03413">
        <ele>100</ele>
        <time>2021-10-03T14:14:42Z</time>
      </trkpt>
      <trkpt lat="48.99956" lon="2.03424">
        <ele>100</ele>
        <time>2021-10-03T14:14:48Z</time>
      </trkpt>
      <trkpt lat="48.99949" lon="2.0343">
        <ele>100.2</ele>
        <time>2021-10-03T14:14:53Z</time>
      </trkpt>
      <trkpt lat="48.99943" lon="2.03433">
        <ele>100.4</ele>
        <time>2021-10-03T14:14:58Z</time>
      </trkpt>
      <trkpt lat="48.99936" lon="2.03436">
        <ele>100.6</ele>
        <time>2021-10-03T14:15:03Z</time>
      </trkpt>
      <trkpt lat="48.99928" lon="2.03438">
        <ele>101</ele>
        <time>2021-10-03T14:15:09Z</time>
      </trkpt>
      <trkpt lat="48.9992" lon="2.03441">
        <ele>101.3</ele>
        <time>2021-10-03T14:15:15Z</time>
      </trkpt>
      <trkpt lat="48.99912" lon="2.03444">
        <ele>101.5</ele>
        <time>2021-10-03T14:15:21Z</time>
      </trkpt>
      <trkpt lat="48.99905" lon="2.03446">
        <ele>101.7</ele>
        <time>2021-10-03T14:15:27Z</time>
      </trkpt>
      <trkpt lat="48.99898" lon="2.03449">
        <ele>101.8</ele>
        <time>2021-10-03T14:15:32Z</time>
      </trkpt>
      <trkpt lat="48.99892" lon="2.03451">
        <ele>102</ele>
        <time>2021-10-03T14:15:37Z</time>
      </trkpt>
      <trkpt lat="48.99883" lon="2.03454">
        <ele>102.1</ele>
        <time>2021-10-03T14:15:43Z</time>
      </trkpt>
      <trkpt lat="48.99876" lon="2.03457">
        <ele>102.3</ele>
        <time>2021-10-03T14:15:48Z</time>
      </trkpt>
      <trkpt lat="48.99868" lon="2.03461">
        <ele>102.4</ele>
        <time>2021-10-03T14:15:54Z</time>
      </trkpt>
      <trkpt lat="48.9986" lon="2.03466">
        <ele>102.5</ele>
        <time>2021-10-03T14:16:00Z</time>
      </trkpt>
      <trkpt lat="48.99853" lon="2.03469">
        <ele>102.6</ele>
        <time>2021-10-03T14:16:05Z</time>
      </trkpt>
      <trkpt lat="48.99845" lon="2.03472">
        <ele>102.7</ele>
        <time>2021-10-03T14:16:11Z</time>
      </trkpt>
      <trkpt lat="48.99836" lon="2.03476">
        <ele>102.8</ele>
        <time>2021-10-03T14:16:17Z</time>
      </trkpt>
      <trkpt lat="48.99828" lon="2.0348">
        <ele>102.9</ele>
        <time>2021-10-03T14:16:23Z</time>
      </trkpt>
      <trkpt lat="48.99819" lon="2.03484">
        <ele>103.1</ele>
        <time>2021-10-03T14:16:29Z</time>
      </trkpt>
      <trkpt lat="48.99813" lon="2.03487">
        <ele>103.2</ele>
        <time>2021-10-03T14:16:34Z</time>
      </trkpt>
      <trkpt lat="48.99805" lon="2.03492">
        <ele>103.3</ele>
        <time>2021-10-03T14:16:40Z</time>
      </trkpt>
      <trkpt lat="48.99798" lon="2.03495">
        <ele>103.4</ele>
        <time>2021-10-03T14:16:45Z</time>
      </trkpt>
      <trkpt lat="48.99791" lon="2.03498">
        <ele>103.6</ele>
        <time>2021-10-03T14:16:50Z</time>
      </trkpt>
      <trkpt lat="48.99784" lon="2.03501">
        <ele>103.7</ele>
        <time>2021-10-03T14:16:55Z</time>
      </trkpt>
      <trkpt lat="48.99776" lon="2.03506">
        <ele>103.9</ele>
        <time>2021-10-03T14:17:01Z</time>
      </trkpt>
      <trkpt lat="48.99767" lon="2.0351">
        <ele>104.2</ele>
        <time>2021-10-03T14:17:07Z</time>
      </trkpt>
      <trkpt lat="48.99758" lon="2.03515">
        <ele>104.3</ele>
        <time>2021-10-03T14:17:13Z</time>
      </trkpt>
      <trkpt lat="48.9975" lon="2.03519">
        <ele>104.6</ele>
        <time>2021-10-03T14:17:19Z</time>
      </trkpt>
      <trkpt lat="48.99743" lon="2.03523">
        <ele>104.6</ele>
        <time>2021-10-03T14:17:24Z</time>
      </trkpt>
      <trkpt lat="48.99736" lon="2.03527">
        <ele>104.6</ele>
        <time>2021-10-03T14:17:29Z</time>
      </trkpt>
      <trkpt lat="48.99728" lon="2.03531">
        <ele>104.7</ele>
        <time>2021-10-03T14:17:35Z</time>
      </trkpt>
      <trkpt lat="48.99721" lon="2.03534">
        <ele>104.7</ele>
        <time>2021-10-03T14:17:40Z</time>
      </trkpt>
      <trkpt lat="48.99713" lon="2.03538">
        <ele>104.8</ele>
        <time>2021-10-03T14:17:46Z</time>
      </trkpt>
      <trkpt lat="48.99705" lon="2.03542">
        <ele>104.8</ele>
        <time>2021-10-03T14:17:52Z</time>
      </trkpt>
      <trkpt lat="48.99698" lon="2.03545">
        <ele>104.8</ele>
        <time>2021-10-03T14:17:57Z</time>
      </trkpt>
      <trkpt lat="48.9969" lon="2.03548">
        <ele>104.9</ele>
        <time>2021-10-03T14:18:03Z</time>
      </trkpt>
      <trkpt lat="48.99683" lon="2.03551">
        <ele>104.9</ele>
        <time>2021-10-03T14:18:09Z</time>
      </trkpt>
      <trkpt lat="48.99676" lon="2.03554">
        <ele>104.9</ele>
        <time>2021-10-03T14:18:14Z</time>
      </trkpt>
      <trkpt lat="48.99668" lon="2.03558">
        <ele>104.9</ele>
        <time>2021-10-03T14:18:20Z</time>
      </trkpt>
      <trkpt lat="48.99661" lon="2.03562">
        <ele>105</ele>
        <time>2021-10-03T14:18:25Z</time>
      </trkpt>
      <trkpt lat="48.99654" lon="2.03566">
        <ele>105.1</ele>
        <time>2021-10-03T14:18:31Z</time>
      </trkpt>
      <trkpt lat="48.99645" lon="2.03569">
        <ele>105.2</ele>
        <time>2021-10-03T14:18:37Z</time>
      </trkpt>
      <trkpt lat="48.99637" lon="2.03573">
        <ele>105.4</ele>
        <time>2021-10-03T14:18:43Z</time>
      </trkpt>
      <trkpt lat="48.99629" lon="2.03575">
        <ele>105.6</ele>
        <time>2021-10-03T14:18:49Z</time>
      </trkpt>
      <trkpt lat="48.99621" lon="2.03579">
        <ele>105.8</ele>
        <time>2021-10-03T14:18:55Z</time>
      </trkpt>
      <trkpt lat="48.99614" lon="2.03581">
        <ele>105.9</ele>
        <time>2021-10-03T14:19:00Z</time>
      </trkpt>
      <trkpt lat="48.99608" lon="2.03584">
        <ele>106.1</ele>
        <time>2021-10-03T14:19:05Z</time>
      </trkpt>
      <trkpt lat="48.99599" lon="2.03591">
        <ele>106.1</ele>
        <time>2021-10-03T14:19:11Z</time>
      </trkpt>
      <trkpt lat="48.99589" lon="2.03595">
        <ele>106.2</ele>
        <time>2021-10-03T14:19:17Z</time>
      </trkpt>
      <trkpt lat="48.99583" lon="2.03598">
        <ele>106.3</ele>
        <time>2021-10-03T14:19:22Z</time>
      </trkpt>
      <trkpt lat="48.99575" lon="2.03603">
        <ele>106</ele>
        <time>2021-10-03T14:19:28Z</time>
      </trkpt>
      <trkpt lat="48.99569" lon="2.03603">
        <ele>106</ele>
        <time>2021-10-03T14:19:33Z</time>
      </trkpt>
      <trkpt lat="48.99565" lon="2.03602">
        <ele>106</ele>
        <time>2021-10-03T14:19:38Z</time>
      </trkpt>
      <trkpt lat="48.99563" lon="2.03603">
        <ele>106</ele>
        <time>2021-10-03T14:19:43Z</time>
      </trkpt>
      <trkpt lat="48.99557" lon="2.03606">
        <ele>105.8</ele>
        <time>2021-10-03T14:19:49Z</time>
      </trkpt>
      <trkpt lat="48.9955" lon="2.03604">
        <ele>105.9</ele>
        <time>2021-10-03T14:19:55Z</time>
      </trkpt>
      <trkpt lat="48.9954" lon="2.03611">
        <ele>105.5</ele>
        <time>2021-10-03T14:20:01Z</time>
      </trkpt>
      <trkpt lat="48.99534" lon="2.03611">
        <ele>105.5</ele>
        <time>2021-10-03T14:20:06Z</time>
      </trkpt>
      <trkpt lat="48.99531" lon="2.03611">
        <ele>105.5</ele>
        <time>2021-10-03T14:20:11Z</time>
      </trkpt>
      <trkpt lat="48.99523" lon="2.03611">
        <ele>105.4</ele>
        <time>2021-10-03T14:20:17Z</time>
      </trkpt>
      <trkpt lat="48.99516" lon="2.03613">
        <ele>105.3</ele>
        <time>2021-10-03T14:20:22Z</time>
      </trkpt>
      <trkpt lat="48.9951" lon="2.03612">
        <ele>105.3</ele>
        <time>2021-10-03T14:20:28Z</time>
      </trkpt>
      <trkpt lat="48.99504" lon="2.03615">
        <ele>105.1</ele>
        <time>2021-10-03T14:20:33Z</time>
      </trkpt>
      <trkpt lat="48.99502" lon="2.03616">
        <ele>105.1</ele>
        <time>2021-10-03T14:20:39Z</time>
      </trkpt>
      <trkpt lat="48.99496" lon="2.03616">
        <ele>104.9</ele>
        <time>2021-10-03T14:20:45Z</time>
      </trkpt>
      <trkpt lat="48.99491" lon="2.03614">
        <ele>104.7</ele>
        <time>2021-10-03T14:20:51Z</time>
      </trkpt>
      <trkpt lat="48.99485" lon="2.03616">
        <ele>104.3</ele>
        <time>2021-10-03T14:20:57Z</time>
      </trkpt>
      <trkpt lat="48.99478" lon="2.03619">
        <ele>103.8</ele>
        <time>2021-10-03T14:21:02Z</time>
      </trkpt>
      <trkpt lat="48.9947" lon="2.03622">
        <ele>103.3</ele>
        <time>2021-10-03T14:21:08Z</time>
      </trkpt>
      <trkpt lat="48.99462" lon="2.03626">
        <ele>102.9</ele>
        <time>2021-10-03T14:21:14Z</time>
      </trkpt>
      <trkpt lat="48.99455" lon="2.03627">
        <ele>102.6</ele>
        <time>2021-10-03T14:21:20Z</time>
      </trkpt>
      <trkpt lat="48.99452" lon="2.03627">
        <ele>102.4</ele>
        <time>2021-10-03T14:21:26Z</time>
      </trkpt>
      <trkpt lat="48.99445" lon="2.03627">
        <ele>102.2</ele>
        <time>2021-10-03T14:21:32Z</time>
      </trkpt>
      <trkpt lat="48.99437" lon="2.03629">
        <ele>101.8</ele>
        <time>2021-10-03T14:21:37Z</time>
      </trkpt>
      <trkpt lat="48.99433" lon="2.03631">
        <ele>101.6</ele>
        <time>2021-10-03T14:21:43Z</time>
      </trkpt>
      <trkpt lat="48.99427" lon="2.0363">
        <ele>101.4</ele>
        <time>2021-10-03T14:21:48Z</time>
      </trkpt>
      <trkpt lat="48.9942" lon="2.03631">
        <ele>101.1</ele>
        <time>2021-10-03T14:21:54Z</time>
      </trkpt>
      <trkpt lat="48.99412" lon="2.03633">
        <ele>100.7</ele>
        <time>2021-10-03T14:22:00Z</time>
      </trkpt>
      <trkpt lat="48.99404" lon="2.03632">
        <ele>100.4</ele>
        <time>2021-10-03T14:22:06Z</time>
      </trkpt>
      <trkpt lat="48.99396" lon="2.03634">
        <ele>100</ele>
        <time>2021-10-03T14:22:12Z</time>
      </trkpt>
      <trkpt lat="48.9939" lon="2.03635">
        <ele>99.6</ele>
        <time>2021-10-03T14:22:17Z</time>
      </trkpt>
      <trkpt lat="48.99382" lon="2.03636">
        <ele>99.2</ele>
        <time>2021-10-03T14:22:23Z</time>
      </trkpt>
      <trkpt lat="48.99375" lon="2.03636">
        <ele>98.8</ele>
        <time>2021-10-03T14:22:28Z</time>
      </trkpt>
      <trkpt lat="48.99367" lon="2.03635">
        <ele>98.5</ele>
        <time>2021-10-03T14:22:34Z</time>
      </trkpt>
      <trkpt lat="48.99362" lon="2.03635">
        <ele>98.2</ele>
        <time>2021-10-03T14:22:39Z</time>
      </trkpt>
      <trkpt lat="48.99358" lon="2.03637">
        <ele>98</ele>
        <time>2021-10-03T14:22:45Z</time>
      </trkpt>
      <trkpt lat="48.9935" lon="2.03638">
        <ele>97.5</ele>
        <time>2021-10-03T14:22:51Z</time>
      </trkpt>
      <trkpt lat="48.99339" lon="2.03643">
        <ele>96.9</ele>
        <time>2021-10-03T14:22:57Z</time>
      </trkpt>
      <trkpt lat="48.99333" lon="2.03641">
        <ele>96.6</ele>
        <time>2021-10-03T14:23:02Z</time>
      </trkpt>
      <trkpt lat="48.99328" lon="2.03638">
        <ele>96.6</ele>
        <time>2021-10-03T14:23:07Z</time>
      </trkpt>
      <trkpt lat="48.99322" lon="2.03638">
        <ele>96.5</ele>
        <time>2021-10-03T14:23:13Z</time>
      </trkpt>
      <trkpt lat="48.99316" lon="2.03635">
        <ele>96.5</ele>
        <time>2021-10-03T14:23:18Z</time>
      </trkpt>
      <trkpt lat="48.9931" lon="2.03634">
        <ele>96.4</ele>
        <time>2021-10-03T14:23:24Z</time>
      </trkpt>
      <trkpt lat="48.99301" lon="2.03637">
        <ele>96.2</ele>
        <time>2021-10-03T14:23:30Z</time>
      </trkpt>
      <trkpt lat="48.99293" lon="2.03644">
        <ele>95.8</ele>
        <time>2021-10-03T14:23:35Z</time>
      </trkpt>
      <trkpt lat="48.99288" lon="2.03646">
        <ele>95.7</ele>
        <time>2021-10-03T14:23:40Z</time>
      </trkpt>
      <trkpt lat="48.9928" lon="2.03647">
        <ele>95.5</ele>
        <time>2021-10-03T14:23:46Z</time>
      </trkpt>
      <trkpt lat="48.99271" lon="2.03652">
        <ele>95.1</ele>
        <time>2021-10-03T14:23:51Z</time>
      </trkpt>
      <trkpt lat="48.99266" lon="2.0365">
        <ele>95.1</ele>
        <time>2021-10-03T14:23:56Z</time>
      </trkpt>
      <trkpt lat="48.99259" lon="2.03647">
        <ele>95.1</ele>
        <time>2021-10-03T14:24:02Z</time>
      </trkpt>
      <trkpt lat="48.99253" lon="2.03643">
        <ele>95.2</ele>
        <time>2021-10-03T14:24:08Z</time>
      </trkpt>
      <trkpt lat="48.99249" lon="2.03642">
        <ele>95.2</ele>
        <time>2021-10-03T14:24:13Z</time>
      </trkpt>
      <trkpt lat="48.99243" lon="2.03642">
        <ele>95.3</ele>
        <time>2021-10-03T14:24:18Z</time>
      </trkpt>
      <trkpt lat="48.99237" lon="2.03638">
        <ele>95.7</ele>
        <time>2021-10-03T14:24:24Z</time>
      </trkpt>
      <trkpt lat="48.99231" lon="2.03636">
        <ele>95.9</ele>
        <time>2021-10-03T14:24:30Z</time>
      </trkpt>
      <trkpt lat="48.99224" lon="2.03636">
        <ele>96.1</ele>
        <time>2021-10-03T14:24:35Z</time>
      </trkpt>
      <trkpt lat="48.99218" lon="2.03633">
        <ele>96.5</ele>
        <time>2021-10-03T14:24:41Z</time>
      </trkpt>
      <trkpt lat="48.99214" lon="2.0363">
        <ele>96.7</ele>
        <time>2021-10-03T14:24:46Z</time>
      </trkpt>
      <trkpt lat="48.99211" lon="2.03629">
        <ele>96.9</ele>
        <time>2021-10-03T14:24:51Z</time>
      </trkpt>
      <trkpt lat="48.99207" lon="2.03627">
        <ele>97.2</ele>
        <time>2021-10-03T14:24:57Z</time>
      </trkpt>
      <trkpt lat="48.99205" lon="2.03622">
        <ele>97.5</ele>
        <time>2021-10-03T14:25:02Z</time>
      </trkpt>
      <trkpt lat="48.99197" lon="2.03619">
        <ele>98</ele>
        <time>2021-10-03T14:25:08Z</time>
      </trkpt>
      <trkpt lat="48.9919" lon="2.03616">
        <ele>98.5</ele>
        <time>2021-10-03T14:25:13Z</time>
      </trkpt>
      <trkpt lat="48.99182" lon="2.03615">
        <ele>98.8</ele>
        <time>2021-10-03T14:25:19Z</time>
      </trkpt>
      <trkpt lat="48.9918" lon="2.03614">
        <ele>98.9</ele>
        <time>2021-10-03T14:25:24Z</time>
      </trkpt>
      <trkpt lat="48.99177" lon="2.03613">
        <ele>99.2</ele>
        <time>2021-10-03T14:25:29Z</time>
      </trkpt>
      <trkpt lat="48.99171" lon="2.03608">
        <ele>99.8</ele>
        <time>2021-10-03T14:25:34Z</time>
      </trkpt>
      <trkpt lat="48.9916" lon="2.03605">
        <ele>100.5</ele>
        <time>2021-10-03T14:25:40Z</time>
      </trkpt>
      <trkpt lat="48.99152" lon="2.036">
        <ele>101.4</ele>
        <time>2021-10-03T14:25:46Z</time>
      </trkpt>
      <trkpt lat="48.99147" lon="2.03596">
        <ele>102</ele>
        <time>2021-10-03T14:25:52Z</time>
      </trkpt>
      <trkpt lat="48.99138" lon="2.03596">
        <ele>102.4</ele>
        <time>2021-10-03T14:25:57Z</time>
      </trkpt>
      <trkpt lat="48.99132" lon="2.03594">
        <ele>102.8</ele>
        <time>2021-10-03T14:26:02Z</time>
      </trkpt>
      <trkpt lat="48.99129" lon="2.0359">
        <ele>103.3</ele>
        <time>2021-10-03T14:26:07Z</time>
      </trkpt>
      <trkpt lat="48.99122" lon="2.03588">
        <ele>103.8</ele>
        <time>2021-10-03T14:26:13Z</time>
      </trkpt>
      <trkpt lat="48.99116" lon="2.03587">
        <ele>104.2</ele>
        <time>2021-10-03T14:26:18Z</time>
      </trkpt>
      <trkpt lat="48.9911" lon="2.03585">
        <ele>104.6</ele>
        <time>2021-10-03T14:26:23Z</time>
      </trkpt>
      <trkpt lat="48.99104" lon="2.03582">
        <ele>105.1</ele>
        <time>2021-10-03T14:26:29Z</time>
      </trkpt>
      <trkpt lat="48.99099" lon="2.03579">
        <ele>105.5</ele>
        <time>2021-10-03T14:26:34Z</time>
      </trkpt>
      <trkpt lat="48.99091" lon="2.03578">
        <ele>105.8</ele>
        <time>2021-10-03T14:26:40Z</time>
      </trkpt>
      <trkpt lat="48.99085" lon="2.03576">
        <ele>106.2</ele>
        <time>2021-10-03T14:26:45Z</time>
      </trkpt>
      <trkpt lat="48.99077" lon="2.03571">
        <ele>107</ele>
        <time>2021-10-03T14:26:51Z</time>
      </trkpt>
      <trkpt lat="48.99073" lon="2.0357">
        <ele>107.5</ele>
        <time>2021-10-03T14:26:56Z</time>
      </trkpt>
      <trkpt lat="48.99067" lon="2.03568">
        <ele>108</ele>
        <time>2021-10-03T14:27:02Z</time>
      </trkpt>
      <trkpt lat="48.99061" lon="2.03565">
        <ele>108.7</ele>
        <time>2021-10-03T14:27:07Z</time>
      </trkpt>
      <trkpt lat="48.99055" lon="2.03563">
        <ele>109.3</ele>
        <time>2021-10-03T14:27:12Z</time>
      </trkpt>
      <trkpt lat="48.9905" lon="2.0356">
        <ele>109.8</ele>
        <time>2021-10-03T14:27:18Z</time>
      </trkpt>
      <trkpt lat="48.99045" lon="2.03558">
        <ele>110.4</ele>
        <time>2021-10-03T14:27:23Z</time>
      </trkpt>
      <trkpt lat="48.99042" lon="2.03557">
        <ele>110.6</ele>
        <time>2021-10-03T14:27:28Z</time>
      </trkpt>
      <trkpt lat="48.99038" lon="2.03568">
        <ele>110.7</ele>
        <time>2021-10-03T14:27:34Z</time>
      </trkpt>
      <trkpt lat="48.99038" lon="2.03579">
        <ele>110.4</ele>
        <time>2021-10-03T14:27:40Z</time>
      </trkpt>
      <trkpt lat="48.99038" lon="2.0359">
        <ele>109.9</ele>
        <time>2021-10-03T14:27:45Z</time>
      </trkpt>
      <trkpt lat="48.99036" lon="2.036">
        <ele>109.3</ele>
        <time>2021-10-03T14:27:50Z</time>
      </trkpt>
      <trkpt lat="48.99036" lon="2.03613">
        <ele>108.4</ele>
        <time>2021-10-03T14:27:55Z</time>
      </trkpt>
      <trkpt lat="48.99034" lon="2.03622">
        <ele>107.8</ele>
        <time>2021-10-03T14:28:01Z</time>
      </trkpt>
      <trkpt lat="48.99031" lon="2.03634">
        <ele>107.2</ele>
        <time>2021-10-03T14:28:07Z</time>
      </trkpt>
      <trkpt lat="48.99031" lon="2.03648">
        <ele>106.2</ele>
        <time>2021-10-03T14:28:13Z</time>
      </trkpt>
      <trkpt lat="48.99029" lon="2.03659">
        <ele>105.5</ele>
        <time>2021-10-03T14:28:18Z</time>
      </trkpt>
      <trkpt lat="48.99026" lon="2.03671">
        <ele>105</ele>
        <time>2021-10-03T14:28:24Z</time>
      </trkpt>
      <trkpt lat="48.99022" lon="2.03681">
        <ele>104.8</ele>
        <time>2021-10-03T14:28:30Z</time>
      </trkpt>
      <trkpt lat="48.9902" lon="2.03693">
        <ele>104.5</ele>
        <time>2021-10-03T14:28:36Z</time>
      </trkpt>
      <trkpt lat="48.99019" lon="2.03705">
        <ele>104.2</ele>
        <time>2021-10-03T14:28:42Z</time>
      </trkpt>
      <trkpt lat="48.99009" lon="2.03713">
        <ele>104.6</ele>
        <time>2021-10-03T14:28:47Z</time>
      </trkpt>
      <trkpt lat="48.99008" lon="2.03724">
        <ele>104.3</ele>
        <time>2021-10-03T14:28:52Z</time>
      </trkpt>
      <trkpt lat="48.99004" lon="2.03735">
        <ele>104.2</ele>
        <time>2021-10-03T14:28:57Z</time>
      </trkpt>
      <trkpt lat="48.99001" lon="2.03747">
        <ele>104.1</ele>
        <time>2021-10-03T14:29:03Z</time>
      </trkpt>
      <trkpt lat="48.99" lon="2.03758">
        <ele>103.7</ele>
        <time>2021-10-03T14:29:08Z</time>
      </trkpt>
      <trkpt lat="48.98996" lon="2.0377">
        <ele>103.9</ele>
        <time>2021-10-03T14:29:14Z</time>
      </trkpt>
      <trkpt lat="48.98993" lon="2.03779">
        <ele>103.9</ele>
        <time>2021-10-03T14:29:20Z</time>
      </trkpt>
      <trkpt lat="48.98989" lon="2.03788">
        <ele>104.1</ele>
        <time>2021-10-03T14:29:25Z</time>
      </trkpt>
      <trkpt lat="48.98989" lon="2.03798">
        <ele>103.8</ele>
        <time>2021-10-03T14:29:30Z</time>
      </trkpt>
      <trkpt lat="48.98987" lon="2.03808">
        <ele>103.6</ele>
        <time>2021-10-03T14:29:35Z</time>
      </trkpt>
      <trkpt lat="48.98984" lon="2.03818">
        <ele>103.5</ele>
        <time>2021-10-03T14:29:41Z</time>
      </trkpt>
      <trkpt lat="48.9898" lon="2.03829">
        <ele>103.6</ele>
        <time>2021-10-03T14:29:47Z</time>
      </trkpt>
      <trkpt lat="48.98979" lon="2.03841">
        <ele>103.3</ele>
        <time>2021-10-03T14:29:53Z</time>
      </trkpt>
      <trkpt lat="48.98974" lon="2.03848">
        <ele>103.7</ele>
        <time>2021-10-03T14:29:59Z</time>
      </trkpt>
      <trkpt lat="48.9897" lon="2.03854">
        <ele>104</ele>
        <time>2021-10-03T14:30:04Z</time>
      </trkpt>
      <trkpt lat="48.98964" lon="2.03863">
        <ele>104.4</ele>
        <time>2021-10-03T14:30:10Z</time>
      </trkpt>
      <trkpt lat="48.98962" lon="2.03875">
        <ele>104.3</ele>
        <time>2021-10-03T14:30:16Z</time>
      </trkpt>
      <trkpt lat="48.98958" lon="2.0388">
        <ele>104.6</ele>
        <time>2021-10-03T14:30:22Z</time>
      </trkpt>
      <trkpt lat="48.98954" lon="2.03888">
        <ele>104.8</ele>
        <time>2021-10-03T14:30:28Z</time>
      </trkpt>
      <trkpt lat="48.98952" lon="2.03893">
        <ele>105</ele>
        <time>2021-10-03T14:30:34Z</time>
      </trkpt>
      <trkpt lat="48.98949" lon="2.039">
        <ele>105.1</ele>
        <time>2021-10-03T14:30:39Z</time>
      </trkpt>
      <trkpt lat="48.98944" lon="2.03909">
        <ele>105.3</ele>
        <time>2021-10-03T14:30:45Z</time>
      </trkpt>
      <trkpt lat="48.98942" lon="2.03921">
        <ele>105.4</ele>
        <time>2021-10-03T14:30:51Z</time>
      </trkpt>
      <trkpt lat="48.9894" lon="2.03927">
        <ele>105.7</ele>
        <time>2021-10-03T14:30:56Z</time>
      </trkpt>
      <trkpt lat="48.98939" lon="2.03937">
        <ele>106.1</ele>
        <time>2021-10-03T14:31:01Z</time>
      </trkpt>
      <trkpt lat="48.98936" lon="2.0395">
        <ele>106.7</ele>
        <time>2021-10-03T14:31:07Z</time>
      </trkpt>
      <trkpt lat="48.98935" lon="2.0396">
        <ele>107.1</ele>
        <time>2021-10-03T14:31:12Z</time>
      </trkpt>
      <trkpt lat="48.98932" lon="2.0397">
        <ele>107.6</ele>
        <time>2021-10-03T14:31:17Z</time>
      </trkpt>
      <trkpt lat="48.9893" lon="2.03981">
        <ele>108.1</ele>
        <time>2021-10-03T14:31:23Z</time>
      </trkpt>
      <trkpt lat="48.98927" lon="2.03992">
        <ele>108.6</ele>
        <time>2021-10-03T14:31:29Z</time>
      </trkpt>
      <trkpt lat="48.98925" lon="2.04004">
        <ele>109.1</ele>
        <time>2021-10-03T14:31:35Z</time>
      </trkpt>
      <trkpt lat="48.98926" lon="2.04013">
        <ele>108.9</ele>
        <time>2021-10-03T14:31:41Z</time>
      </trkpt>
      <trkpt lat="48.98929" lon="2.04024">
        <ele>108.5</ele>
        <time>2021-10-03T14:31:46Z</time>
      </trkpt>
      <trkpt lat="48.98932" lon="2.04034">
        <ele>108.2</ele>
        <time>2021-10-03T14:31:51Z</time>
      </trkpt>
      <trkpt lat="48.98934" lon="2.04047">
        <ele>107.9</ele>
        <time>2021-10-03T14:31:57Z</time>
      </trkpt>
      <trkpt lat="48.98934" lon="2.04057">
        <ele>107.9</ele>
        <time>2021-10-03T14:32:02Z</time>
      </trkpt>
      <trkpt lat="48.98934" lon="2.04069">
        <ele>107.8</ele>
        <time>2021-10-03T14:32:08Z</time>
      </trkpt>
      <trkpt lat="48.98939" lon="2.04082">
        <ele>107.4</ele>
        <time>2021-10-03T14:32:14Z</time>
      </trkpt>
      <trkpt lat="48.98941" lon="2.04096">
        <ele>107.1</ele>
        <time>2021-10-03T14:32:20Z</time>
      </trkpt>
      <trkpt lat="48.98942" lon="2.04107">
        <ele>106.9</ele>
        <time>2021-10-03T14:32:25Z</time>
      </trkpt>
      <trkpt lat="48.98945" lon="2.0412">
        <ele>106.5</ele>
        <time>2021-10-03T14:32:31Z</time>
      </trkpt>
      <trkpt lat="48.98948" lon="2.04131">
        <ele>106.2</ele>
        <time>2021-10-03T14:32:36Z</time>
      </trkpt>
      <trkpt lat="48.98949" lon="2.04141">
        <ele>106</ele>
        <time>2021-10-03T14:32:41Z</time>
      </trkpt>
      <trkpt lat="48.98951" lon="2.04151">
        <ele>105.8</ele>
        <time>2021-10-03T14:32:46Z</time>
      </trkpt>
      <trkpt lat="48.98951" lon="2.04164">
        <ele>105.5</ele>
        <time>2021-10-03T14:32:52Z</time>
      </trkpt>
      <trkpt lat="48.98954" lon="2.04174">
        <ele>105.2</ele>
        <time>2021-10-03T14:32:57Z</time>
      </trkpt>
      <trkpt lat="48.98956" lon="2.04185">
        <ele>104.9</ele>
        <time>2021-10-03T14:33:02Z</time>
      </trkpt>
      <trkpt lat="48.98956" lon="2.04195">
        <ele>104.6</ele>
        <time>2021-10-03T14:33:07Z</time>
      </trkpt>
      <trkpt lat="48.98959" lon="2.04208">
        <ele>104.2</ele>
        <time>2021-10-03T14:33:13Z</time>
      </trkpt>
      <trkpt lat="48.9896" lon="2.04218">
        <ele>103.9</ele>
        <time>2021-10-03T14:33:18Z</time>
      </trkpt>
      <trkpt lat="48.98964" lon="2.04231">
        <ele>103.5</ele>
        <time>2021-10-03T14:33:24Z</time>
      </trkpt>
      <trkpt lat="48.98966" lon="2.04243">
        <ele>103.2</ele>
        <time>2021-10-03T14:33:29Z</time>
      </trkpt>
      <trkpt lat="48.98967" lon="2.04254">
        <ele>102.8</ele>
        <time>2021-10-03T14:33:34Z</time>
      </trkpt>
      <trkpt lat="48.9897" lon="2.04264">
        <ele>102.4</ele>
        <time>2021-10-03T14:33:39Z</time>
      </trkpt>
      <trkpt lat="48.98973" lon="2.04277">
        <ele>101.9</ele>
        <time>2021-10-03T14:33:45Z</time>
      </trkpt>
      <trkpt lat="48.98975" lon="2.04289">
        <ele>101.4</ele>
        <time>2021-10-03T14:33:51Z</time>
      </trkpt>
      <trkpt lat="48.98976" lon="2.04302">
        <ele>101</ele>
        <time>2021-10-03T14:33:57Z</time>
      </trkpt>
      <trkpt lat="48.98977" lon="2.04315">
        <ele>100.6</ele>
        <time>2021-10-03T14:34:03Z</time>
      </trkpt>
      <trkpt lat="48.98979" lon="2.04327">
        <ele>100.2</ele>
        <time>2021-10-03T14:34:09Z</time>
      </trkpt>
      <trkpt lat="48.98981" lon="2.04341">
        <ele>99.8</ele>
        <time>2021-10-03T14:34:15Z</time>
      </trkpt>
      <trkpt lat="48.98983" lon="2.04351">
        <ele>99.7</ele>
        <time>2021-10-03T14:34:20Z</time>
      </trkpt>
      <trkpt lat="48.98984" lon="2.04364">
        <ele>99.5</ele>
        <time>2021-10-03T14:34:26Z</time>
      </trkpt>
      <trkpt lat="48.98986" lon="2.04376">
        <ele>99.3</ele>
        <time>2021-10-03T14:34:32Z</time>
      </trkpt>
      <trkpt lat="48.98989" lon="2.04389">
        <ele>99</ele>
        <time>2021-10-03T14:34:38Z</time>
      </trkpt>
      <trkpt lat="48.98991" lon="2.04399">
        <ele>98.7</ele>
        <time>2021-10-03T14:34:43Z</time>
      </trkpt>
      <trkpt lat="48.98995" lon="2.04411">
        <ele>98.4</ele>
        <time>2021-10-03T14:34:49Z</time>
      </trkpt>
      <trkpt lat="48.98998" lon="2.04424">
        <ele>98.2</ele>
        <time>2021-10-03T14:34:55Z</time>
      </trkpt>
      <trkpt lat="48.99002" lon="2.04434">
        <ele>98.2</ele>
        <time>2021-10-03T14:35:00Z</time>
      </trkpt>
      <trkpt lat="48.99001" lon="2.04446">
        <ele>98.3</ele>
        <time>2021-10-03T14:35:06Z</time>
      </trkpt>
      <trkpt lat="48.99001" lon="2.04455">
        <ele>98.4</ele>
        <time>2021-10-03T14:35:11Z</time>
      </trkpt>
      <trkpt lat="48.99004" lon="2.04467">
        <ele>98.5</ele>
        <time>2021-10-03T14:35:17Z</time>
      </trkpt>
      <trkpt lat="48.99009" lon="2.04476">
        <ele>98.5</ele>
        <time>2021-10-03T14:35:22Z</time>
      </trkpt>
      <trkpt lat="48.9901" lon="2.04486">
        <ele>98.6</ele>
        <time>2021-10-03T14:35:28Z</time>
      </trkpt>
      <trkpt lat="48.99012" lon="2.04498">
        <ele>98.7</ele>
        <time>2021-10-03T14:35:34Z</time>
      </trkpt>
      <trkpt lat="48.99013" lon="2.04512">
        <ele>98.7</ele>
        <time>2021-10-03T14:35:40Z</time>
      </trkpt>
      <trkpt lat="48.99014" lon="2.04524">
        <ele>98.7</ele>
        <time>2021-10-03T14:35:46Z</time>
      </trkpt>
      <trkpt lat="48.99015" lon="2.04533">
        <ele>98.6</ele>
        <time>2021-10-03T14:35:51Z</time>
      </trkpt>
      <trkpt lat="48.99017" lon="2.04542">
        <ele>98.6</ele>
        <time>2021-10-03T14:35:56Z</time>
      </trkpt>
      <trkpt lat="48.99021" lon="2.04552">
        <ele>98.5</ele>
        <time>2021-10-03T14:36:01Z</time>
      </trkpt>
      <trkpt lat="48.99024" lon="2.04565">
        <ele>98.4</ele>
        <time>2021-10-03T14:36:07Z</time>
      </trkpt>
      <trkpt lat="48.99026" lon="2.04575">
        <ele>98.4</ele>
        <time>2021-10-03T14:36:12Z</time>
      </trkpt>
      <trkpt lat="48.9903" lon="2.04588">
        <ele>98.3</ele>
        <time>2021-10-03T14:36:18Z</time>
      </trkpt>
      <trkpt lat="48.99032" lon="2.04598">
        <ele>98.2</ele>
        <time>2021-10-03T14:36:23Z</time>
      </trkpt>
      <trkpt lat="48.99032" lon="2.04608">
        <ele>98.1</ele>
        <time>2021-10-03T14:36:28Z</time>
      </trkpt>
      <trkpt lat="48.99033" lon="2.04617">
        <ele>98</ele>
        <time>2021-10-03T14:36:33Z</time>
      </trkpt>
      <trkpt lat="48.99034" lon="2.04629">
        <ele>98</ele>
        <time>2021-10-03T14:36:39Z</time>
      </trkpt>
      <trkpt lat="48.99036" lon="2.04638">
        <ele>97.9</ele>
        <time>2021-10-03T14:36:44Z</time>
      </trkpt>
      <trkpt lat="48.99038" lon="2.04649">
        <ele>97.7</ele>
        <time>2021-10-03T14:36:50Z</time>
      </trkpt>
      <trkpt lat="48.99042" lon="2.04662">
        <ele>97.5</ele>
        <time>2021-10-03T14:36:56Z</time>
      </trkpt>
      <trkpt lat="48.99046" lon="2.04671">
        <ele>97.3</ele>
        <time>2021-10-03T14:37:01Z</time>
      </trkpt>
      <trkpt lat="48.9905" lon="2.04682">
        <ele>97</ele>
        <time>2021-10-03T14:37:06Z</time>
      </trkpt>
      <trkpt lat="48.99051" lon="2.04695">
        <ele>96.8</ele>
        <time>2021-10-03T14:37:12Z</time>
      </trkpt>
      <trkpt lat="48.99051" lon="2.04706">
        <ele>96.7</ele>
        <time>2021-10-03T14:37:18Z</time>
      </trkpt>
      <trkpt lat="48.99044" lon="2.04714">
        <ele>96.8</ele>
        <time>2021-10-03T14:37:24Z</time>
      </trkpt>
      <trkpt lat="48.99039" lon="2.04717">
        <ele>97</ele>
        <time>2021-10-03T14:37:29Z</time>
      </trkpt>
      <trkpt lat="48.99033" lon="2.04722">
        <ele>97.1</ele>
        <time>2021-10-03T14:37:35Z</time>
      </trkpt>
      <trkpt lat="48.99029" lon="2.04725">
        <ele>97.3</ele>
        <time>2021-10-03T14:37:40Z</time>
      </trkpt>
      <trkpt lat="48.99022" lon="2.04725">
        <ele>97.5</ele>
        <time>2021-10-03T14:37:46Z</time>
      </trkpt>
      <trkpt lat="48.99013" lon="2.04729">
        <ele>97.8</ele>
        <time>2021-10-03T14:37:52Z</time>
      </trkpt>
      <trkpt lat="48.99006" lon="2.04734">
        <ele>98</ele>
        <time>2021-10-03T14:37:57Z</time>
      </trkpt>
      <trkpt lat="48.98999" lon="2.04738">
        <ele>98.2</ele>
        <time>2021-10-03T14:38:03Z</time>
      </trkpt>
      <trkpt lat="48.98993" lon="2.04741">
        <ele>98.4</ele>
        <time>2021-10-03T14:38:08Z</time>
      </trkpt>
      <trkpt lat="48.98988" lon="2.04742">
        <ele>98.7</ele>
        <time>2021-10-03T14:38:13Z</time>
      </trkpt>
      <trkpt lat="48.98982" lon="2.04746">
        <ele>98.9</ele>
        <time>2021-10-03T14:38:18Z</time>
      </trkpt>
      <trkpt lat="48.98975" lon="2.04749">
        <ele>99.2</ele>
        <time>2021-10-03T14:38:24Z</time>
      </trkpt>
      <trkpt lat="48.98971" lon="2.04752">
        <ele>99.3</ele>
        <time>2021-10-03T14:38:29Z</time>
      </trkpt>
      <trkpt lat="48.98966" lon="2.04755">
        <ele>99.5</ele>
        <time>2021-10-03T14:38:34Z</time>
      </trkpt>
      <trkpt lat="48.98958" lon="2.0476">
        <ele>99.8</ele>
        <time>2021-10-03T14:38:40Z</time>
      </trkpt>
      <trkpt lat="48.98952" lon="2.04765">
        <ele>99.9</ele>
        <time>2021-10-03T14:38:46Z</time>
      </trkpt>
      <trkpt lat="48.98947" lon="2.04769">
        <ele>100.1</ele>
        <time>2021-10-03T14:38:51Z</time>
      </trkpt>
      <trkpt lat="48.98939" lon="2.04774">
        <ele>100.4</ele>
        <time>2021-10-03T14:38:57Z</time>
      </trkpt>
      <trkpt lat="48.98932" lon="2.04778">
        <ele>100.6</ele>
        <time>2021-10-03T14:39:02Z</time>
      </trkpt>
      <trkpt lat="48.98926" lon="2.04779">
        <ele>100.9</ele>
        <time>2021-10-03T14:39:08Z</time>
      </trkpt>
      <trkpt lat="48.98918" lon="2.04783">
        <ele>101.1</ele>
        <time>2021-10-03T14:39:14Z</time>
      </trkpt>
      <trkpt lat="48.98909" lon="2.04788">
        <ele>101.4</ele>
        <time>2021-10-03T14:39:20Z</time>
      </trkpt>
      <trkpt lat="48.98902" lon="2.04792">
        <ele>101.6</ele>
        <time>2021-10-03T14:39:25Z</time>
      </trkpt>
      <trkpt lat="48.98897" lon="2.04794">
        <ele>101.7</ele>
        <time>2021-10-03T14:39:30Z</time>
      </trkpt>
      <trkpt lat="48.98892" lon="2.04796">
        <ele>101.9</ele>
        <time>2021-10-03T14:39:35Z</time>
      </trkpt>
      <trkpt lat="48.98884" lon="2.048">
        <ele>102.1</ele>
        <time>2021-10-03T14:39:41Z</time>
      </trkpt>
      <trkpt lat="48.98878" lon="2.04804">
        <ele>102.1</ele>
        <time>2021-10-03T14:39:47Z</time>
      </trkpt>
      <trkpt lat="48.98871" lon="2.04808">
        <ele>102.2</ele>
        <time>2021-10-03T14:39:52Z</time>
      </trkpt>
      <trkpt lat="48.98865" lon="2.0481">
        <ele>102.3</ele>
        <time>2021-10-03T14:39:57Z</time>
      </trkpt>
      <trkpt lat="48.98858" lon="2.04813">
        <ele>102.4</ele>
        <time>2021-10-03T14:40:03Z</time>
      </trkpt>
      <trkpt lat="48.98853" lon="2.04815">
        <ele>102.5</ele>
        <time>2021-10-03T14:40:08Z</time>
      </trkpt>
      <trkpt lat="48.98845" lon="2.0482">
        <ele>102.5</ele>
        <time>2021-10-03T14:40:14Z</time>
      </trkpt>
      <trkpt lat="48.98837" lon="2.04824">
        <ele>102.5</ele>
        <time>2021-10-03T14:40:20Z</time>
      </trkpt>
      <trkpt lat="48.98831" lon="2.04827">
        <ele>102.5</ele>
        <time>2021-10-03T14:40:25Z</time>
      </trkpt>
      <trkpt lat="48.98824" lon="2.0483">
        <ele>102.8</ele>
        <time>2021-10-03T14:40:30Z</time>
      </trkpt>
      <trkpt lat="48.98818" lon="2.04832">
        <ele>103</ele>
        <time>2021-10-03T14:40:35Z</time>
      </trkpt>
      <trkpt lat="48.9881" lon="2.04836">
        <ele>103.2</ele>
        <time>2021-10-03T14:40:41Z</time>
      </trkpt>
      <trkpt lat="48.98804" lon="2.0484">
        <ele>103.4</ele>
        <time>2021-10-03T14:40:47Z</time>
      </trkpt>
      <trkpt lat="48.98797" lon="2.04845">
        <ele>103.5</ele>
        <time>2021-10-03T14:40:53Z</time>
      </trkpt>
      <trkpt lat="48.98792" lon="2.04852">
        <ele>103.4</ele>
        <time>2021-10-03T14:40:58Z</time>
      </trkpt>
      <trkpt lat="48.98787" lon="2.04859">
        <ele>103.2</ele>
        <time>2021-10-03T14:41:04Z</time>
      </trkpt>
      <trkpt lat="48.98783" lon="2.04865">
        <ele>103.1</ele>
        <time>2021-10-03T14:41:09Z</time>
      </trkpt>
      <trkpt lat="48.98778" lon="2.04877">
        <ele>102.5</ele>
        <time>2021-10-03T14:41:15Z</time>
      </trkpt>
      <trkpt lat="48.98771" lon="2.04882">
        <ele>102.5</ele>
        <time>2021-10-03T14:41:21Z</time>
      </trkpt>
      <trkpt lat="48.98765" lon="2.04891">
        <ele>102.2</ele>
        <time>2021-10-03T14:41:27Z</time>
      </trkpt>
      <trkpt lat="48.98757" lon="2.04898">
        <ele>102</ele>
        <time>2021-10-03T14:41:33Z</time>
      </trkpt>
      <trkpt lat="48.98752" lon="2.04907">
        <ele>101.6</ele>
        <time>2021-10-03T14:41:38Z</time>
      </trkpt>
      <trkpt lat="48.98747" lon="2.04916">
        <ele>101.1</ele>
        <time>2021-10-03T14:41:43Z</time>
      </trkpt>
      <trkpt lat="48.98743" lon="2.04921">
        <ele>100.9</ele>
        <time>2021-10-03T14:41:48Z</time>
      </trkpt>
      <trkpt lat="48.98739" lon="2.04925">
        <ele>100.7</ele>
        <time>2021-10-03T14:41:54Z</time>
      </trkpt>
      <trkpt lat="48.98732" lon="2.04934">
        <ele>100.4</ele>
        <time>2021-10-03T14:42:00Z</time>
      </trkpt>
      <trkpt lat="48.98726" lon="2.04942">
        <ele>100.1</ele>
        <time>2021-10-03T14:42:05Z</time>
      </trkpt>
      <trkpt lat="48.98721" lon="2.0495">
        <ele>99.8</ele>
        <time>2021-10-03T14:42:10Z</time>
      </trkpt>
      <trkpt lat="48.98715" lon="2.0496">
        <ele>99.3</ele>
        <time>2021-10-03T14:42:16Z</time>
      </trkpt>
      <trkpt lat="48.9871" lon="2.04967">
        <ele>99.1</ele>
        <time>2021-10-03T14:42:21Z</time>
      </trkpt>
      <trkpt lat="48.98704" lon="2.04975">
        <ele>98.8</ele>
        <time>2021-10-03T14:42:26Z</time>
      </trkpt>
      <trkpt lat="48.98698" lon="2.04984">
        <ele>98.4</ele>
        <time>2021-10-03T14:42:32Z</time>
      </trkpt>
      <trkpt lat="48.98692" lon="2.04991">
        <ele>98.1</ele>
        <time>2021-10-03T14:42:37Z</time>
      </trkpt>
      <trkpt lat="48.98688" lon="2.04997">
        <ele>97.9</ele>
        <time>2021-10-03T14:42:42Z</time>
      </trkpt>
      <trkpt lat="48.98682" lon="2.05006">
        <ele>97.5</ele>
        <time>2021-10-03T14:42:48Z</time>
      </trkpt>
      <trkpt lat="48.98676" lon="2.05013">
        <ele>97.2</ele>
        <time>2021-10-03T14:42:53Z</time>
      </trkpt>
      <trkpt lat="48.9867" lon="2.05022">
        <ele>96.9</ele>
        <time>2021-10-03T14:42:59Z</time>
      </trkpt>
      <trkpt lat="48.98664" lon="2.05028">
        <ele>96.7</ele>
        <time>2021-10-03T14:43:04Z</time>
      </trkpt>
      <trkpt lat="48.98658" lon="2.05033">
        <ele>96.4</ele>
        <time>2021-10-03T14:43:09Z</time>
      </trkpt>
      <trkpt lat="48.98652" lon="2.05042">
        <ele>96</ele>
        <time>2021-10-03T14:43:15Z</time>
      </trkpt>
      <trkpt lat="48.98649" lon="2.05048">
        <ele>95.7</ele>
        <time>2021-10-03T14:43:20Z</time>
      </trkpt>
      <trkpt lat="48.98644" lon="2.05056">
        <ele>95.4</ele>
        <time>2021-10-03T14:43:25Z</time>
      </trkpt>
      <trkpt lat="48.9864" lon="2.05063">
        <ele>95.2</ele>
        <time>2021-10-03T14:43:31Z</time>
      </trkpt>
      <trkpt lat="48.98636" lon="2.0507">
        <ele>94.9</ele>
        <time>2021-10-03T14:43:36Z</time>
      </trkpt>
      <trkpt lat="48.98631" lon="2.0508">
        <ele>94.6</ele>
        <time>2021-10-03T14:43:42Z</time>
      </trkpt>
      <trkpt lat="48.98628" lon="2.05088">
        <ele>94.3</ele>
        <time>2021-10-03T14:43:47Z</time>
      </trkpt>
      <trkpt lat="48.98623" lon="2.05096">
        <ele>94</ele>
        <time>2021-10-03T14:43:53Z</time>
      </trkpt>
      <trkpt lat="48.98619" lon="2.051">
        <ele>93.9</ele>
        <time>2021-10-03T14:43:58Z</time>
      </trkpt>
      <trkpt lat="48.98618" lon="2.0511">
        <ele>93.6</ele>
        <time>2021-10-03T14:44:03Z</time>
      </trkpt>
      <trkpt lat="48.98618" lon="2.05115">
        <ele>93.3</ele>
        <time>2021-10-03T14:44:09Z</time>
      </trkpt>
      <trkpt lat="48.98618" lon="2.05116">
        <ele>93.3</ele>
        <time>2021-10-03T14:44:15Z</time>
      </trkpt>
      <trkpt lat="48.98621" lon="2.05125">
        <ele>92.9</ele>
        <time>2021-10-03T14:44:21Z</time>
      </trkpt>
      <trkpt lat="48.98623" lon="2.05133">
        <ele>92.5</ele>
        <time>2021-10-03T14:44:26Z</time>
      </trkpt>
      <trkpt lat="48.98623" lon="2.0514">
        <ele>92.2</ele>
        <time>2021-10-03T14:44:31Z</time>
      </trkpt>
      <trkpt lat="48.98624" lon="2.05148">
        <ele>91.8</ele>
        <time>2021-10-03T14:44:36Z</time>
      </trkpt>
      <trkpt lat="48.98626" lon="2.05159">
        <ele>91.2</ele>
        <time>2021-10-03T14:44:42Z</time>
      </trkpt>
      <trkpt lat="48.98629" lon="2.05172">
        <ele>90.6</ele>
        <time>2021-10-03T14:44:48Z</time>
      </trkpt>
      <trkpt lat="48.9863" lon="2.0518">
        <ele>90.2</ele>
        <time>2021-10-03T14:44:53Z</time>
      </trkpt>
      <trkpt lat="48.9863" lon="2.0519">
        <ele>89.8</ele>
        <time>2021-10-03T14:44:59Z</time>
      </trkpt>
      <trkpt lat="48.98629" lon="2.052">
        <ele>89.5</ele>
        <time>2021-10-03T14:45:04Z</time>
      </trkpt>
      <trkpt lat="48.98629" lon="2.0521">
        <ele>89</ele>
        <time>2021-10-03T14:45:09Z</time>
      </trkpt>
      <trkpt lat="48.98629" lon="2.05219">
        <ele>88.6</ele>
        <time>2021-10-03T14:45:15Z</time>
      </trkpt>
      <trkpt lat="48.98628" lon="2.05228">
        <ele>88.3</ele>
        <time>2021-10-03T14:45:20Z</time>
      </trkpt>
      <trkpt lat="48.98629" lon="2.05237">
        <ele>87.9</ele>
        <time>2021-10-03T14:45:25Z</time>
      </trkpt>
      <trkpt lat="48.9863" lon="2.05251">
        <ele>87.3</ele>
        <time>2021-10-03T14:45:31Z</time>
      </trkpt>
      <trkpt lat="48.98633" lon="2.05262">
        <ele>86.5</ele>
        <time>2021-10-03T14:45:36Z</time>
      </trkpt>
      <trkpt lat="48.98631" lon="2.05271">
        <ele>85.9</ele>
        <time>2021-10-03T14:45:42Z</time>
      </trkpt>
      <trkpt lat="48.98633" lon="2.05281">
        <ele>85.2</ele>
        <time>2021-10-03T14:45:47Z</time>
      </trkpt>
      <trkpt lat="48.98634" lon="2.05291">
        <ele>84.6</ele>
        <time>2021-10-03T14:45:52Z</time>
      </trkpt>
      <trkpt lat="48.98634" lon="2.053">
        <ele>83.9</ele>
        <time>2021-10-03T14:45:57Z</time>
      </trkpt>
      <trkpt lat="48.98638" lon="2.0531">
        <ele>83.2</ele>
        <time>2021-10-03T14:46:03Z</time>
      </trkpt>
      <trkpt lat="48.98642" lon="2.05318">
        <ele>82.5</ele>
        <time>2021-10-03T14:46:09Z</time>
      </trkpt>
      <trkpt lat="48.98649" lon="2.0532">
        <ele>82.3</ele>
        <time>2021-10-03T14:46:15Z</time>
      </trkpt>
      <trkpt lat="48.98654" lon="2.05322">
        <ele>82</ele>
        <time>2021-10-03T14:46:20Z</time>
      </trkpt>
      <trkpt lat="48.9865" lon="2.05331">
        <ele>81.5</ele>
        <time>2021-10-03T14:46:26Z</time>
      </trkpt>
      <trkpt lat="48.98643" lon="2.05336">
        <ele>81.5</ele>
        <time>2021-10-03T14:46:31Z</time>
      </trkpt>
      <trkpt lat="48.98638" lon="2.05339">
        <ele>81.4</ele>
        <time>2021-10-03T14:46:36Z</time>
      </trkpt>
      <trkpt lat="48.98639" lon="2.05345">
        <ele>81.2</ele>
        <time>2021-10-03T14:46:42Z</time>
      </trkpt>
      <trkpt lat="48.98639" lon="2.05353">
        <ele>80.9</ele>
        <time>2021-10-03T14:46:47Z</time>
      </trkpt>
      <trkpt lat="48.98641" lon="2.05363">
        <ele>80.4</ele>
        <time>2021-10-03T14:46:52Z</time>
      </trkpt>
      <trkpt lat="48.98643" lon="2.05375">
        <ele>79.9</ele>
        <time>2021-10-03T14:46:58Z</time>
      </trkpt>
      <trkpt lat="48.98645" lon="2.05386">
        <ele>79.4</ele>
        <time>2021-10-03T14:47:03Z</time>
      </trkpt>
      <trkpt lat="48.98649" lon="2.05399">
        <ele>78.9</ele>
        <time>2021-10-03T14:47:09Z</time>
      </trkpt>
      <trkpt lat="48.98648" lon="2.05408">
        <ele>78.5</ele>
        <time>2021-10-03T14:47:14Z</time>
      </trkpt>
      <trkpt lat="48.98649" lon="2.05419">
        <ele>78.1</ele>
        <time>2021-10-03T14:47:20Z</time>
      </trkpt>
      <trkpt lat="48.98649" lon="2.0543">
        <ele>77.7</ele>
        <time>2021-10-03T14:47:26Z</time>
      </trkpt>
      <trkpt lat="48.98653" lon="2.05441">
        <ele>77.1</ele>
        <time>2021-10-03T14:47:31Z</time>
      </trkpt>
      <trkpt lat="48.98655" lon="2.05454">
        <ele>76.4</ele>
        <time>2021-10-03T14:47:37Z</time>
      </trkpt>
      <trkpt lat="48.98656" lon="2.05465">
        <ele>75.9</ele>
        <time>2021-10-03T14:47:42Z</time>
      </trkpt>
      <trkpt lat="48.98656" lon="2.05475">
        <ele>75.5</ele>
        <time>2021-10-03T14:47:48Z</time>
      </trkpt>
      <trkpt lat="48.98656" lon="2.05487">
        <ele>75</ele>
        <time>2021-10-03T14:47:54Z</time>
      </trkpt>
      <trkpt lat="48.98655" lon="2.05499">
        <ele>74.4</ele>
        <time>2021-10-03T14:48:00Z</time>
      </trkpt>
      <trkpt lat="48.98657" lon="2.05508">
        <ele>74</ele>
        <time>2021-10-03T14:48:05Z</time>
      </trkpt>
      <trkpt lat="48.9866" lon="2.05518">
        <ele>73.6</ele>
        <time>2021-10-03T14:48:11Z</time>
      </trkpt>
      <trkpt lat="48.98662" lon="2.05529">
        <ele>73.1</ele>
        <time>2021-10-03T14:48:17Z</time>
      </trkpt>
      <trkpt lat="48.98663" lon="2.05537">
        <ele>72.8</ele>
        <time>2021-10-03T14:48:23Z</time>
      </trkpt>
      <trkpt lat="48.98664" lon="2.05551">
        <ele>72.3</ele>
        <time>2021-10-03T14:48:29Z</time>
      </trkpt>
      <trkpt lat="48.98669" lon="2.05563">
        <ele>71.7</ele>
        <time>2021-10-03T14:48:34Z</time>
      </trkpt>
      <trkpt lat="48.98673" lon="2.05576">
        <ele>71.1</ele>
        <time>2021-10-03T14:48:40Z</time>
      </trkpt>
      <trkpt lat="48.98677" lon="2.05586">
        <ele>70.7</ele>
        <time>2021-10-03T14:48:46Z</time>
      </trkpt>
      <trkpt lat="48.98678" lon="2.05601">
        <ele>70.3</ele>
        <time>2021-10-03T14:48:52Z</time>
      </trkpt>
      <trkpt lat="48.9868" lon="2.05617">
        <ele>69.8</ele>
        <time>2021-10-03T14:48:58Z</time>
      </trkpt>
      <trkpt lat="48.9868" lon="2.05627">
        <ele>69.6</ele>
        <time>2021-10-03T14:49:03Z</time>
      </trkpt>
      <trkpt lat="48.98678" lon="2.0564">
        <ele>69.3</ele>
        <time>2021-10-03T14:49:09Z</time>
      </trkpt>
      <trkpt lat="48.98684" lon="2.05651">
        <ele>68.8</ele>
        <time>2021-10-03T14:49:15Z</time>
      </trkpt>
      <trkpt lat="48.98689" lon="2.05661">
        <ele>68.4</ele>
        <time>2021-10-03T14:49:20Z</time>
      </trkpt>
      <trkpt lat="48.98692" lon="2.05672">
        <ele>68</ele>
        <time>2021-10-03T14:49:26Z</time>
      </trkpt>
      <trkpt lat="48.98695" lon="2.05684">
        <ele>67.7</ele>
        <time>2021-10-03T14:49:32Z</time>
      </trkpt>
      <trkpt lat="48.98695" lon="2.05694">
        <ele>67.5</ele>
        <time>2021-10-03T14:49:37Z</time>
      </trkpt>
      <trkpt lat="48.98695" lon="2.05705">
        <ele>67.4</ele>
        <time>2021-10-03T14:49:43Z</time>
      </trkpt>
      <trkpt lat="48.98698" lon="2.05714">
        <ele>67.2</ele>
        <time>2021-10-03T14:49:48Z</time>
      </trkpt>
      <trkpt lat="48.987" lon="2.05723">
        <ele>67</ele>
        <time>2021-10-03T14:49:53Z</time>
      </trkpt>
      <trkpt lat="48.98703" lon="2.05733">
        <ele>66.8</ele>
        <time>2021-10-03T14:49:59Z</time>
      </trkpt>
      <trkpt lat="48.98707" lon="2.05743">
        <ele>66.6</ele>
        <time>2021-10-03T14:50:04Z</time>
      </trkpt>
      <trkpt lat="48.98708" lon="2.05753">
        <ele>66.3</ele>
        <time>2021-10-03T14:50:09Z</time>
      </trkpt>
      <trkpt lat="48.98711" lon="2.05764">
        <ele>65.5</ele>
        <time>2021-10-03T14:50:15Z</time>
      </trkpt>
      <trkpt lat="48.98714" lon="2.05776">
        <ele>64.6</ele>
        <time>2021-10-03T14:50:21Z</time>
      </trkpt>
      <trkpt lat="48.98718" lon="2.05785">
        <ele>64</ele>
        <time>2021-10-03T14:50:26Z</time>
      </trkpt>
      <trkpt lat="48.98717" lon="2.05795">
        <ele>63.2</ele>
        <time>2021-10-03T14:50:32Z</time>
      </trkpt>
      <trkpt lat="48.98711" lon="2.05802">
        <ele>62.9</ele>
        <time>2021-10-03T14:50:37Z</time>
      </trkpt>
      <trkpt lat="48.9871" lon="2.0581">
        <ele>62.5</ele>
        <time>2021-10-03T14:50:43Z</time>
      </trkpt>
      <trkpt lat="48.98711" lon="2.05822">
        <ele>61.6</ele>
        <time>2021-10-03T14:50:49Z</time>
      </trkpt>
      <trkpt lat="48.98711" lon="2.05832">
        <ele>60.9</ele>
        <time>2021-10-03T14:50:54Z</time>
      </trkpt>
      <trkpt lat="48.98712" lon="2.05841">
        <ele>60.1</ele>
        <time>2021-10-03T14:50:59Z</time>
      </trkpt>
      <trkpt lat="48.98711" lon="2.05849">
        <ele>59.2</ele>
        <time>2021-10-03T14:51:04Z</time>
      </trkpt>
      <trkpt lat="48.98714" lon="2.05862">
        <ele>57.9</ele>
        <time>2021-10-03T14:51:10Z</time>
      </trkpt>
      <trkpt lat="48.98714" lon="2.05873">
        <ele>56.7</ele>
        <time>2021-10-03T14:51:15Z</time>
      </trkpt>
      <trkpt lat="48.98716" lon="2.05887">
        <ele>55.3</ele>
        <time>2021-10-03T14:51:21Z</time>
      </trkpt>
      <trkpt lat="48.98718" lon="2.05894">
        <ele>54.4</ele>
        <time>2021-10-03T14:51:27Z</time>
      </trkpt>
      <trkpt lat="48.98716" lon="2.05899">
        <ele>54</ele>
        <time>2021-10-03T14:51:32Z</time>
      </trkpt>
      <trkpt lat="48.98715" lon="2.05908">
        <ele>53.1</ele>
        <time>2021-10-03T14:51:37Z</time>
      </trkpt>
      <trkpt lat="48.98713" lon="2.05915">
        <ele>52.5</ele>
        <time>2021-10-03T14:51:42Z</time>
      </trkpt>
      <trkpt lat="48.98713" lon="2.05918">
        <ele>52.1</ele>
        <time>2021-10-03T14:51:47Z</time>
      </trkpt>
      <trkpt lat="48.98712" lon="2.05926">
        <ele>51.1</ele>
        <time>2021-10-03T14:51:53Z</time>
      </trkpt>
      <trkpt lat="48.98712" lon="2.05934">
        <ele>50</ele>
        <time>2021-10-03T14:51:59Z</time>
      </trkpt>
      <trkpt lat="48.98712" lon="2.05941">
        <ele>49</ele>
        <time>2021-10-03T14:52:05Z</time>
      </trkpt>
      <trkpt lat="48.98713" lon="2.05946">
        <ele>48.3</ele>
        <time>2021-10-03T14:52:10Z</time>
      </trkpt>
      <trkpt lat="48.98712" lon="2.05951">
        <ele>47.7</ele>
        <time>2021-10-03T14:52:15Z</time>
      </trkpt>
      <trkpt lat="48.98712" lon="2.05953">
        <ele>47.5</ele>
        <time>2021-10-03T14:52:21Z</time>
      </trkpt>
      <trkpt lat="48.98712" lon="2.05954">
        <ele>47.2</ele>
        <time>2021-10-03T14:52:26Z</time>
      </trkpt>
      <trkpt lat="48.98712" lon="2.05955">
        <ele>47.2</ele>
        <time>2021-10-03T14:52:32Z</time>
      </trkpt>
    </trkseg>
  </trk>
</gpx>